<?xml version="1.0" encoding="UTF-8" standalone="no" ?>
<gpx xmlns="http://www.topografix.com/GPX/1/1" xmlns:xsi="http://www.w3.org/2001/XMLSchema-instance" xsi:schemaLocation="http://www.topografix.com/GPX/1/1 http://www.topografix.com/GPX/1/1/gpx.xsd" version="1.1" creator="VisuGPX - https://www.visugpx.com">
  <metadata>
    <name>Pilat Trois Dents</name>
    <desc><![CDATA[Boucle au départ de Véranne passant au sommet des Trois Dents]]></desc>
  </metadata>
  <wpt lat="45.36835" lon="4.66298">
    <ele>568</ele>
    <name><![CDATA[Parking au centre du village]]></name>
  </wpt>
  <wpt lat="45.36947" lon="4.66286">
    <ele>580</ele>
    <name><![CDATA[Sortie de Véranne]]></name>
  </wpt>
  <wpt lat="45.37872" lon="4.6633">
    <ele>734</ele>
    <name><![CDATA[Les Bessières]]></name>
  </wpt>
  <wpt lat="45.37716" lon="4.64058">
    <ele>805</ele>
    <name><![CDATA[Croix du Trève]]></name>
  </wpt>
  <wpt lat="45.38272" lon="4.6246">
    <ele>964</ele>
    <name><![CDATA[Carrefour de chemins]]></name>
  </wpt>
  <wpt lat="45.38525" lon="4.63146">
    <ele>1053</ele>
    <name><![CDATA[Piste horizontale à la cote1045]]></name>
  </wpt>
  <wpt lat="45.38785" lon="4.62874">
    <ele>1173</ele>
    <name><![CDATA[Sous la Dent]]></name>
  </wpt>
  <wpt lat="45.38865" lon="4.62087">
    <ele>1175</ele>
    <name><![CDATA[Cote 1164: Direction le Col du Gratteau]]></name>
  </wpt>
  <wpt lat="45.38501" lon="4.61574">
    <ele>1202</ele>
    <name><![CDATA[Col du Gratteau]]></name>
  </wpt>
  <wpt lat="45.36978" lon="4.61603">
    <ele>1062</ele>
    <name><![CDATA[Croix de Saint-Sabin]]></name>
  </wpt>
  <wpt lat="45.37302" lon="4.62116">
    <ele>997</ele>
    <name><![CDATA[La Ligue]]></name>
  </wpt>
  <wpt lat="45.37014" lon="4.63349">
    <ele>805</ele>
    <name><![CDATA[Sous la Nordet]]></name>
  </wpt>
  <wpt lat="45.36684" lon="4.65033">
    <ele>602</ele>
    <name><![CDATA[La Pras]]></name>
  </wpt>
  <wpt lat="45.36833" lon="4.66292">
    <ele>568</ele>
    <name><![CDATA[Parking au centre du village]]></name>
  </wpt>
  <trk>
    <name><![CDATA[Les Trois Dents depuis Véranne]]></name>
    <trkseg>
      <trkpt lat="45.36835" lon="4.66298">
        <ele>568</ele>
        <time>2018-07-21T16:39:22+02:00</time>
      </trkpt>
      <trkpt lat="45.36873" lon="4.66239">
        <ele>573</ele>
        <time>2018-07-21T16:39:27+02:00</time>
      </trkpt>
      <trkpt lat="45.3688" lon="4.66227">
        <ele>573</ele>
        <time>2018-07-21T16:39:32+02:00</time>
      </trkpt>
      <trkpt lat="45.36888" lon="4.66213">
        <ele>574</ele>
        <time>2018-07-21T16:39:37+02:00</time>
      </trkpt>
      <trkpt lat="45.36897" lon="4.662">
        <ele>575</ele>
        <time>2018-07-21T16:39:42+02:00</time>
      </trkpt>
      <trkpt lat="45.36925" lon="4.66187">
        <ele>579</ele>
        <time>2018-07-21T16:39:47+02:00</time>
      </trkpt>
      <trkpt lat="45.36926" lon="4.66188">
        <ele>579</ele>
        <time>2018-07-21T16:39:52+02:00</time>
      </trkpt>
      <trkpt lat="45.36927" lon="4.66204">
        <ele>580</ele>
        <time>2018-07-21T16:39:57+02:00</time>
      </trkpt>
      <trkpt lat="45.36931" lon="4.66216">
        <ele>580</ele>
        <time>2018-07-21T16:40:02+02:00</time>
      </trkpt>
      <trkpt lat="45.36933" lon="4.66229">
        <ele>581</ele>
        <time>2018-07-21T16:40:07+02:00</time>
      </trkpt>
      <trkpt lat="45.36936" lon="4.66247">
        <ele>581</ele>
        <time>2018-07-21T16:40:12+02:00</time>
      </trkpt>
      <trkpt lat="45.36938" lon="4.66266">
        <ele>580</ele>
        <time>2018-07-21T16:40:17+02:00</time>
      </trkpt>
      <trkpt lat="45.36942" lon="4.66281">
        <ele>580</ele>
        <time>2018-07-21T16:40:22+02:00</time>
      </trkpt>
      <trkpt lat="45.36947" lon="4.66286">
        <ele>580</ele>
        <time>2018-07-21T16:40:27+02:00</time>
      </trkpt>
      <trkpt lat="45.36951" lon="4.66289">
        <ele>581</ele>
        <time>2018-07-21T16:40:32+02:00</time>
      </trkpt>
      <trkpt lat="45.3696" lon="4.66296">
        <ele>582</ele>
        <time>2018-07-21T16:40:37+02:00</time>
      </trkpt>
      <trkpt lat="45.36968" lon="4.66303">
        <ele>583</ele>
        <time>2018-07-21T16:40:42+02:00</time>
      </trkpt>
      <trkpt lat="45.36976" lon="4.66307">
        <ele>583</ele>
        <time>2018-07-21T16:40:47+02:00</time>
      </trkpt>
      <trkpt lat="45.36979" lon="4.66306">
        <ele>584</ele>
        <time>2018-07-21T16:40:52+02:00</time>
      </trkpt>
      <trkpt lat="45.36987" lon="4.663">
        <ele>586</ele>
        <time>2018-07-21T16:40:57+02:00</time>
      </trkpt>
      <trkpt lat="45.36992" lon="4.66291">
        <ele>588</ele>
        <time>2018-07-21T16:41:02+02:00</time>
      </trkpt>
      <trkpt lat="45.36992" lon="4.66282">
        <ele>589</ele>
        <time>2018-07-21T16:41:07+02:00</time>
      </trkpt>
      <trkpt lat="45.36994" lon="4.66273">
        <ele>590</ele>
        <time>2018-07-21T16:41:12+02:00</time>
      </trkpt>
      <trkpt lat="45.36995" lon="4.66265">
        <ele>591</ele>
        <time>2018-07-21T16:41:17+02:00</time>
      </trkpt>
      <trkpt lat="45.36997" lon="4.66256">
        <ele>593</ele>
        <time>2018-07-21T16:41:22+02:00</time>
      </trkpt>
      <trkpt lat="45.37003" lon="4.66251">
        <ele>595</ele>
        <time>2018-07-21T16:41:27+02:00</time>
      </trkpt>
      <trkpt lat="45.37009" lon="4.6625">
        <ele>596</ele>
        <time>2018-07-21T16:41:32+02:00</time>
      </trkpt>
      <trkpt lat="45.37016" lon="4.66251">
        <ele>598</ele>
        <time>2018-07-21T16:41:37+02:00</time>
      </trkpt>
      <trkpt lat="45.37024" lon="4.66253">
        <ele>600</ele>
        <time>2018-07-21T16:41:42+02:00</time>
      </trkpt>
      <trkpt lat="45.3703" lon="4.66253">
        <ele>602</ele>
        <time>2018-07-21T16:41:47+02:00</time>
      </trkpt>
      <trkpt lat="45.37037" lon="4.66255">
        <ele>603</ele>
        <time>2018-07-21T16:41:52+02:00</time>
      </trkpt>
      <trkpt lat="45.37041" lon="4.66256">
        <ele>604</ele>
        <time>2018-07-21T16:41:57+02:00</time>
      </trkpt>
      <trkpt lat="45.37048" lon="4.66257">
        <ele>606</ele>
        <time>2018-07-21T16:42:02+02:00</time>
      </trkpt>
      <trkpt lat="45.37053" lon="4.66259">
        <ele>607</ele>
        <time>2018-07-21T16:42:07+02:00</time>
      </trkpt>
      <trkpt lat="45.37061" lon="4.66263">
        <ele>608</ele>
        <time>2018-07-21T16:42:12+02:00</time>
      </trkpt>
      <trkpt lat="45.37066" lon="4.66267">
        <ele>609</ele>
        <time>2018-07-21T16:42:17+02:00</time>
      </trkpt>
      <trkpt lat="45.37071" lon="4.66271">
        <ele>610</ele>
        <time>2018-07-21T16:42:22+02:00</time>
      </trkpt>
      <trkpt lat="45.37074" lon="4.66276">
        <ele>610</ele>
        <time>2018-07-21T16:42:27+02:00</time>
      </trkpt>
      <trkpt lat="45.3708" lon="4.66283">
        <ele>611</ele>
        <time>2018-07-21T16:42:32+02:00</time>
      </trkpt>
      <trkpt lat="45.37088" lon="4.66294">
        <ele>612</ele>
        <time>2018-07-21T16:42:37+02:00</time>
      </trkpt>
      <trkpt lat="45.37094" lon="4.66302">
        <ele>612</ele>
        <time>2018-07-21T16:42:42+02:00</time>
      </trkpt>
      <trkpt lat="45.371" lon="4.66308">
        <ele>613</ele>
        <time>2018-07-21T16:42:47+02:00</time>
      </trkpt>
      <trkpt lat="45.37106" lon="4.66314">
        <ele>614</ele>
        <time>2018-07-21T16:42:52+02:00</time>
      </trkpt>
      <trkpt lat="45.37112" lon="4.6632">
        <ele>614</ele>
        <time>2018-07-21T16:42:57+02:00</time>
      </trkpt>
      <trkpt lat="45.37115" lon="4.66324">
        <ele>614</ele>
        <time>2018-07-21T16:43:02+02:00</time>
      </trkpt>
      <trkpt lat="45.3712" lon="4.66327">
        <ele>615</ele>
        <time>2018-07-21T16:43:07+02:00</time>
      </trkpt>
      <trkpt lat="45.37127" lon="4.66332">
        <ele>616</ele>
        <time>2018-07-21T16:43:12+02:00</time>
      </trkpt>
      <trkpt lat="45.37136" lon="4.66334">
        <ele>618</ele>
        <time>2018-07-21T16:43:17+02:00</time>
      </trkpt>
      <trkpt lat="45.37145" lon="4.66334">
        <ele>620</ele>
        <time>2018-07-21T16:43:22+02:00</time>
      </trkpt>
      <trkpt lat="45.37154" lon="4.66336">
        <ele>621</ele>
        <time>2018-07-21T16:43:27+02:00</time>
      </trkpt>
      <trkpt lat="45.37161" lon="4.66337">
        <ele>623</ele>
        <time>2018-07-21T16:43:32+02:00</time>
      </trkpt>
      <trkpt lat="45.37168" lon="4.66335">
        <ele>625</ele>
        <time>2018-07-21T16:43:37+02:00</time>
      </trkpt>
      <trkpt lat="45.37171" lon="4.66335">
        <ele>625</ele>
        <time>2018-07-21T16:43:42+02:00</time>
      </trkpt>
      <trkpt lat="45.37177" lon="4.66333">
        <ele>627</ele>
        <time>2018-07-21T16:43:47+02:00</time>
      </trkpt>
      <trkpt lat="45.37188" lon="4.6633">
        <ele>629</ele>
        <time>2018-07-21T16:43:52+02:00</time>
      </trkpt>
      <trkpt lat="45.37192" lon="4.66329">
        <ele>629</ele>
        <time>2018-07-21T16:43:57+02:00</time>
      </trkpt>
      <trkpt lat="45.37199" lon="4.66328">
        <ele>630</ele>
        <time>2018-07-21T16:44:02+02:00</time>
      </trkpt>
      <trkpt lat="45.37205" lon="4.66326">
        <ele>632</ele>
        <time>2018-07-21T16:44:07+02:00</time>
      </trkpt>
      <trkpt lat="45.37211" lon="4.66325">
        <ele>633</ele>
        <time>2018-07-21T16:44:12+02:00</time>
      </trkpt>
      <trkpt lat="45.37217" lon="4.66324">
        <ele>634</ele>
        <time>2018-07-21T16:44:17+02:00</time>
      </trkpt>
      <trkpt lat="45.37225" lon="4.66324">
        <ele>635</ele>
        <time>2018-07-21T16:44:22+02:00</time>
      </trkpt>
      <trkpt lat="45.37231" lon="4.66325">
        <ele>636</ele>
        <time>2018-07-21T16:44:27+02:00</time>
      </trkpt>
      <trkpt lat="45.37234" lon="4.66327">
        <ele>636</ele>
        <time>2018-07-21T16:44:32+02:00</time>
      </trkpt>
      <trkpt lat="45.37239" lon="4.66327">
        <ele>636</ele>
        <time>2018-07-21T16:44:37+02:00</time>
      </trkpt>
      <trkpt lat="45.37248" lon="4.66331">
        <ele>637</ele>
        <time>2018-07-21T16:44:42+02:00</time>
      </trkpt>
      <trkpt lat="45.37254" lon="4.66337">
        <ele>637</ele>
        <time>2018-07-21T16:44:47+02:00</time>
      </trkpt>
      <trkpt lat="45.37259" lon="4.66342">
        <ele>637</ele>
        <time>2018-07-21T16:44:52+02:00</time>
      </trkpt>
      <trkpt lat="45.37266" lon="4.66348">
        <ele>637</ele>
        <time>2018-07-21T16:44:57+02:00</time>
      </trkpt>
      <trkpt lat="45.3727" lon="4.66352">
        <ele>637</ele>
        <time>2018-07-21T16:45:02+02:00</time>
      </trkpt>
      <trkpt lat="45.37279" lon="4.66359">
        <ele>637</ele>
        <time>2018-07-21T16:45:07+02:00</time>
      </trkpt>
      <trkpt lat="45.37288" lon="4.66366">
        <ele>637</ele>
        <time>2018-07-21T16:45:12+02:00</time>
      </trkpt>
      <trkpt lat="45.37294" lon="4.66372">
        <ele>638</ele>
        <time>2018-07-21T16:45:17+02:00</time>
      </trkpt>
      <trkpt lat="45.373" lon="4.66377">
        <ele>638</ele>
        <time>2018-07-21T16:45:22+02:00</time>
      </trkpt>
      <trkpt lat="45.37308" lon="4.66385">
        <ele>638</ele>
        <time>2018-07-21T16:45:27+02:00</time>
      </trkpt>
      <trkpt lat="45.37316" lon="4.66389">
        <ele>639</ele>
        <time>2018-07-21T16:45:32+02:00</time>
      </trkpt>
      <trkpt lat="45.37324" lon="4.66393">
        <ele>640</ele>
        <time>2018-07-21T16:45:37+02:00</time>
      </trkpt>
      <trkpt lat="45.37332" lon="4.66397">
        <ele>641</ele>
        <time>2018-07-21T16:45:42+02:00</time>
      </trkpt>
      <trkpt lat="45.3734" lon="4.66401">
        <ele>641</ele>
        <time>2018-07-21T16:45:47+02:00</time>
      </trkpt>
      <trkpt lat="45.37348" lon="4.66404">
        <ele>642</ele>
        <time>2018-07-21T16:45:52+02:00</time>
      </trkpt>
      <trkpt lat="45.37357" lon="4.66404">
        <ele>643</ele>
        <time>2018-07-21T16:45:57+02:00</time>
      </trkpt>
      <trkpt lat="45.37366" lon="4.66403">
        <ele>644</ele>
        <time>2018-07-21T16:46:02+02:00</time>
      </trkpt>
      <trkpt lat="45.37376" lon="4.66401">
        <ele>645</ele>
        <time>2018-07-21T16:46:07+02:00</time>
      </trkpt>
      <trkpt lat="45.37385" lon="4.66399">
        <ele>647</ele>
        <time>2018-07-21T16:46:12+02:00</time>
      </trkpt>
      <trkpt lat="45.37394" lon="4.66397">
        <ele>648</ele>
        <time>2018-07-21T16:46:17+02:00</time>
      </trkpt>
      <trkpt lat="45.37403" lon="4.66397">
        <ele>649</ele>
        <time>2018-07-21T16:46:22+02:00</time>
      </trkpt>
      <trkpt lat="45.37411" lon="4.664">
        <ele>650</ele>
        <time>2018-07-21T16:46:27+02:00</time>
      </trkpt>
      <trkpt lat="45.37417" lon="4.66403">
        <ele>650</ele>
        <time>2018-07-21T16:46:32+02:00</time>
      </trkpt>
      <trkpt lat="45.37425" lon="4.66402">
        <ele>652</ele>
        <time>2018-07-21T16:46:37+02:00</time>
      </trkpt>
      <trkpt lat="45.37431" lon="4.66393">
        <ele>654</ele>
        <time>2018-07-21T16:46:42+02:00</time>
      </trkpt>
      <trkpt lat="45.37431" lon="4.66384">
        <ele>655</ele>
        <time>2018-07-21T16:46:47+02:00</time>
      </trkpt>
      <trkpt lat="45.37428" lon="4.66374">
        <ele>656</ele>
        <time>2018-07-21T16:46:52+02:00</time>
      </trkpt>
      <trkpt lat="45.37425" lon="4.66365">
        <ele>656</ele>
        <time>2018-07-21T16:46:57+02:00</time>
      </trkpt>
      <trkpt lat="45.3742" lon="4.66355">
        <ele>657</ele>
        <time>2018-07-21T16:47:02+02:00</time>
      </trkpt>
      <trkpt lat="45.37416" lon="4.66345">
        <ele>657</ele>
        <time>2018-07-21T16:47:07+02:00</time>
      </trkpt>
      <trkpt lat="45.37412" lon="4.66333">
        <ele>658</ele>
        <time>2018-07-21T16:47:12+02:00</time>
      </trkpt>
      <trkpt lat="45.37409" lon="4.66318">
        <ele>660</ele>
        <time>2018-07-21T16:47:17+02:00</time>
      </trkpt>
      <trkpt lat="45.37408" lon="4.66309">
        <ele>661</ele>
        <time>2018-07-21T16:47:22+02:00</time>
      </trkpt>
      <trkpt lat="45.37407" lon="4.66296">
        <ele>663</ele>
        <time>2018-07-21T16:47:27+02:00</time>
      </trkpt>
      <trkpt lat="45.37407" lon="4.66283">
        <ele>664</ele>
        <time>2018-07-21T16:47:32+02:00</time>
      </trkpt>
      <trkpt lat="45.3741" lon="4.66272">
        <ele>666</ele>
        <time>2018-07-21T16:47:37+02:00</time>
      </trkpt>
      <trkpt lat="45.37415" lon="4.66268">
        <ele>667</ele>
        <time>2018-07-21T16:47:42+02:00</time>
      </trkpt>
      <trkpt lat="45.37421" lon="4.66268">
        <ele>668</ele>
        <time>2018-07-21T16:47:47+02:00</time>
      </trkpt>
      <trkpt lat="45.37428" lon="4.66269">
        <ele>669</ele>
        <time>2018-07-21T16:47:52+02:00</time>
      </trkpt>
      <trkpt lat="45.37435" lon="4.6627">
        <ele>670</ele>
        <time>2018-07-21T16:47:57+02:00</time>
      </trkpt>
      <trkpt lat="45.37442" lon="4.66272">
        <ele>671</ele>
        <time>2018-07-21T16:48:02+02:00</time>
      </trkpt>
      <trkpt lat="45.37448" lon="4.66273">
        <ele>672</ele>
        <time>2018-07-21T16:48:07+02:00</time>
      </trkpt>
      <trkpt lat="45.3745" lon="4.66273">
        <ele>672</ele>
        <time>2018-07-21T16:48:12+02:00</time>
      </trkpt>
      <trkpt lat="45.3746" lon="4.66276">
        <ele>673</ele>
        <time>2018-07-21T16:48:17+02:00</time>
      </trkpt>
      <trkpt lat="45.37472" lon="4.66276">
        <ele>675</ele>
        <time>2018-07-21T16:48:22+02:00</time>
      </trkpt>
      <trkpt lat="45.37481" lon="4.66273">
        <ele>677</ele>
        <time>2018-07-21T16:48:27+02:00</time>
      </trkpt>
      <trkpt lat="45.37487" lon="4.66271">
        <ele>678</ele>
        <time>2018-07-21T16:48:32+02:00</time>
      </trkpt>
      <trkpt lat="45.37493" lon="4.66267">
        <ele>680</ele>
        <time>2018-07-21T16:48:37+02:00</time>
      </trkpt>
      <trkpt lat="45.37499" lon="4.66266">
        <ele>681</ele>
        <time>2018-07-21T16:48:42+02:00</time>
      </trkpt>
      <trkpt lat="45.37507" lon="4.66266">
        <ele>682</ele>
        <time>2018-07-21T16:48:47+02:00</time>
      </trkpt>
      <trkpt lat="45.37511" lon="4.66269">
        <ele>683</ele>
        <time>2018-07-21T16:48:52+02:00</time>
      </trkpt>
      <trkpt lat="45.37518" lon="4.66275">
        <ele>684</ele>
        <time>2018-07-21T16:48:57+02:00</time>
      </trkpt>
      <trkpt lat="45.37524" lon="4.6628">
        <ele>685</ele>
        <time>2018-07-21T16:49:02+02:00</time>
      </trkpt>
      <trkpt lat="45.37526" lon="4.66282">
        <ele>685</ele>
        <time>2018-07-21T16:49:07+02:00</time>
      </trkpt>
      <trkpt lat="45.37532" lon="4.6629">
        <ele>685</ele>
        <time>2018-07-21T16:49:12+02:00</time>
      </trkpt>
      <trkpt lat="45.37539" lon="4.663">
        <ele>686</ele>
        <time>2018-07-21T16:49:17+02:00</time>
      </trkpt>
      <trkpt lat="45.37545" lon="4.66307">
        <ele>687</ele>
        <time>2018-07-21T16:49:22+02:00</time>
      </trkpt>
      <trkpt lat="45.3755" lon="4.66314">
        <ele>688</ele>
        <time>2018-07-21T16:49:27+02:00</time>
      </trkpt>
      <trkpt lat="45.37557" lon="4.66319">
        <ele>689</ele>
        <time>2018-07-21T16:49:32+02:00</time>
      </trkpt>
      <trkpt lat="45.37565" lon="4.66319">
        <ele>691</ele>
        <time>2018-07-21T16:49:37+02:00</time>
      </trkpt>
      <trkpt lat="45.37574" lon="4.66316">
        <ele>694</ele>
        <time>2018-07-21T16:49:42+02:00</time>
      </trkpt>
      <trkpt lat="45.37577" lon="4.66308">
        <ele>695</ele>
        <time>2018-07-21T16:49:47+02:00</time>
      </trkpt>
      <trkpt lat="45.37579" lon="4.66302">
        <ele>696</ele>
        <time>2018-07-21T16:49:52+02:00</time>
      </trkpt>
      <trkpt lat="45.3758" lon="4.66294">
        <ele>697</ele>
        <time>2018-07-21T16:49:57+02:00</time>
      </trkpt>
      <trkpt lat="45.37583" lon="4.66287">
        <ele>698</ele>
        <time>2018-07-21T16:50:02+02:00</time>
      </trkpt>
      <trkpt lat="45.3759" lon="4.66283">
        <ele>700</ele>
        <time>2018-07-21T16:50:07+02:00</time>
      </trkpt>
      <trkpt lat="45.37595" lon="4.66283">
        <ele>702</ele>
        <time>2018-07-21T16:50:12+02:00</time>
      </trkpt>
      <trkpt lat="45.376" lon="4.66285">
        <ele>703</ele>
        <time>2018-07-21T16:50:17+02:00</time>
      </trkpt>
      <trkpt lat="45.37608" lon="4.66288">
        <ele>705</ele>
        <time>2018-07-21T16:50:22+02:00</time>
      </trkpt>
      <trkpt lat="45.37614" lon="4.66291">
        <ele>706</ele>
        <time>2018-07-21T16:50:27+02:00</time>
      </trkpt>
      <trkpt lat="45.3762" lon="4.66294">
        <ele>707</ele>
        <time>2018-07-21T16:50:32+02:00</time>
      </trkpt>
      <trkpt lat="45.37623" lon="4.66296">
        <ele>708</ele>
        <time>2018-07-21T16:50:37+02:00</time>
      </trkpt>
      <trkpt lat="45.37629" lon="4.66302">
        <ele>709</ele>
        <time>2018-07-21T16:50:42+02:00</time>
      </trkpt>
      <trkpt lat="45.37635" lon="4.66312">
        <ele>710</ele>
        <time>2018-07-21T16:50:47+02:00</time>
      </trkpt>
      <trkpt lat="45.37639" lon="4.66319">
        <ele>711</ele>
        <time>2018-07-21T16:50:52+02:00</time>
      </trkpt>
      <trkpt lat="45.37645" lon="4.66327">
        <ele>712</ele>
        <time>2018-07-21T16:50:57+02:00</time>
      </trkpt>
      <trkpt lat="45.3765" lon="4.66338">
        <ele>713</ele>
        <time>2018-07-21T16:51:02+02:00</time>
      </trkpt>
      <trkpt lat="45.37653" lon="4.66344">
        <ele>714</ele>
        <time>2018-07-21T16:51:07+02:00</time>
      </trkpt>
      <trkpt lat="45.37657" lon="4.66347">
        <ele>714</ele>
        <time>2018-07-21T16:51:12+02:00</time>
      </trkpt>
      <trkpt lat="45.37663" lon="4.66354">
        <ele>715</ele>
        <time>2018-07-21T16:51:17+02:00</time>
      </trkpt>
      <trkpt lat="45.37668" lon="4.66361">
        <ele>716</ele>
        <time>2018-07-21T16:51:22+02:00</time>
      </trkpt>
      <trkpt lat="45.37674" lon="4.66366">
        <ele>717</ele>
        <time>2018-07-21T16:51:27+02:00</time>
      </trkpt>
      <trkpt lat="45.37677" lon="4.6637">
        <ele>718</ele>
        <time>2018-07-21T16:51:32+02:00</time>
      </trkpt>
      <trkpt lat="45.3768" lon="4.66374">
        <ele>718</ele>
        <time>2018-07-21T16:51:37+02:00</time>
      </trkpt>
      <trkpt lat="45.37685" lon="4.66382">
        <ele>718</ele>
        <time>2018-07-21T16:51:42+02:00</time>
      </trkpt>
      <trkpt lat="45.37691" lon="4.66394">
        <ele>718</ele>
        <time>2018-07-21T16:51:47+02:00</time>
      </trkpt>
      <trkpt lat="45.37696" lon="4.66406">
        <ele>718</ele>
        <time>2018-07-21T16:51:52+02:00</time>
      </trkpt>
      <trkpt lat="45.37702" lon="4.66415">
        <ele>718</ele>
        <time>2018-07-21T16:51:57+02:00</time>
      </trkpt>
      <trkpt lat="45.37707" lon="4.66425">
        <ele>719</ele>
        <time>2018-07-21T16:52:02+02:00</time>
      </trkpt>
      <trkpt lat="45.37712" lon="4.66433">
        <ele>718</ele>
        <time>2018-07-21T16:52:07+02:00</time>
      </trkpt>
      <trkpt lat="45.37719" lon="4.66439">
        <ele>719</ele>
        <time>2018-07-21T16:52:12+02:00</time>
      </trkpt>
      <trkpt lat="45.3772" lon="4.66439">
        <ele>719</ele>
        <time>2018-07-21T16:52:17+02:00</time>
      </trkpt>
      <trkpt lat="45.37729" lon="4.6644">
        <ele>721</ele>
        <time>2018-07-21T16:52:22+02:00</time>
      </trkpt>
      <trkpt lat="45.37737" lon="4.66442">
        <ele>722</ele>
        <time>2018-07-21T16:52:27+02:00</time>
      </trkpt>
      <trkpt lat="45.37745" lon="4.66445">
        <ele>723</ele>
        <time>2018-07-21T16:52:32+02:00</time>
      </trkpt>
      <trkpt lat="45.37756" lon="4.66449">
        <ele>723</ele>
        <time>2018-07-21T16:52:37+02:00</time>
      </trkpt>
      <trkpt lat="45.37764" lon="4.66453">
        <ele>723</ele>
        <time>2018-07-21T16:52:42+02:00</time>
      </trkpt>
      <trkpt lat="45.37773" lon="4.66456">
        <ele>722</ele>
        <time>2018-07-21T16:52:47+02:00</time>
      </trkpt>
      <trkpt lat="45.3778" lon="4.66456">
        <ele>722</ele>
        <time>2018-07-21T16:52:52+02:00</time>
      </trkpt>
      <trkpt lat="45.37789" lon="4.66456">
        <ele>722</ele>
        <time>2018-07-21T16:52:57+02:00</time>
      </trkpt>
      <trkpt lat="45.37799" lon="4.66456">
        <ele>722</ele>
        <time>2018-07-21T16:53:02+02:00</time>
      </trkpt>
      <trkpt lat="45.37806" lon="4.66453">
        <ele>722</ele>
        <time>2018-07-21T16:53:07+02:00</time>
      </trkpt>
      <trkpt lat="45.37813" lon="4.66448">
        <ele>723</ele>
        <time>2018-07-21T16:53:12+02:00</time>
      </trkpt>
      <trkpt lat="45.3782" lon="4.66442">
        <ele>724</ele>
        <time>2018-07-21T16:53:17+02:00</time>
      </trkpt>
      <trkpt lat="45.37827" lon="4.66436">
        <ele>724</ele>
        <time>2018-07-21T16:53:22+02:00</time>
      </trkpt>
      <trkpt lat="45.37832" lon="4.66427">
        <ele>726</ele>
        <time>2018-07-21T16:53:27+02:00</time>
      </trkpt>
      <trkpt lat="45.37834" lon="4.66421">
        <ele>726</ele>
        <time>2018-07-21T16:53:32+02:00</time>
      </trkpt>
      <trkpt lat="45.3784" lon="4.6641">
        <ele>728</ele>
        <time>2018-07-21T16:53:37+02:00</time>
      </trkpt>
      <trkpt lat="45.37844" lon="4.66401">
        <ele>729</ele>
        <time>2018-07-21T16:53:42+02:00</time>
      </trkpt>
      <trkpt lat="45.37849" lon="4.66391">
        <ele>729</ele>
        <time>2018-07-21T16:53:47+02:00</time>
      </trkpt>
      <trkpt lat="45.37853" lon="4.66383">
        <ele>730</ele>
        <time>2018-07-21T16:53:52+02:00</time>
      </trkpt>
      <trkpt lat="45.37857" lon="4.66372">
        <ele>731</ele>
        <time>2018-07-21T16:53:57+02:00</time>
      </trkpt>
      <trkpt lat="45.37861" lon="4.66364">
        <ele>732</ele>
        <time>2018-07-21T16:54:02+02:00</time>
      </trkpt>
      <trkpt lat="45.37862" lon="4.66359">
        <ele>732</ele>
        <time>2018-07-21T16:54:07+02:00</time>
      </trkpt>
      <trkpt lat="45.37865" lon="4.66355">
        <ele>732</ele>
        <time>2018-07-21T16:54:12+02:00</time>
      </trkpt>
      <trkpt lat="45.37872" lon="4.6633">
        <ele>734</ele>
        <time>2018-07-21T16:54:17+02:00</time>
      </trkpt>
      <trkpt lat="45.37858" lon="4.66333">
        <ele>736</ele>
        <time>2018-07-21T16:54:22+02:00</time>
      </trkpt>
      <trkpt lat="45.37846" lon="4.66339">
        <ele>737</ele>
        <time>2018-07-21T16:54:27+02:00</time>
      </trkpt>
      <trkpt lat="45.37841" lon="4.66338">
        <ele>738</ele>
        <time>2018-07-21T16:54:32+02:00</time>
      </trkpt>
      <trkpt lat="45.3783" lon="4.66338">
        <ele>739</ele>
        <time>2018-07-21T16:54:37+02:00</time>
      </trkpt>
      <trkpt lat="45.37824" lon="4.66335">
        <ele>739</ele>
        <time>2018-07-21T16:54:42+02:00</time>
      </trkpt>
      <trkpt lat="45.37819" lon="4.66332">
        <ele>740</ele>
        <time>2018-07-21T16:54:47+02:00</time>
      </trkpt>
      <trkpt lat="45.37816" lon="4.66328">
        <ele>740</ele>
        <time>2018-07-21T16:54:52+02:00</time>
      </trkpt>
      <trkpt lat="45.37809" lon="4.66321">
        <ele>741</ele>
        <time>2018-07-21T16:54:57+02:00</time>
      </trkpt>
      <trkpt lat="45.37804" lon="4.66313">
        <ele>741</ele>
        <time>2018-07-21T16:55:02+02:00</time>
      </trkpt>
      <trkpt lat="45.378" lon="4.66303">
        <ele>742</ele>
        <time>2018-07-21T16:55:07+02:00</time>
      </trkpt>
      <trkpt lat="45.37797" lon="4.66293">
        <ele>743</ele>
        <time>2018-07-21T16:55:12+02:00</time>
      </trkpt>
      <trkpt lat="45.37792" lon="4.6628">
        <ele>744</ele>
        <time>2018-07-21T16:55:17+02:00</time>
      </trkpt>
      <trkpt lat="45.37793" lon="4.66268">
        <ele>745</ele>
        <time>2018-07-21T16:55:22+02:00</time>
      </trkpt>
      <trkpt lat="45.37793" lon="4.66257">
        <ele>746</ele>
        <time>2018-07-21T16:55:27+02:00</time>
      </trkpt>
      <trkpt lat="45.37793" lon="4.66248">
        <ele>747</ele>
        <time>2018-07-21T16:55:32+02:00</time>
      </trkpt>
      <trkpt lat="45.37794" lon="4.66242">
        <ele>748</ele>
        <time>2018-07-21T16:55:37+02:00</time>
      </trkpt>
      <trkpt lat="45.37795" lon="4.66234">
        <ele>748</ele>
        <time>2018-07-21T16:55:42+02:00</time>
      </trkpt>
      <trkpt lat="45.37795" lon="4.66225">
        <ele>749</ele>
        <time>2018-07-21T16:55:47+02:00</time>
      </trkpt>
      <trkpt lat="45.37797" lon="4.66213">
        <ele>750</ele>
        <time>2018-07-21T16:55:52+02:00</time>
      </trkpt>
      <trkpt lat="45.37797" lon="4.66204">
        <ele>751</ele>
        <time>2018-07-21T16:55:57+02:00</time>
      </trkpt>
      <trkpt lat="45.37797" lon="4.66197">
        <ele>752</ele>
        <time>2018-07-21T16:56:02+02:00</time>
      </trkpt>
      <trkpt lat="45.37795" lon="4.66188">
        <ele>752</ele>
        <time>2018-07-21T16:56:07+02:00</time>
      </trkpt>
      <trkpt lat="45.37791" lon="4.66179">
        <ele>753</ele>
        <time>2018-07-21T16:56:12+02:00</time>
      </trkpt>
      <trkpt lat="45.37789" lon="4.66171">
        <ele>754</ele>
        <time>2018-07-21T16:56:17+02:00</time>
      </trkpt>
      <trkpt lat="45.37784" lon="4.66163">
        <ele>754</ele>
        <time>2018-07-21T16:56:22+02:00</time>
      </trkpt>
      <trkpt lat="45.3778" lon="4.66155">
        <ele>755</ele>
        <time>2018-07-21T16:56:27+02:00</time>
      </trkpt>
      <trkpt lat="45.37777" lon="4.66151">
        <ele>756</ele>
        <time>2018-07-21T16:56:32+02:00</time>
      </trkpt>
      <trkpt lat="45.37773" lon="4.66138">
        <ele>758</ele>
        <time>2018-07-21T16:56:37+02:00</time>
      </trkpt>
      <trkpt lat="45.37772" lon="4.66127">
        <ele>759</ele>
        <time>2018-07-21T16:56:42+02:00</time>
      </trkpt>
      <trkpt lat="45.3777" lon="4.6612">
        <ele>760</ele>
        <time>2018-07-21T16:56:47+02:00</time>
      </trkpt>
      <trkpt lat="45.37769" lon="4.66113">
        <ele>761</ele>
        <time>2018-07-21T16:56:52+02:00</time>
      </trkpt>
      <trkpt lat="45.37769" lon="4.66106">
        <ele>762</ele>
        <time>2018-07-21T16:56:57+02:00</time>
      </trkpt>
      <trkpt lat="45.37768" lon="4.66095">
        <ele>763</ele>
        <time>2018-07-21T16:57:02+02:00</time>
      </trkpt>
      <trkpt lat="45.37767" lon="4.66091">
        <ele>764</ele>
        <time>2018-07-21T16:57:07+02:00</time>
      </trkpt>
      <trkpt lat="45.37764" lon="4.66082">
        <ele>765</ele>
        <time>2018-07-21T16:57:12+02:00</time>
      </trkpt>
      <trkpt lat="45.37762" lon="4.66076">
        <ele>766</ele>
        <time>2018-07-21T16:57:17+02:00</time>
      </trkpt>
      <trkpt lat="45.37758" lon="4.66065">
        <ele>768</ele>
        <time>2018-07-21T16:57:22+02:00</time>
      </trkpt>
      <trkpt lat="45.37755" lon="4.66058">
        <ele>769</ele>
        <time>2018-07-21T16:57:27+02:00</time>
      </trkpt>
      <trkpt lat="45.37754" lon="4.6605">
        <ele>770</ele>
        <time>2018-07-21T16:57:32+02:00</time>
      </trkpt>
      <trkpt lat="45.37751" lon="4.66042">
        <ele>771</ele>
        <time>2018-07-21T16:57:37+02:00</time>
      </trkpt>
      <trkpt lat="45.37749" lon="4.66031">
        <ele>772</ele>
        <time>2018-07-21T16:57:42+02:00</time>
      </trkpt>
      <trkpt lat="45.37754" lon="4.66021">
        <ele>774</ele>
        <time>2018-07-21T16:57:47+02:00</time>
      </trkpt>
      <trkpt lat="45.3776" lon="4.66011">
        <ele>775</ele>
        <time>2018-07-21T16:57:52+02:00</time>
      </trkpt>
      <trkpt lat="45.37766" lon="4.66006">
        <ele>776</ele>
        <time>2018-07-21T16:57:57+02:00</time>
      </trkpt>
      <trkpt lat="45.37771" lon="4.66">
        <ele>777</ele>
        <time>2018-07-21T16:58:02+02:00</time>
      </trkpt>
      <trkpt lat="45.37774" lon="4.65997">
        <ele>777</ele>
        <time>2018-07-21T16:58:07+02:00</time>
      </trkpt>
      <trkpt lat="45.37778" lon="4.65989">
        <ele>778</ele>
        <time>2018-07-21T16:58:12+02:00</time>
      </trkpt>
      <trkpt lat="45.3778" lon="4.65984">
        <ele>779</ele>
        <time>2018-07-21T16:58:17+02:00</time>
      </trkpt>
      <trkpt lat="45.37783" lon="4.65982">
        <ele>779</ele>
        <time>2018-07-21T16:58:22+02:00</time>
      </trkpt>
      <trkpt lat="45.37786" lon="4.65975">
        <ele>780</ele>
        <time>2018-07-21T16:58:27+02:00</time>
      </trkpt>
      <trkpt lat="45.37786" lon="4.6597">
        <ele>780</ele>
        <time>2018-07-21T16:58:32+02:00</time>
      </trkpt>
      <trkpt lat="45.37786" lon="4.65967">
        <ele>781</ele>
        <time>2018-07-21T16:58:37+02:00</time>
      </trkpt>
      <trkpt lat="45.37784" lon="4.65963">
        <ele>781</ele>
        <time>2018-07-21T16:58:42+02:00</time>
      </trkpt>
      <trkpt lat="45.37783" lon="4.65955">
        <ele>782</ele>
        <time>2018-07-21T16:58:47+02:00</time>
      </trkpt>
      <trkpt lat="45.37782" lon="4.65948">
        <ele>783</ele>
        <time>2018-07-21T16:58:52+02:00</time>
      </trkpt>
      <trkpt lat="45.3778" lon="4.6594">
        <ele>784</ele>
        <time>2018-07-21T16:58:57+02:00</time>
      </trkpt>
      <trkpt lat="45.37779" lon="4.65931">
        <ele>785</ele>
        <time>2018-07-21T16:59:02+02:00</time>
      </trkpt>
      <trkpt lat="45.37775" lon="4.65921">
        <ele>787</ele>
        <time>2018-07-21T16:59:07+02:00</time>
      </trkpt>
      <trkpt lat="45.37772" lon="4.65912">
        <ele>788</ele>
        <time>2018-07-21T16:59:12+02:00</time>
      </trkpt>
      <trkpt lat="45.37772" lon="4.65904">
        <ele>789</ele>
        <time>2018-07-21T16:59:17+02:00</time>
      </trkpt>
      <trkpt lat="45.37771" lon="4.65896">
        <ele>789</ele>
        <time>2018-07-21T16:59:22+02:00</time>
      </trkpt>
      <trkpt lat="45.37769" lon="4.65887">
        <ele>790</ele>
        <time>2018-07-21T16:59:27+02:00</time>
      </trkpt>
      <trkpt lat="45.37769" lon="4.65874">
        <ele>791</ele>
        <time>2018-07-21T16:59:32+02:00</time>
      </trkpt>
      <trkpt lat="45.37769" lon="4.65866">
        <ele>792</ele>
        <time>2018-07-21T16:59:37+02:00</time>
      </trkpt>
      <trkpt lat="45.37767" lon="4.65859">
        <ele>792</ele>
        <time>2018-07-21T16:59:42+02:00</time>
      </trkpt>
      <trkpt lat="45.37766" lon="4.65855">
        <ele>793</ele>
        <time>2018-07-21T16:59:47+02:00</time>
      </trkpt>
      <trkpt lat="45.37764" lon="4.65846">
        <ele>794</ele>
        <time>2018-07-21T16:59:52+02:00</time>
      </trkpt>
      <trkpt lat="45.37761" lon="4.65836">
        <ele>795</ele>
        <time>2018-07-21T16:59:57+02:00</time>
      </trkpt>
      <trkpt lat="45.37757" lon="4.65825">
        <ele>797</ele>
        <time>2018-07-21T17:00:02+02:00</time>
      </trkpt>
      <trkpt lat="45.37754" lon="4.65817">
        <ele>798</ele>
        <time>2018-07-21T17:00:07+02:00</time>
      </trkpt>
      <trkpt lat="45.37751" lon="4.65808">
        <ele>800</ele>
        <time>2018-07-21T17:00:12+02:00</time>
      </trkpt>
      <trkpt lat="45.37747" lon="4.65802">
        <ele>800</ele>
        <time>2018-07-21T17:00:17+02:00</time>
      </trkpt>
      <trkpt lat="45.37745" lon="4.65792">
        <ele>801</ele>
        <time>2018-07-21T17:00:22+02:00</time>
      </trkpt>
      <trkpt lat="45.37743" lon="4.65781">
        <ele>802</ele>
        <time>2018-07-21T17:00:27+02:00</time>
      </trkpt>
      <trkpt lat="45.37741" lon="4.65774">
        <ele>802</ele>
        <time>2018-07-21T17:00:32+02:00</time>
      </trkpt>
      <trkpt lat="45.37739" lon="4.65765">
        <ele>802</ele>
        <time>2018-07-21T17:00:37+02:00</time>
      </trkpt>
      <trkpt lat="45.37736" lon="4.65755">
        <ele>803</ele>
        <time>2018-07-21T17:00:42+02:00</time>
      </trkpt>
      <trkpt lat="45.37734" lon="4.65745">
        <ele>803</ele>
        <time>2018-07-21T17:00:47+02:00</time>
      </trkpt>
      <trkpt lat="45.37731" lon="4.65738">
        <ele>804</ele>
        <time>2018-07-21T17:00:52+02:00</time>
      </trkpt>
      <trkpt lat="45.37729" lon="4.65726">
        <ele>805</ele>
        <time>2018-07-21T17:00:57+02:00</time>
      </trkpt>
      <trkpt lat="45.3773" lon="4.65713">
        <ele>806</ele>
        <time>2018-07-21T17:01:02+02:00</time>
      </trkpt>
      <trkpt lat="45.37729" lon="4.65705">
        <ele>807</ele>
        <time>2018-07-21T17:01:07+02:00</time>
      </trkpt>
      <trkpt lat="45.37726" lon="4.65696">
        <ele>808</ele>
        <time>2018-07-21T17:01:12+02:00</time>
      </trkpt>
      <trkpt lat="45.37727" lon="4.65685">
        <ele>809</ele>
        <time>2018-07-21T17:01:17+02:00</time>
      </trkpt>
      <trkpt lat="45.37724" lon="4.65675">
        <ele>810</ele>
        <time>2018-07-21T17:01:22+02:00</time>
      </trkpt>
      <trkpt lat="45.37724" lon="4.65665">
        <ele>811</ele>
        <time>2018-07-21T17:01:27+02:00</time>
      </trkpt>
      <trkpt lat="45.37724" lon="4.65656">
        <ele>811</ele>
        <time>2018-07-21T17:01:32+02:00</time>
      </trkpt>
      <trkpt lat="45.37724" lon="4.65645">
        <ele>812</ele>
        <time>2018-07-21T17:01:37+02:00</time>
      </trkpt>
      <trkpt lat="45.37724" lon="4.65638">
        <ele>813</ele>
        <time>2018-07-21T17:01:42+02:00</time>
      </trkpt>
      <trkpt lat="45.37725" lon="4.65627">
        <ele>814</ele>
        <time>2018-07-21T17:01:47+02:00</time>
      </trkpt>
      <trkpt lat="45.37728" lon="4.65619">
        <ele>814</ele>
        <time>2018-07-21T17:01:52+02:00</time>
      </trkpt>
      <trkpt lat="45.37729" lon="4.65608">
        <ele>815</ele>
        <time>2018-07-21T17:01:57+02:00</time>
      </trkpt>
      <trkpt lat="45.37732" lon="4.65598">
        <ele>816</ele>
        <time>2018-07-21T17:02:02+02:00</time>
      </trkpt>
      <trkpt lat="45.37733" lon="4.65592">
        <ele>817</ele>
        <time>2018-07-21T17:02:07+02:00</time>
      </trkpt>
      <trkpt lat="45.37736" lon="4.65581">
        <ele>818</ele>
        <time>2018-07-21T17:02:12+02:00</time>
      </trkpt>
      <trkpt lat="45.37737" lon="4.6557">
        <ele>819</ele>
        <time>2018-07-21T17:02:17+02:00</time>
      </trkpt>
      <trkpt lat="45.37735" lon="4.65561">
        <ele>820</ele>
        <time>2018-07-21T17:02:22+02:00</time>
      </trkpt>
      <trkpt lat="45.3773" lon="4.65557">
        <ele>820</ele>
        <time>2018-07-21T17:02:27+02:00</time>
      </trkpt>
      <trkpt lat="45.37725" lon="4.6555">
        <ele>821</ele>
        <time>2018-07-21T17:02:32+02:00</time>
      </trkpt>
      <trkpt lat="45.37721" lon="4.65545">
        <ele>821</ele>
        <time>2018-07-21T17:02:37+02:00</time>
      </trkpt>
      <trkpt lat="45.37716" lon="4.65541">
        <ele>822</ele>
        <time>2018-07-21T17:02:42+02:00</time>
      </trkpt>
      <trkpt lat="45.37709" lon="4.65534">
        <ele>822</ele>
        <time>2018-07-21T17:02:47+02:00</time>
      </trkpt>
      <trkpt lat="45.37708" lon="4.65527">
        <ele>823</ele>
        <time>2018-07-21T17:02:52+02:00</time>
      </trkpt>
      <trkpt lat="45.37705" lon="4.65518">
        <ele>824</ele>
        <time>2018-07-21T17:02:57+02:00</time>
      </trkpt>
      <trkpt lat="45.37702" lon="4.6551">
        <ele>825</ele>
        <time>2018-07-21T17:03:02+02:00</time>
      </trkpt>
      <trkpt lat="45.37703" lon="4.65503">
        <ele>826</ele>
        <time>2018-07-21T17:03:07+02:00</time>
      </trkpt>
      <trkpt lat="45.37703" lon="4.65491">
        <ele>828</ele>
        <time>2018-07-21T17:03:12+02:00</time>
      </trkpt>
      <trkpt lat="45.37704" lon="4.65485">
        <ele>828</ele>
        <time>2018-07-21T17:03:17+02:00</time>
      </trkpt>
      <trkpt lat="45.37707" lon="4.65477">
        <ele>829</ele>
        <time>2018-07-21T17:03:22+02:00</time>
      </trkpt>
      <trkpt lat="45.37706" lon="4.65468">
        <ele>830</ele>
        <time>2018-07-21T17:03:27+02:00</time>
      </trkpt>
      <trkpt lat="45.37705" lon="4.65464">
        <ele>831</ele>
        <time>2018-07-21T17:03:32+02:00</time>
      </trkpt>
      <trkpt lat="45.37705" lon="4.65452">
        <ele>832</ele>
        <time>2018-07-21T17:03:37+02:00</time>
      </trkpt>
      <trkpt lat="45.37703" lon="4.65443">
        <ele>833</ele>
        <time>2018-07-21T17:03:42+02:00</time>
      </trkpt>
      <trkpt lat="45.37703" lon="4.65438">
        <ele>834</ele>
        <time>2018-07-21T17:03:47+02:00</time>
      </trkpt>
      <trkpt lat="45.37705" lon="4.65429">
        <ele>835</ele>
        <time>2018-07-21T17:03:52+02:00</time>
      </trkpt>
      <trkpt lat="45.37706" lon="4.65417">
        <ele>836</ele>
        <time>2018-07-21T17:03:57+02:00</time>
      </trkpt>
      <trkpt lat="45.37707" lon="4.65411">
        <ele>837</ele>
        <time>2018-07-21T17:04:02+02:00</time>
      </trkpt>
      <trkpt lat="45.37708" lon="4.65396">
        <ele>838</ele>
        <time>2018-07-21T17:04:07+02:00</time>
      </trkpt>
      <trkpt lat="45.3771" lon="4.65387">
        <ele>839</ele>
        <time>2018-07-21T17:04:12+02:00</time>
      </trkpt>
      <trkpt lat="45.37711" lon="4.65379">
        <ele>839</ele>
        <time>2018-07-21T17:04:17+02:00</time>
      </trkpt>
      <trkpt lat="45.3771" lon="4.6537">
        <ele>840</ele>
        <time>2018-07-21T17:04:22+02:00</time>
      </trkpt>
      <trkpt lat="45.37708" lon="4.65361">
        <ele>841</ele>
        <time>2018-07-21T17:04:27+02:00</time>
      </trkpt>
      <trkpt lat="45.37707" lon="4.65352">
        <ele>842</ele>
        <time>2018-07-21T17:04:32+02:00</time>
      </trkpt>
      <trkpt lat="45.37708" lon="4.65343">
        <ele>843</ele>
        <time>2018-07-21T17:04:37+02:00</time>
      </trkpt>
      <trkpt lat="45.37706" lon="4.65333">
        <ele>844</ele>
        <time>2018-07-21T17:04:42+02:00</time>
      </trkpt>
      <trkpt lat="45.37707" lon="4.6532">
        <ele>844</ele>
        <time>2018-07-21T17:04:47+02:00</time>
      </trkpt>
      <trkpt lat="45.37705" lon="4.65309">
        <ele>845</ele>
        <time>2018-07-21T17:04:52+02:00</time>
      </trkpt>
      <trkpt lat="45.37705" lon="4.65301">
        <ele>845</ele>
        <time>2018-07-21T17:04:57+02:00</time>
      </trkpt>
      <trkpt lat="45.37705" lon="4.65288">
        <ele>846</ele>
        <time>2018-07-21T17:05:02+02:00</time>
      </trkpt>
      <trkpt lat="45.37705" lon="4.6528">
        <ele>846</ele>
        <time>2018-07-21T17:05:07+02:00</time>
      </trkpt>
      <trkpt lat="45.37705" lon="4.65267">
        <ele>847</ele>
        <time>2018-07-21T17:05:12+02:00</time>
      </trkpt>
      <trkpt lat="45.37705" lon="4.65258">
        <ele>847</ele>
        <time>2018-07-21T17:05:17+02:00</time>
      </trkpt>
      <trkpt lat="45.37701" lon="4.6525">
        <ele>848</ele>
        <time>2018-07-21T17:05:22+02:00</time>
      </trkpt>
      <trkpt lat="45.37699" lon="4.65237">
        <ele>848</ele>
        <time>2018-07-21T17:05:27+02:00</time>
      </trkpt>
      <trkpt lat="45.37696" lon="4.65227">
        <ele>849</ele>
        <time>2018-07-21T17:05:32+02:00</time>
      </trkpt>
      <trkpt lat="45.37693" lon="4.65215">
        <ele>849</ele>
        <time>2018-07-21T17:05:37+02:00</time>
      </trkpt>
      <trkpt lat="45.37692" lon="4.65202">
        <ele>850</ele>
        <time>2018-07-21T17:05:42+02:00</time>
      </trkpt>
      <trkpt lat="45.3769" lon="4.6519">
        <ele>850</ele>
        <time>2018-07-21T17:05:47+02:00</time>
      </trkpt>
      <trkpt lat="45.3769" lon="4.65179">
        <ele>850</ele>
        <time>2018-07-21T17:05:52+02:00</time>
      </trkpt>
      <trkpt lat="45.37691" lon="4.65172">
        <ele>850</ele>
        <time>2018-07-21T17:05:57+02:00</time>
      </trkpt>
      <trkpt lat="45.37692" lon="4.65161">
        <ele>850</ele>
        <time>2018-07-21T17:06:02+02:00</time>
      </trkpt>
      <trkpt lat="45.3769" lon="4.6515">
        <ele>850</ele>
        <time>2018-07-21T17:06:07+02:00</time>
      </trkpt>
      <trkpt lat="45.37692" lon="4.65139">
        <ele>850</ele>
        <time>2018-07-21T17:06:12+02:00</time>
      </trkpt>
      <trkpt lat="45.37691" lon="4.65132">
        <ele>850</ele>
        <time>2018-07-21T17:06:17+02:00</time>
      </trkpt>
      <trkpt lat="45.37691" lon="4.65125">
        <ele>850</ele>
        <time>2018-07-21T17:06:22+02:00</time>
      </trkpt>
      <trkpt lat="45.3769" lon="4.65114">
        <ele>850</ele>
        <time>2018-07-21T17:06:27+02:00</time>
      </trkpt>
      <trkpt lat="45.3769" lon="4.65103">
        <ele>850</ele>
        <time>2018-07-21T17:06:32+02:00</time>
      </trkpt>
      <trkpt lat="45.3769" lon="4.65094">
        <ele>850</ele>
        <time>2018-07-21T17:06:37+02:00</time>
      </trkpt>
      <trkpt lat="45.37689" lon="4.65082">
        <ele>851</ele>
        <time>2018-07-21T17:06:42+02:00</time>
      </trkpt>
      <trkpt lat="45.37685" lon="4.65071">
        <ele>851</ele>
        <time>2018-07-21T17:06:47+02:00</time>
      </trkpt>
      <trkpt lat="45.37683" lon="4.65061">
        <ele>851</ele>
        <time>2018-07-21T17:06:52+02:00</time>
      </trkpt>
      <trkpt lat="45.37679" lon="4.65054">
        <ele>851</ele>
        <time>2018-07-21T17:06:57+02:00</time>
      </trkpt>
      <trkpt lat="45.37677" lon="4.65041">
        <ele>851</ele>
        <time>2018-07-21T17:07:02+02:00</time>
      </trkpt>
      <trkpt lat="45.37674" lon="4.65035">
        <ele>851</ele>
        <time>2018-07-21T17:07:07+02:00</time>
      </trkpt>
      <trkpt lat="45.37674" lon="4.65028">
        <ele>851</ele>
        <time>2018-07-21T17:07:12+02:00</time>
      </trkpt>
      <trkpt lat="45.37673" lon="4.65016">
        <ele>851</ele>
        <time>2018-07-21T17:07:17+02:00</time>
      </trkpt>
      <trkpt lat="45.37673" lon="4.65002">
        <ele>850</ele>
        <time>2018-07-21T17:07:22+02:00</time>
      </trkpt>
      <trkpt lat="45.37672" lon="4.64993">
        <ele>850</ele>
        <time>2018-07-21T17:07:27+02:00</time>
      </trkpt>
      <trkpt lat="45.37672" lon="4.64979">
        <ele>850</ele>
        <time>2018-07-21T17:07:32+02:00</time>
      </trkpt>
      <trkpt lat="45.3767" lon="4.64967">
        <ele>850</ele>
        <time>2018-07-21T17:07:37+02:00</time>
      </trkpt>
      <trkpt lat="45.37669" lon="4.64954">
        <ele>851</ele>
        <time>2018-07-21T17:07:42+02:00</time>
      </trkpt>
      <trkpt lat="45.37669" lon="4.64941">
        <ele>851</ele>
        <time>2018-07-21T17:07:47+02:00</time>
      </trkpt>
      <trkpt lat="45.37669" lon="4.64924">
        <ele>851</ele>
        <time>2018-07-21T17:07:52+02:00</time>
      </trkpt>
      <trkpt lat="45.37668" lon="4.64914">
        <ele>851</ele>
        <time>2018-07-21T17:07:57+02:00</time>
      </trkpt>
      <trkpt lat="45.37667" lon="4.64904">
        <ele>851</ele>
        <time>2018-07-21T17:08:02+02:00</time>
      </trkpt>
      <trkpt lat="45.37665" lon="4.64894">
        <ele>851</ele>
        <time>2018-07-21T17:08:07+02:00</time>
      </trkpt>
      <trkpt lat="45.37663" lon="4.64883">
        <ele>850</ele>
        <time>2018-07-21T17:08:12+02:00</time>
      </trkpt>
      <trkpt lat="45.37661" lon="4.64877">
        <ele>850</ele>
        <time>2018-07-21T17:08:17+02:00</time>
      </trkpt>
      <trkpt lat="45.37661" lon="4.64866">
        <ele>850</ele>
        <time>2018-07-21T17:08:22+02:00</time>
      </trkpt>
      <trkpt lat="45.37659" lon="4.64853">
        <ele>850</ele>
        <time>2018-07-21T17:08:27+02:00</time>
      </trkpt>
      <trkpt lat="45.37656" lon="4.64843">
        <ele>850</ele>
        <time>2018-07-21T17:08:32+02:00</time>
      </trkpt>
      <trkpt lat="45.37655" lon="4.64836">
        <ele>850</ele>
        <time>2018-07-21T17:08:37+02:00</time>
      </trkpt>
      <trkpt lat="45.37653" lon="4.64827">
        <ele>849</ele>
        <time>2018-07-21T17:08:42+02:00</time>
      </trkpt>
      <trkpt lat="45.37652" lon="4.64817">
        <ele>849</ele>
        <time>2018-07-21T17:08:47+02:00</time>
      </trkpt>
      <trkpt lat="45.37653" lon="4.64805">
        <ele>849</ele>
        <time>2018-07-21T17:08:52+02:00</time>
      </trkpt>
      <trkpt lat="45.3765" lon="4.64795">
        <ele>849</ele>
        <time>2018-07-21T17:08:57+02:00</time>
      </trkpt>
      <trkpt lat="45.37652" lon="4.6478">
        <ele>849</ele>
        <time>2018-07-21T17:09:02+02:00</time>
      </trkpt>
      <trkpt lat="45.37656" lon="4.6477">
        <ele>849</ele>
        <time>2018-07-21T17:09:07+02:00</time>
      </trkpt>
      <trkpt lat="45.37658" lon="4.64757">
        <ele>849</ele>
        <time>2018-07-21T17:09:12+02:00</time>
      </trkpt>
      <trkpt lat="45.37661" lon="4.64743">
        <ele>849</ele>
        <time>2018-07-21T17:09:17+02:00</time>
      </trkpt>
      <trkpt lat="45.37665" lon="4.6473">
        <ele>849</ele>
        <time>2018-07-21T17:09:22+02:00</time>
      </trkpt>
      <trkpt lat="45.37666" lon="4.6472">
        <ele>849</ele>
        <time>2018-07-21T17:09:27+02:00</time>
      </trkpt>
      <trkpt lat="45.37665" lon="4.64705">
        <ele>848</ele>
        <time>2018-07-21T17:09:32+02:00</time>
      </trkpt>
      <trkpt lat="45.37668" lon="4.64695">
        <ele>847</ele>
        <time>2018-07-21T17:09:37+02:00</time>
      </trkpt>
      <trkpt lat="45.3767" lon="4.64683">
        <ele>846</ele>
        <time>2018-07-21T17:09:42+02:00</time>
      </trkpt>
      <trkpt lat="45.37671" lon="4.64676">
        <ele>845</ele>
        <time>2018-07-21T17:09:47+02:00</time>
      </trkpt>
      <trkpt lat="45.37673" lon="4.64659">
        <ele>844</ele>
        <time>2018-07-21T17:09:52+02:00</time>
      </trkpt>
      <trkpt lat="45.37671" lon="4.64643">
        <ele>844</ele>
        <time>2018-07-21T17:09:57+02:00</time>
      </trkpt>
      <trkpt lat="45.37672" lon="4.64635">
        <ele>843</ele>
        <time>2018-07-21T17:10:02+02:00</time>
      </trkpt>
      <trkpt lat="45.37673" lon="4.64624">
        <ele>842</ele>
        <time>2018-07-21T17:10:07+02:00</time>
      </trkpt>
      <trkpt lat="45.37674" lon="4.64613">
        <ele>841</ele>
        <time>2018-07-21T17:10:12+02:00</time>
      </trkpt>
      <trkpt lat="45.37675" lon="4.64608">
        <ele>841</ele>
        <time>2018-07-21T17:10:17+02:00</time>
      </trkpt>
      <trkpt lat="45.37677" lon="4.64596">
        <ele>840</ele>
        <time>2018-07-21T17:10:22+02:00</time>
      </trkpt>
      <trkpt lat="45.37679" lon="4.64585">
        <ele>839</ele>
        <time>2018-07-21T17:10:27+02:00</time>
      </trkpt>
      <trkpt lat="45.3768" lon="4.64568">
        <ele>839</ele>
        <time>2018-07-21T17:10:32+02:00</time>
      </trkpt>
      <trkpt lat="45.37684" lon="4.64557">
        <ele>838</ele>
        <time>2018-07-21T17:10:37+02:00</time>
      </trkpt>
      <trkpt lat="45.37687" lon="4.64543">
        <ele>837</ele>
        <time>2018-07-21T17:10:42+02:00</time>
      </trkpt>
      <trkpt lat="45.37688" lon="4.64529">
        <ele>837</ele>
        <time>2018-07-21T17:10:47+02:00</time>
      </trkpt>
      <trkpt lat="45.37691" lon="4.64513">
        <ele>836</ele>
        <time>2018-07-21T17:10:52+02:00</time>
      </trkpt>
      <trkpt lat="45.37694" lon="4.64495">
        <ele>835</ele>
        <time>2018-07-21T17:10:57+02:00</time>
      </trkpt>
      <trkpt lat="45.37698" lon="4.64475">
        <ele>833</ele>
        <time>2018-07-21T17:11:02+02:00</time>
      </trkpt>
      <trkpt lat="45.37703" lon="4.64458">
        <ele>831</ele>
        <time>2018-07-21T17:11:07+02:00</time>
      </trkpt>
      <trkpt lat="45.37707" lon="4.64447">
        <ele>830</ele>
        <time>2018-07-21T17:11:12+02:00</time>
      </trkpt>
      <trkpt lat="45.37711" lon="4.64437">
        <ele>829</ele>
        <time>2018-07-21T17:11:17+02:00</time>
      </trkpt>
      <trkpt lat="45.37714" lon="4.64429">
        <ele>829</ele>
        <time>2018-07-21T17:11:22+02:00</time>
      </trkpt>
      <trkpt lat="45.37715" lon="4.6442">
        <ele>828</ele>
        <time>2018-07-21T17:11:27+02:00</time>
      </trkpt>
      <trkpt lat="45.37717" lon="4.64414">
        <ele>827</ele>
        <time>2018-07-21T17:11:32+02:00</time>
      </trkpt>
      <trkpt lat="45.37719" lon="4.64408">
        <ele>827</ele>
        <time>2018-07-21T17:11:37+02:00</time>
      </trkpt>
      <trkpt lat="45.3772" lon="4.64397">
        <ele>826</ele>
        <time>2018-07-21T17:11:42+02:00</time>
      </trkpt>
      <trkpt lat="45.37721" lon="4.64389">
        <ele>825</ele>
        <time>2018-07-21T17:11:47+02:00</time>
      </trkpt>
      <trkpt lat="45.37721" lon="4.6438">
        <ele>824</ele>
        <time>2018-07-21T17:11:52+02:00</time>
      </trkpt>
      <trkpt lat="45.3772" lon="4.64373">
        <ele>823</ele>
        <time>2018-07-21T17:11:57+02:00</time>
      </trkpt>
      <trkpt lat="45.3772" lon="4.64365">
        <ele>822</ele>
        <time>2018-07-21T17:12:02+02:00</time>
      </trkpt>
      <trkpt lat="45.37717" lon="4.64358">
        <ele>821</ele>
        <time>2018-07-21T17:12:07+02:00</time>
      </trkpt>
      <trkpt lat="45.37717" lon="4.64352">
        <ele>821</ele>
        <time>2018-07-21T17:12:12+02:00</time>
      </trkpt>
      <trkpt lat="45.37717" lon="4.64345">
        <ele>820</ele>
        <time>2018-07-21T17:12:17+02:00</time>
      </trkpt>
      <trkpt lat="45.37715" lon="4.64338">
        <ele>819</ele>
        <time>2018-07-21T17:12:22+02:00</time>
      </trkpt>
      <trkpt lat="45.3771" lon="4.64328">
        <ele>818</ele>
        <time>2018-07-21T17:12:27+02:00</time>
      </trkpt>
      <trkpt lat="45.37711" lon="4.64319">
        <ele>817</ele>
        <time>2018-07-21T17:12:32+02:00</time>
      </trkpt>
      <trkpt lat="45.37709" lon="4.6431">
        <ele>816</ele>
        <time>2018-07-21T17:12:37+02:00</time>
      </trkpt>
      <trkpt lat="45.37709" lon="4.64298">
        <ele>815</ele>
        <time>2018-07-21T17:12:42+02:00</time>
      </trkpt>
      <trkpt lat="45.37709" lon="4.64291">
        <ele>814</ele>
        <time>2018-07-21T17:12:47+02:00</time>
      </trkpt>
      <trkpt lat="45.37706" lon="4.64279">
        <ele>813</ele>
        <time>2018-07-21T17:12:52+02:00</time>
      </trkpt>
      <trkpt lat="45.37705" lon="4.64262">
        <ele>812</ele>
        <time>2018-07-21T17:12:57+02:00</time>
      </trkpt>
      <trkpt lat="45.37704" lon="4.64249">
        <ele>810</ele>
        <time>2018-07-21T17:13:02+02:00</time>
      </trkpt>
      <trkpt lat="45.37702" lon="4.64229">
        <ele>809</ele>
        <time>2018-07-21T17:13:07+02:00</time>
      </trkpt>
      <trkpt lat="45.377" lon="4.64209">
        <ele>808</ele>
        <time>2018-07-21T17:13:12+02:00</time>
      </trkpt>
      <trkpt lat="45.37698" lon="4.64191">
        <ele>806</ele>
        <time>2018-07-21T17:13:17+02:00</time>
      </trkpt>
      <trkpt lat="45.37698" lon="4.64174">
        <ele>805</ele>
        <time>2018-07-21T17:13:22+02:00</time>
      </trkpt>
      <trkpt lat="45.37698" lon="4.64152">
        <ele>804</ele>
        <time>2018-07-21T17:13:27+02:00</time>
      </trkpt>
      <trkpt lat="45.37699" lon="4.64145">
        <ele>804</ele>
        <time>2018-07-21T17:13:32+02:00</time>
      </trkpt>
      <trkpt lat="45.377" lon="4.64138">
        <ele>804</ele>
        <time>2018-07-21T17:13:37+02:00</time>
      </trkpt>
      <trkpt lat="45.37705" lon="4.6412">
        <ele>804</ele>
        <time>2018-07-21T17:13:42+02:00</time>
      </trkpt>
      <trkpt lat="45.37709" lon="4.64098">
        <ele>804</ele>
        <time>2018-07-21T17:13:47+02:00</time>
      </trkpt>
      <trkpt lat="45.37713" lon="4.64083">
        <ele>804</ele>
        <time>2018-07-21T17:13:52+02:00</time>
      </trkpt>
      <trkpt lat="45.37714" lon="4.64069">
        <ele>805</ele>
        <time>2018-07-21T17:13:57+02:00</time>
      </trkpt>
      <trkpt lat="45.37716" lon="4.64058">
        <ele>805</ele>
        <time>2018-07-21T17:14:02+02:00</time>
      </trkpt>
      <trkpt lat="45.37711" lon="4.64036">
        <ele>806</ele>
        <time>2018-07-21T17:14:07+02:00</time>
      </trkpt>
      <trkpt lat="45.37711" lon="4.64031">
        <ele>806</ele>
        <time>2018-07-21T17:14:12+02:00</time>
      </trkpt>
      <trkpt lat="45.37709" lon="4.64024">
        <ele>806</ele>
        <time>2018-07-21T17:14:17+02:00</time>
      </trkpt>
      <trkpt lat="45.37708" lon="4.64011">
        <ele>807</ele>
        <time>2018-07-21T17:14:22+02:00</time>
      </trkpt>
      <trkpt lat="45.37705" lon="4.63992">
        <ele>807</ele>
        <time>2018-07-21T17:14:27+02:00</time>
      </trkpt>
      <trkpt lat="45.37703" lon="4.63977">
        <ele>808</ele>
        <time>2018-07-21T17:14:32+02:00</time>
      </trkpt>
      <trkpt lat="45.37703" lon="4.63968">
        <ele>808</ele>
        <time>2018-07-21T17:14:37+02:00</time>
      </trkpt>
      <trkpt lat="45.37703" lon="4.6396">
        <ele>809</ele>
        <time>2018-07-21T17:14:42+02:00</time>
      </trkpt>
      <trkpt lat="45.377" lon="4.63943">
        <ele>809</ele>
        <time>2018-07-21T17:14:47+02:00</time>
      </trkpt>
      <trkpt lat="45.37698" lon="4.63932">
        <ele>809</ele>
        <time>2018-07-21T17:14:52+02:00</time>
      </trkpt>
      <trkpt lat="45.37697" lon="4.63928">
        <ele>809</ele>
        <time>2018-07-21T17:14:57+02:00</time>
      </trkpt>
      <trkpt lat="45.37694" lon="4.63916">
        <ele>809</ele>
        <time>2018-07-21T17:15:02+02:00</time>
      </trkpt>
      <trkpt lat="45.37691" lon="4.63905">
        <ele>809</ele>
        <time>2018-07-21T17:15:07+02:00</time>
      </trkpt>
      <trkpt lat="45.37685" lon="4.63888">
        <ele>809</ele>
        <time>2018-07-21T17:15:12+02:00</time>
      </trkpt>
      <trkpt lat="45.3768" lon="4.63871">
        <ele>809</ele>
        <time>2018-07-21T17:15:17+02:00</time>
      </trkpt>
      <trkpt lat="45.37674" lon="4.63859">
        <ele>808</ele>
        <time>2018-07-21T17:15:22+02:00</time>
      </trkpt>
      <trkpt lat="45.37668" lon="4.63846">
        <ele>807</ele>
        <time>2018-07-21T17:15:27+02:00</time>
      </trkpt>
      <trkpt lat="45.37663" lon="4.63835">
        <ele>807</ele>
        <time>2018-07-21T17:15:32+02:00</time>
      </trkpt>
      <trkpt lat="45.37657" lon="4.63823">
        <ele>806</ele>
        <time>2018-07-21T17:15:37+02:00</time>
      </trkpt>
      <trkpt lat="45.3765" lon="4.63808">
        <ele>805</ele>
        <time>2018-07-21T17:15:42+02:00</time>
      </trkpt>
      <trkpt lat="45.37647" lon="4.63796">
        <ele>805</ele>
        <time>2018-07-21T17:15:47+02:00</time>
      </trkpt>
      <trkpt lat="45.37645" lon="4.63778">
        <ele>806</ele>
        <time>2018-07-21T17:15:52+02:00</time>
      </trkpt>
      <trkpt lat="45.37643" lon="4.63764">
        <ele>807</ele>
        <time>2018-07-21T17:15:57+02:00</time>
      </trkpt>
      <trkpt lat="45.37642" lon="4.63756">
        <ele>807</ele>
        <time>2018-07-21T17:16:02+02:00</time>
      </trkpt>
      <trkpt lat="45.37642" lon="4.63738">
        <ele>808</ele>
        <time>2018-07-21T17:16:07+02:00</time>
      </trkpt>
      <trkpt lat="45.37643" lon="4.63724">
        <ele>809</ele>
        <time>2018-07-21T17:16:12+02:00</time>
      </trkpt>
      <trkpt lat="45.37644" lon="4.63711">
        <ele>810</ele>
        <time>2018-07-21T17:16:17+02:00</time>
      </trkpt>
      <trkpt lat="45.37644" lon="4.637">
        <ele>811</ele>
        <time>2018-07-21T17:16:22+02:00</time>
      </trkpt>
      <trkpt lat="45.37643" lon="4.63687">
        <ele>812</ele>
        <time>2018-07-21T17:16:27+02:00</time>
      </trkpt>
      <trkpt lat="45.37643" lon="4.63675">
        <ele>812</ele>
        <time>2018-07-21T17:16:32+02:00</time>
      </trkpt>
      <trkpt lat="45.37642" lon="4.63662">
        <ele>813</ele>
        <time>2018-07-21T17:16:37+02:00</time>
      </trkpt>
      <trkpt lat="45.37642" lon="4.63649">
        <ele>814</ele>
        <time>2018-07-21T17:16:42+02:00</time>
      </trkpt>
      <trkpt lat="45.37641" lon="4.63635">
        <ele>815</ele>
        <time>2018-07-21T17:16:47+02:00</time>
      </trkpt>
      <trkpt lat="45.37642" lon="4.6362">
        <ele>816</ele>
        <time>2018-07-21T17:16:52+02:00</time>
      </trkpt>
      <trkpt lat="45.37642" lon="4.63608">
        <ele>818</ele>
        <time>2018-07-21T17:16:57+02:00</time>
      </trkpt>
      <trkpt lat="45.3764" lon="4.63593">
        <ele>818</ele>
        <time>2018-07-21T17:17:02+02:00</time>
      </trkpt>
      <trkpt lat="45.37641" lon="4.6358">
        <ele>820</ele>
        <time>2018-07-21T17:17:07+02:00</time>
      </trkpt>
      <trkpt lat="45.37641" lon="4.63567">
        <ele>820</ele>
        <time>2018-07-21T17:17:12+02:00</time>
      </trkpt>
      <trkpt lat="45.37642" lon="4.63554">
        <ele>821</ele>
        <time>2018-07-21T17:17:17+02:00</time>
      </trkpt>
      <trkpt lat="45.37643" lon="4.63541">
        <ele>822</ele>
        <time>2018-07-21T17:17:22+02:00</time>
      </trkpt>
      <trkpt lat="45.37646" lon="4.63532">
        <ele>824</ele>
        <time>2018-07-21T17:17:27+02:00</time>
      </trkpt>
      <trkpt lat="45.37646" lon="4.63518">
        <ele>824</ele>
        <time>2018-07-21T17:17:32+02:00</time>
      </trkpt>
      <trkpt lat="45.37646" lon="4.63505">
        <ele>825</ele>
        <time>2018-07-21T17:17:37+02:00</time>
      </trkpt>
      <trkpt lat="45.37647" lon="4.6349">
        <ele>826</ele>
        <time>2018-07-21T17:17:42+02:00</time>
      </trkpt>
      <trkpt lat="45.37647" lon="4.63479">
        <ele>827</ele>
        <time>2018-07-21T17:17:47+02:00</time>
      </trkpt>
      <trkpt lat="45.37649" lon="4.63468">
        <ele>828</ele>
        <time>2018-07-21T17:17:52+02:00</time>
      </trkpt>
      <trkpt lat="45.3765" lon="4.63457">
        <ele>829</ele>
        <time>2018-07-21T17:17:57+02:00</time>
      </trkpt>
      <trkpt lat="45.37651" lon="4.63446">
        <ele>830</ele>
        <time>2018-07-21T17:18:02+02:00</time>
      </trkpt>
      <trkpt lat="45.37652" lon="4.63437">
        <ele>831</ele>
        <time>2018-07-21T17:18:07+02:00</time>
      </trkpt>
      <trkpt lat="45.37652" lon="4.63429">
        <ele>831</ele>
        <time>2018-07-21T17:18:12+02:00</time>
      </trkpt>
      <trkpt lat="45.37651" lon="4.63421">
        <ele>831</ele>
        <time>2018-07-21T17:18:17+02:00</time>
      </trkpt>
      <trkpt lat="45.3765" lon="4.63409">
        <ele>831</ele>
        <time>2018-07-21T17:18:22+02:00</time>
      </trkpt>
      <trkpt lat="45.37651" lon="4.63396">
        <ele>832</ele>
        <time>2018-07-21T17:18:27+02:00</time>
      </trkpt>
      <trkpt lat="45.37655" lon="4.63383">
        <ele>834</ele>
        <time>2018-07-21T17:18:32+02:00</time>
      </trkpt>
      <trkpt lat="45.37655" lon="4.63374">
        <ele>835</ele>
        <time>2018-07-21T17:18:37+02:00</time>
      </trkpt>
      <trkpt lat="45.37658" lon="4.63359">
        <ele>836</ele>
        <time>2018-07-21T17:18:42+02:00</time>
      </trkpt>
      <trkpt lat="45.37658" lon="4.63348">
        <ele>837</ele>
        <time>2018-07-21T17:18:47+02:00</time>
      </trkpt>
      <trkpt lat="45.37659" lon="4.63338">
        <ele>838</ele>
        <time>2018-07-21T17:18:52+02:00</time>
      </trkpt>
      <trkpt lat="45.37658" lon="4.63325">
        <ele>838</ele>
        <time>2018-07-21T17:18:57+02:00</time>
      </trkpt>
      <trkpt lat="45.37659" lon="4.63317">
        <ele>838</ele>
        <time>2018-07-21T17:19:02+02:00</time>
      </trkpt>
      <trkpt lat="45.37662" lon="4.63303">
        <ele>840</ele>
        <time>2018-07-21T17:19:07+02:00</time>
      </trkpt>
      <trkpt lat="45.37666" lon="4.63294">
        <ele>842</ele>
        <time>2018-07-21T17:19:12+02:00</time>
      </trkpt>
      <trkpt lat="45.37667" lon="4.63282">
        <ele>843</ele>
        <time>2018-07-21T17:19:17+02:00</time>
      </trkpt>
      <trkpt lat="45.3767" lon="4.63272">
        <ele>845</ele>
        <time>2018-07-21T17:19:22+02:00</time>
      </trkpt>
      <trkpt lat="45.3767" lon="4.63261">
        <ele>845</ele>
        <time>2018-07-21T17:19:27+02:00</time>
      </trkpt>
      <trkpt lat="45.37669" lon="4.6325">
        <ele>845</ele>
        <time>2018-07-21T17:19:32+02:00</time>
      </trkpt>
      <trkpt lat="45.37671" lon="4.63238">
        <ele>845</ele>
        <time>2018-07-21T17:19:37+02:00</time>
      </trkpt>
      <trkpt lat="45.37672" lon="4.63227">
        <ele>845</ele>
        <time>2018-07-21T17:19:42+02:00</time>
      </trkpt>
      <trkpt lat="45.37674" lon="4.63217">
        <ele>845</ele>
        <time>2018-07-21T17:19:47+02:00</time>
      </trkpt>
      <trkpt lat="45.37679" lon="4.63207">
        <ele>846</ele>
        <time>2018-07-21T17:19:52+02:00</time>
      </trkpt>
      <trkpt lat="45.37682" lon="4.63197">
        <ele>847</ele>
        <time>2018-07-21T17:19:57+02:00</time>
      </trkpt>
      <trkpt lat="45.37682" lon="4.63186">
        <ele>846</ele>
        <time>2018-07-21T17:20:02+02:00</time>
      </trkpt>
      <trkpt lat="45.37685" lon="4.63174">
        <ele>847</ele>
        <time>2018-07-21T17:20:07+02:00</time>
      </trkpt>
      <trkpt lat="45.37688" lon="4.63161">
        <ele>848</ele>
        <time>2018-07-21T17:20:12+02:00</time>
      </trkpt>
      <trkpt lat="45.37693" lon="4.6315">
        <ele>848</ele>
        <time>2018-07-21T17:20:17+02:00</time>
      </trkpt>
      <trkpt lat="45.37696" lon="4.63138">
        <ele>849</ele>
        <time>2018-07-21T17:20:22+02:00</time>
      </trkpt>
      <trkpt lat="45.37703" lon="4.63122">
        <ele>850</ele>
        <time>2018-07-21T17:20:27+02:00</time>
      </trkpt>
      <trkpt lat="45.37706" lon="4.63108">
        <ele>850</ele>
        <time>2018-07-21T17:20:32+02:00</time>
      </trkpt>
      <trkpt lat="45.3771" lon="4.63094">
        <ele>850</ele>
        <time>2018-07-21T17:20:37+02:00</time>
      </trkpt>
      <trkpt lat="45.37714" lon="4.63078">
        <ele>850</ele>
        <time>2018-07-21T17:20:42+02:00</time>
      </trkpt>
      <trkpt lat="45.3772" lon="4.63061">
        <ele>850</ele>
        <time>2018-07-21T17:20:47+02:00</time>
      </trkpt>
      <trkpt lat="45.37725" lon="4.63046">
        <ele>850</ele>
        <time>2018-07-21T17:20:52+02:00</time>
      </trkpt>
      <trkpt lat="45.37731" lon="4.63032">
        <ele>850</ele>
        <time>2018-07-21T17:20:57+02:00</time>
      </trkpt>
      <trkpt lat="45.37736" lon="4.6302">
        <ele>850</ele>
        <time>2018-07-21T17:21:02+02:00</time>
      </trkpt>
      <trkpt lat="45.37743" lon="4.63008">
        <ele>851</ele>
        <time>2018-07-21T17:21:07+02:00</time>
      </trkpt>
      <trkpt lat="45.37749" lon="4.62999">
        <ele>852</ele>
        <time>2018-07-21T17:21:12+02:00</time>
      </trkpt>
      <trkpt lat="45.37758" lon="4.62989">
        <ele>853</ele>
        <time>2018-07-21T17:21:17+02:00</time>
      </trkpt>
      <trkpt lat="45.37761" lon="4.62987">
        <ele>854</ele>
        <time>2018-07-21T17:21:22+02:00</time>
      </trkpt>
      <trkpt lat="45.37771" lon="4.62976">
        <ele>855</ele>
        <time>2018-07-21T17:21:27+02:00</time>
      </trkpt>
      <trkpt lat="45.3778" lon="4.62968">
        <ele>856</ele>
        <time>2018-07-21T17:21:32+02:00</time>
      </trkpt>
      <trkpt lat="45.37788" lon="4.6296">
        <ele>858</ele>
        <time>2018-07-21T17:21:37+02:00</time>
      </trkpt>
      <trkpt lat="45.37795" lon="4.62953">
        <ele>859</ele>
        <time>2018-07-21T17:21:42+02:00</time>
      </trkpt>
      <trkpt lat="45.37804" lon="4.62941">
        <ele>859</ele>
        <time>2018-07-21T17:21:47+02:00</time>
      </trkpt>
      <trkpt lat="45.3781" lon="4.62931">
        <ele>860</ele>
        <time>2018-07-21T17:21:52+02:00</time>
      </trkpt>
      <trkpt lat="45.37817" lon="4.62922">
        <ele>860</ele>
        <time>2018-07-21T17:21:57+02:00</time>
      </trkpt>
      <trkpt lat="45.37824" lon="4.62913">
        <ele>861</ele>
        <time>2018-07-21T17:22:02+02:00</time>
      </trkpt>
      <trkpt lat="45.37829" lon="4.62905">
        <ele>862</ele>
        <time>2018-07-21T17:22:07+02:00</time>
      </trkpt>
      <trkpt lat="45.37837" lon="4.62898">
        <ele>863</ele>
        <time>2018-07-21T17:22:12+02:00</time>
      </trkpt>
      <trkpt lat="45.37846" lon="4.6289">
        <ele>864</ele>
        <time>2018-07-21T17:22:17+02:00</time>
      </trkpt>
      <trkpt lat="45.37855" lon="4.62883">
        <ele>865</ele>
        <time>2018-07-21T17:22:22+02:00</time>
      </trkpt>
      <trkpt lat="45.37867" lon="4.62874">
        <ele>866</ele>
        <time>2018-07-21T17:22:27+02:00</time>
      </trkpt>
      <trkpt lat="45.37875" lon="4.62866">
        <ele>867</ele>
        <time>2018-07-21T17:22:32+02:00</time>
      </trkpt>
      <trkpt lat="45.37883" lon="4.62861">
        <ele>868</ele>
        <time>2018-07-21T17:22:37+02:00</time>
      </trkpt>
      <trkpt lat="45.37887" lon="4.62854">
        <ele>868</ele>
        <time>2018-07-21T17:22:42+02:00</time>
      </trkpt>
      <trkpt lat="45.37893" lon="4.62851">
        <ele>868</ele>
        <time>2018-07-21T17:22:47+02:00</time>
      </trkpt>
      <trkpt lat="45.37899" lon="4.62846">
        <ele>869</ele>
        <time>2018-07-21T17:22:52+02:00</time>
      </trkpt>
      <trkpt lat="45.37905" lon="4.62842">
        <ele>869</ele>
        <time>2018-07-21T17:22:57+02:00</time>
      </trkpt>
      <trkpt lat="45.37912" lon="4.62839">
        <ele>870</ele>
        <time>2018-07-21T17:23:02+02:00</time>
      </trkpt>
      <trkpt lat="45.37921" lon="4.62835">
        <ele>871</ele>
        <time>2018-07-21T17:23:07+02:00</time>
      </trkpt>
      <trkpt lat="45.37928" lon="4.62833">
        <ele>872</ele>
        <time>2018-07-21T17:23:12+02:00</time>
      </trkpt>
      <trkpt lat="45.37934" lon="4.6283">
        <ele>873</ele>
        <time>2018-07-21T17:23:17+02:00</time>
      </trkpt>
      <trkpt lat="45.37946" lon="4.62824">
        <ele>875</ele>
        <time>2018-07-21T17:23:22+02:00</time>
      </trkpt>
      <trkpt lat="45.37948" lon="4.62823">
        <ele>875</ele>
        <time>2018-07-21T17:23:27+02:00</time>
      </trkpt>
      <trkpt lat="45.37954" lon="4.62818">
        <ele>876</ele>
        <time>2018-07-21T17:23:32+02:00</time>
      </trkpt>
      <trkpt lat="45.37965" lon="4.62809">
        <ele>878</ele>
        <time>2018-07-21T17:23:37+02:00</time>
      </trkpt>
      <trkpt lat="45.37967" lon="4.62806">
        <ele>878</ele>
        <time>2018-07-21T17:23:42+02:00</time>
      </trkpt>
      <trkpt lat="45.37974" lon="4.62803">
        <ele>879</ele>
        <time>2018-07-21T17:23:47+02:00</time>
      </trkpt>
      <trkpt lat="45.3798" lon="4.628">
        <ele>880</ele>
        <time>2018-07-21T17:23:52+02:00</time>
      </trkpt>
      <trkpt lat="45.3799" lon="4.62802">
        <ele>882</ele>
        <time>2018-07-21T17:23:57+02:00</time>
      </trkpt>
      <trkpt lat="45.37999" lon="4.62803">
        <ele>884</ele>
        <time>2018-07-21T17:24:02+02:00</time>
      </trkpt>
      <trkpt lat="45.38007" lon="4.62802">
        <ele>886</ele>
        <time>2018-07-21T17:24:07+02:00</time>
      </trkpt>
      <trkpt lat="45.38015" lon="4.62798">
        <ele>889</ele>
        <time>2018-07-21T17:24:12+02:00</time>
      </trkpt>
      <trkpt lat="45.38023" lon="4.62792">
        <ele>891</ele>
        <time>2018-07-21T17:24:17+02:00</time>
      </trkpt>
      <trkpt lat="45.38029" lon="4.62787">
        <ele>893</ele>
        <time>2018-07-21T17:24:22+02:00</time>
      </trkpt>
      <trkpt lat="45.38034" lon="4.62783">
        <ele>894</ele>
        <time>2018-07-21T17:24:27+02:00</time>
      </trkpt>
      <trkpt lat="45.38038" lon="4.62778">
        <ele>896</ele>
        <time>2018-07-21T17:24:32+02:00</time>
      </trkpt>
      <trkpt lat="45.38043" lon="4.62775">
        <ele>897</ele>
        <time>2018-07-21T17:24:37+02:00</time>
      </trkpt>
      <trkpt lat="45.38047" lon="4.62772">
        <ele>899</ele>
        <time>2018-07-21T17:24:42+02:00</time>
      </trkpt>
      <trkpt lat="45.38054" lon="4.62768">
        <ele>901</ele>
        <time>2018-07-21T17:24:47+02:00</time>
      </trkpt>
      <trkpt lat="45.38057" lon="4.62763">
        <ele>902</ele>
        <time>2018-07-21T17:24:52+02:00</time>
      </trkpt>
      <trkpt lat="45.38062" lon="4.62754">
        <ele>903</ele>
        <time>2018-07-21T17:24:57+02:00</time>
      </trkpt>
      <trkpt lat="45.38064" lon="4.62751">
        <ele>904</ele>
        <time>2018-07-21T17:25:02+02:00</time>
      </trkpt>
      <trkpt lat="45.38067" lon="4.62746">
        <ele>905</ele>
        <time>2018-07-21T17:25:07+02:00</time>
      </trkpt>
      <trkpt lat="45.3807" lon="4.62741">
        <ele>906</ele>
        <time>2018-07-21T17:25:12+02:00</time>
      </trkpt>
      <trkpt lat="45.38073" lon="4.62734">
        <ele>907</ele>
        <time>2018-07-21T17:25:17+02:00</time>
      </trkpt>
      <trkpt lat="45.38076" lon="4.62728">
        <ele>908</ele>
        <time>2018-07-21T17:25:22+02:00</time>
      </trkpt>
      <trkpt lat="45.38081" lon="4.62723">
        <ele>910</ele>
        <time>2018-07-21T17:25:27+02:00</time>
      </trkpt>
      <trkpt lat="45.38084" lon="4.62718">
        <ele>911</ele>
        <time>2018-07-21T17:25:32+02:00</time>
      </trkpt>
      <trkpt lat="45.38088" lon="4.62716">
        <ele>913</ele>
        <time>2018-07-21T17:25:37+02:00</time>
      </trkpt>
      <trkpt lat="45.3809" lon="4.62712">
        <ele>913</ele>
        <time>2018-07-21T17:25:42+02:00</time>
      </trkpt>
      <trkpt lat="45.38096" lon="4.62708">
        <ele>916</ele>
        <time>2018-07-21T17:25:47+02:00</time>
      </trkpt>
      <trkpt lat="45.38102" lon="4.62698">
        <ele>918</ele>
        <time>2018-07-21T17:25:52+02:00</time>
      </trkpt>
      <trkpt lat="45.38108" lon="4.62694">
        <ele>920</ele>
        <time>2018-07-21T17:25:57+02:00</time>
      </trkpt>
      <trkpt lat="45.38109" lon="4.62687">
        <ele>920</ele>
        <time>2018-07-21T17:26:02+02:00</time>
      </trkpt>
      <trkpt lat="45.38112" lon="4.62677">
        <ele>921</ele>
        <time>2018-07-21T17:26:07+02:00</time>
      </trkpt>
      <trkpt lat="45.38116" lon="4.62672">
        <ele>923</ele>
        <time>2018-07-21T17:26:12+02:00</time>
      </trkpt>
      <trkpt lat="45.38124" lon="4.62664">
        <ele>926</ele>
        <time>2018-07-21T17:26:17+02:00</time>
      </trkpt>
      <trkpt lat="45.38128" lon="4.6266">
        <ele>927</ele>
        <time>2018-07-21T17:26:22+02:00</time>
      </trkpt>
      <trkpt lat="45.38133" lon="4.62655">
        <ele>929</ele>
        <time>2018-07-21T17:26:27+02:00</time>
      </trkpt>
      <trkpt lat="45.38134" lon="4.62649">
        <ele>929</ele>
        <time>2018-07-21T17:26:32+02:00</time>
      </trkpt>
      <trkpt lat="45.38136" lon="4.62643">
        <ele>930</ele>
        <time>2018-07-21T17:26:37+02:00</time>
      </trkpt>
      <trkpt lat="45.38139" lon="4.62635">
        <ele>931</ele>
        <time>2018-07-21T17:26:42+02:00</time>
      </trkpt>
      <trkpt lat="45.38148" lon="4.62623">
        <ele>933</ele>
        <time>2018-07-21T17:26:47+02:00</time>
      </trkpt>
      <trkpt lat="45.38149" lon="4.62613">
        <ele>933</ele>
        <time>2018-07-21T17:26:52+02:00</time>
      </trkpt>
      <trkpt lat="45.38154" lon="4.62602">
        <ele>934</ele>
        <time>2018-07-21T17:26:57+02:00</time>
      </trkpt>
      <trkpt lat="45.38158" lon="4.62592">
        <ele>935</ele>
        <time>2018-07-21T17:27:02+02:00</time>
      </trkpt>
      <trkpt lat="45.38157" lon="4.62588">
        <ele>935</ele>
        <time>2018-07-21T17:27:07+02:00</time>
      </trkpt>
      <trkpt lat="45.3816" lon="4.62579">
        <ele>935</ele>
        <time>2018-07-21T17:27:12+02:00</time>
      </trkpt>
      <trkpt lat="45.38158" lon="4.6257">
        <ele>935</ele>
        <time>2018-07-21T17:27:17+02:00</time>
      </trkpt>
      <trkpt lat="45.38161" lon="4.62562">
        <ele>936</ele>
        <time>2018-07-21T17:27:22+02:00</time>
      </trkpt>
      <trkpt lat="45.38163" lon="4.62555">
        <ele>937</ele>
        <time>2018-07-21T17:27:27+02:00</time>
      </trkpt>
      <trkpt lat="45.38165" lon="4.62549">
        <ele>938</ele>
        <time>2018-07-21T17:27:32+02:00</time>
      </trkpt>
      <trkpt lat="45.38166" lon="4.62542">
        <ele>938</ele>
        <time>2018-07-21T17:27:37+02:00</time>
      </trkpt>
      <trkpt lat="45.3817" lon="4.62537">
        <ele>939</ele>
        <time>2018-07-21T17:27:42+02:00</time>
      </trkpt>
      <trkpt lat="45.38173" lon="4.62532">
        <ele>940</ele>
        <time>2018-07-21T17:27:47+02:00</time>
      </trkpt>
      <trkpt lat="45.38175" lon="4.62521">
        <ele>940</ele>
        <time>2018-07-21T17:27:52+02:00</time>
      </trkpt>
      <trkpt lat="45.38183" lon="4.62506">
        <ele>942</ele>
        <time>2018-07-21T17:27:57+02:00</time>
      </trkpt>
      <trkpt lat="45.38188" lon="4.625">
        <ele>943</ele>
        <time>2018-07-21T17:28:02+02:00</time>
      </trkpt>
      <trkpt lat="45.38195" lon="4.62494">
        <ele>945</ele>
        <time>2018-07-21T17:28:07+02:00</time>
      </trkpt>
      <trkpt lat="45.382" lon="4.62495">
        <ele>946</ele>
        <time>2018-07-21T17:28:12+02:00</time>
      </trkpt>
      <trkpt lat="45.38201" lon="4.62489">
        <ele>947</ele>
        <time>2018-07-21T17:28:17+02:00</time>
      </trkpt>
      <trkpt lat="45.38216" lon="4.62474">
        <ele>951</ele>
        <time>2018-07-21T17:28:22+02:00</time>
      </trkpt>
      <trkpt lat="45.38221" lon="4.62472">
        <ele>953</ele>
        <time>2018-07-21T17:28:27+02:00</time>
      </trkpt>
      <trkpt lat="45.38228" lon="4.62465">
        <ele>954</ele>
        <time>2018-07-21T17:28:32+02:00</time>
      </trkpt>
      <trkpt lat="45.38232" lon="4.62459">
        <ele>956</ele>
        <time>2018-07-21T17:28:37+02:00</time>
      </trkpt>
      <trkpt lat="45.38237" lon="4.62459">
        <ele>956</ele>
        <time>2018-07-21T17:28:42+02:00</time>
      </trkpt>
      <trkpt lat="45.38241" lon="4.62456">
        <ele>957</ele>
        <time>2018-07-21T17:28:47+02:00</time>
      </trkpt>
      <trkpt lat="45.38245" lon="4.62456">
        <ele>958</ele>
        <time>2018-07-21T17:28:52+02:00</time>
      </trkpt>
      <trkpt lat="45.38247" lon="4.62456">
        <ele>958</ele>
        <time>2018-07-21T17:28:57+02:00</time>
      </trkpt>
      <trkpt lat="45.3825" lon="4.62457">
        <ele>955</ele>
        <time>2018-07-21T17:29:02+02:00</time>
      </trkpt>
      <trkpt lat="45.38255" lon="4.6246">
        <ele>960</ele>
        <time>2018-07-21T17:29:07+02:00</time>
      </trkpt>
      <trkpt lat="45.38259" lon="4.6246">
        <ele>961</ele>
        <time>2018-07-21T17:29:12+02:00</time>
      </trkpt>
      <trkpt lat="45.38268" lon="4.62462">
        <ele>963</ele>
        <time>2018-07-21T17:29:17+02:00</time>
      </trkpt>
      <trkpt lat="45.38272" lon="4.6246">
        <ele>964</ele>
        <time>2018-07-21T17:29:22+02:00</time>
      </trkpt>
      <trkpt lat="45.38272" lon="4.62456">
        <ele>964</ele>
        <time>2018-07-21T17:29:27+02:00</time>
      </trkpt>
      <trkpt lat="45.38266" lon="4.62445">
        <ele>963</ele>
        <time>2018-07-21T17:29:32+02:00</time>
      </trkpt>
      <trkpt lat="45.38265" lon="4.62429">
        <ele>965</ele>
        <time>2018-07-21T17:29:37+02:00</time>
      </trkpt>
      <trkpt lat="45.38267" lon="4.62415">
        <ele>966</ele>
        <time>2018-07-21T17:29:42+02:00</time>
      </trkpt>
      <trkpt lat="45.38271" lon="4.62408">
        <ele>969</ele>
        <time>2018-07-21T17:29:47+02:00</time>
      </trkpt>
      <trkpt lat="45.38275" lon="4.62405">
        <ele>971</ele>
        <time>2018-07-21T17:29:52+02:00</time>
      </trkpt>
      <trkpt lat="45.38282" lon="4.62402">
        <ele>973</ele>
        <time>2018-07-21T17:29:57+02:00</time>
      </trkpt>
      <trkpt lat="45.38285" lon="4.62399">
        <ele>974</ele>
        <time>2018-07-21T17:30:02+02:00</time>
      </trkpt>
      <trkpt lat="45.38292" lon="4.62407">
        <ele>974</ele>
        <time>2018-07-21T17:30:07+02:00</time>
      </trkpt>
      <trkpt lat="45.38299" lon="4.62407">
        <ele>975</ele>
        <time>2018-07-21T17:30:12+02:00</time>
      </trkpt>
      <trkpt lat="45.38309" lon="4.62411">
        <ele>977</ele>
        <time>2018-07-21T17:30:17+02:00</time>
      </trkpt>
      <trkpt lat="45.38313" lon="4.62413">
        <ele>977</ele>
        <time>2018-07-21T17:30:22+02:00</time>
      </trkpt>
      <trkpt lat="45.3832" lon="4.62424">
        <ele>978</ele>
        <time>2018-07-21T17:30:27+02:00</time>
      </trkpt>
      <trkpt lat="45.3832" lon="4.62425">
        <ele>978</ele>
        <time>2018-07-21T17:30:32+02:00</time>
      </trkpt>
      <trkpt lat="45.38323" lon="4.62429">
        <ele>978</ele>
        <time>2018-07-21T17:30:37+02:00</time>
      </trkpt>
      <trkpt lat="45.38328" lon="4.62435">
        <ele>979</ele>
        <time>2018-07-21T17:30:42+02:00</time>
      </trkpt>
      <trkpt lat="45.38331" lon="4.62437">
        <ele>980</ele>
        <time>2018-07-21T17:30:47+02:00</time>
      </trkpt>
      <trkpt lat="45.38334" lon="4.62439">
        <ele>980</ele>
        <time>2018-07-21T17:30:52+02:00</time>
      </trkpt>
      <trkpt lat="45.38341" lon="4.62447">
        <ele>982</ele>
        <time>2018-07-21T17:30:57+02:00</time>
      </trkpt>
      <trkpt lat="45.38342" lon="4.62449">
        <ele>983</ele>
        <time>2018-07-21T17:31:02+02:00</time>
      </trkpt>
      <trkpt lat="45.38349" lon="4.62459">
        <ele>985</ele>
        <time>2018-07-21T17:31:07+02:00</time>
      </trkpt>
      <trkpt lat="45.38352" lon="4.62456">
        <ele>986</ele>
        <time>2018-07-21T17:31:12+02:00</time>
      </trkpt>
      <trkpt lat="45.3836" lon="4.62462">
        <ele>988</ele>
        <time>2018-07-21T17:31:17+02:00</time>
      </trkpt>
      <trkpt lat="45.38358" lon="4.62471">
        <ele>987</ele>
        <time>2018-07-21T17:31:22+02:00</time>
      </trkpt>
      <trkpt lat="45.38357" lon="4.62477">
        <ele>987</ele>
        <time>2018-07-21T17:31:27+02:00</time>
      </trkpt>
      <trkpt lat="45.38365" lon="4.62483">
        <ele>989</ele>
        <time>2018-07-21T17:31:32+02:00</time>
      </trkpt>
      <trkpt lat="45.38369" lon="4.62488">
        <ele>990</ele>
        <time>2018-07-21T17:31:37+02:00</time>
      </trkpt>
      <trkpt lat="45.38372" lon="4.62493">
        <ele>991</ele>
        <time>2018-07-21T17:31:42+02:00</time>
      </trkpt>
      <trkpt lat="45.38382" lon="4.62499">
        <ele>993</ele>
        <time>2018-07-21T17:31:47+02:00</time>
      </trkpt>
      <trkpt lat="45.38387" lon="4.62503">
        <ele>995</ele>
        <time>2018-07-21T17:31:52+02:00</time>
      </trkpt>
      <trkpt lat="45.38391" lon="4.62504">
        <ele>996</ele>
        <time>2018-07-21T17:31:57+02:00</time>
      </trkpt>
      <trkpt lat="45.38397" lon="4.62505">
        <ele>998</ele>
        <time>2018-07-21T17:32:02+02:00</time>
      </trkpt>
      <trkpt lat="45.384" lon="4.6251">
        <ele>999</ele>
        <time>2018-07-21T17:32:07+02:00</time>
      </trkpt>
      <trkpt lat="45.38401" lon="4.62515">
        <ele>1000</ele>
        <time>2018-07-21T17:32:12+02:00</time>
      </trkpt>
      <trkpt lat="45.384" lon="4.62519">
        <ele>1000</ele>
        <time>2018-07-21T17:32:17+02:00</time>
      </trkpt>
      <trkpt lat="45.38397" lon="4.62526">
        <ele>1000</ele>
        <time>2018-07-21T17:32:22+02:00</time>
      </trkpt>
      <trkpt lat="45.38395" lon="4.62534">
        <ele>1000</ele>
        <time>2018-07-21T17:32:27+02:00</time>
      </trkpt>
      <trkpt lat="45.38392" lon="4.62538">
        <ele>999</ele>
        <time>2018-07-21T17:32:32+02:00</time>
      </trkpt>
      <trkpt lat="45.38398" lon="4.62549">
        <ele>1002</ele>
        <time>2018-07-21T17:32:37+02:00</time>
      </trkpt>
      <trkpt lat="45.38394" lon="4.62556">
        <ele>1001</ele>
        <time>2018-07-21T17:32:42+02:00</time>
      </trkpt>
      <trkpt lat="45.38395" lon="4.62565">
        <ele>1002</ele>
        <time>2018-07-21T17:32:47+02:00</time>
      </trkpt>
      <trkpt lat="45.38394" lon="4.62579">
        <ele>1003</ele>
        <time>2018-07-21T17:32:52+02:00</time>
      </trkpt>
      <trkpt lat="45.38394" lon="4.62584">
        <ele>1003</ele>
        <time>2018-07-21T17:32:57+02:00</time>
      </trkpt>
      <trkpt lat="45.38389" lon="4.62594">
        <ele>1003</ele>
        <time>2018-07-21T17:33:02+02:00</time>
      </trkpt>
      <trkpt lat="45.38385" lon="4.62598">
        <ele>1003</ele>
        <time>2018-07-21T17:33:07+02:00</time>
      </trkpt>
      <trkpt lat="45.38385" lon="4.626">
        <ele>1002</ele>
        <time>2018-07-21T17:33:12+02:00</time>
      </trkpt>
      <trkpt lat="45.38386" lon="4.6261">
        <ele>1004</ele>
        <time>2018-07-21T17:33:17+02:00</time>
      </trkpt>
      <trkpt lat="45.38382" lon="4.62608">
        <ele>1003</ele>
        <time>2018-07-21T17:33:22+02:00</time>
      </trkpt>
      <trkpt lat="45.38382" lon="4.62615">
        <ele>1003</ele>
        <time>2018-07-21T17:33:27+02:00</time>
      </trkpt>
      <trkpt lat="45.38381" lon="4.62623">
        <ele>1004</ele>
        <time>2018-07-21T17:33:32+02:00</time>
      </trkpt>
      <trkpt lat="45.38382" lon="4.62632">
        <ele>1005</ele>
        <time>2018-07-21T17:33:37+02:00</time>
      </trkpt>
      <trkpt lat="45.38382" lon="4.62639">
        <ele>1005</ele>
        <time>2018-07-21T17:33:42+02:00</time>
      </trkpt>
      <trkpt lat="45.38381" lon="4.62644">
        <ele>1006</ele>
        <time>2018-07-21T17:33:47+02:00</time>
      </trkpt>
      <trkpt lat="45.38384" lon="4.62644">
        <ele>1006</ele>
        <time>2018-07-21T17:33:52+02:00</time>
      </trkpt>
      <trkpt lat="45.38392" lon="4.62641">
        <ele>1008</ele>
        <time>2018-07-21T17:33:57+02:00</time>
      </trkpt>
      <trkpt lat="45.38395" lon="4.62641">
        <ele>1009</ele>
        <time>2018-07-21T17:34:02+02:00</time>
      </trkpt>
      <trkpt lat="45.38401" lon="4.62647">
        <ele>1011</ele>
        <time>2018-07-21T17:34:07+02:00</time>
      </trkpt>
      <trkpt lat="45.38402" lon="4.62653">
        <ele>1011</ele>
        <time>2018-07-21T17:34:12+02:00</time>
      </trkpt>
      <trkpt lat="45.38403" lon="4.6266">
        <ele>1012</ele>
        <time>2018-07-21T17:34:17+02:00</time>
      </trkpt>
      <trkpt lat="45.38405" lon="4.62672">
        <ele>1014</ele>
        <time>2018-07-21T17:34:22+02:00</time>
      </trkpt>
      <trkpt lat="45.38406" lon="4.62678">
        <ele>1015</ele>
        <time>2018-07-21T17:34:27+02:00</time>
      </trkpt>
      <trkpt lat="45.38407" lon="4.62687">
        <ele>1016</ele>
        <time>2018-07-21T17:34:32+02:00</time>
      </trkpt>
      <trkpt lat="45.3841" lon="4.62693">
        <ele>1017</ele>
        <time>2018-07-21T17:34:37+02:00</time>
      </trkpt>
      <trkpt lat="45.38412" lon="4.627">
        <ele>1018</ele>
        <time>2018-07-21T17:34:42+02:00</time>
      </trkpt>
      <trkpt lat="45.38413" lon="4.62709">
        <ele>1019</ele>
        <time>2018-07-21T17:34:47+02:00</time>
      </trkpt>
      <trkpt lat="45.38415" lon="4.62717">
        <ele>1020</ele>
        <time>2018-07-21T17:34:52+02:00</time>
      </trkpt>
      <trkpt lat="45.38418" lon="4.62722">
        <ele>1022</ele>
        <time>2018-07-21T17:34:57+02:00</time>
      </trkpt>
      <trkpt lat="45.3842" lon="4.62728">
        <ele>1023</ele>
        <time>2018-07-21T17:35:02+02:00</time>
      </trkpt>
      <trkpt lat="45.38421" lon="4.62736">
        <ele>1024</ele>
        <time>2018-07-21T17:35:07+02:00</time>
      </trkpt>
      <trkpt lat="45.38424" lon="4.62743">
        <ele>1026</ele>
        <time>2018-07-21T17:35:12+02:00</time>
      </trkpt>
      <trkpt lat="45.38424" lon="4.62753">
        <ele>1027</ele>
        <time>2018-07-21T17:35:17+02:00</time>
      </trkpt>
      <trkpt lat="45.38424" lon="4.62757">
        <ele>1027</ele>
        <time>2018-07-21T17:35:22+02:00</time>
      </trkpt>
      <trkpt lat="45.38423" lon="4.62765">
        <ele>1027</ele>
        <time>2018-07-21T17:35:27+02:00</time>
      </trkpt>
      <trkpt lat="45.38429" lon="4.62776">
        <ele>1030</ele>
        <time>2018-07-21T17:35:32+02:00</time>
      </trkpt>
      <trkpt lat="45.38431" lon="4.62784">
        <ele>1031</ele>
        <time>2018-07-21T17:35:37+02:00</time>
      </trkpt>
      <trkpt lat="45.38433" lon="4.62788">
        <ele>1032</ele>
        <time>2018-07-21T17:35:42+02:00</time>
      </trkpt>
      <trkpt lat="45.38434" lon="4.62797">
        <ele>1033</ele>
        <time>2018-07-21T17:35:47+02:00</time>
      </trkpt>
      <trkpt lat="45.38435" lon="4.62802">
        <ele>1034</ele>
        <time>2018-07-21T17:35:52+02:00</time>
      </trkpt>
      <trkpt lat="45.38438" lon="4.62814">
        <ele>1036</ele>
        <time>2018-07-21T17:35:57+02:00</time>
      </trkpt>
      <trkpt lat="45.38439" lon="4.62822">
        <ele>1036</ele>
        <time>2018-07-21T17:36:02+02:00</time>
      </trkpt>
      <trkpt lat="45.38438" lon="4.6283">
        <ele>1036</ele>
        <time>2018-07-21T17:36:07+02:00</time>
      </trkpt>
      <trkpt lat="45.38442" lon="4.6284">
        <ele>1038</ele>
        <time>2018-07-21T17:36:12+02:00</time>
      </trkpt>
      <trkpt lat="45.38445" lon="4.62848">
        <ele>1039</ele>
        <time>2018-07-21T17:36:17+02:00</time>
      </trkpt>
      <trkpt lat="45.3845" lon="4.62852">
        <ele>1041</ele>
        <time>2018-07-21T17:36:22+02:00</time>
      </trkpt>
      <trkpt lat="45.3845" lon="4.62858">
        <ele>1041</ele>
        <time>2018-07-21T17:36:27+02:00</time>
      </trkpt>
      <trkpt lat="45.38453" lon="4.62862">
        <ele>1041</ele>
        <time>2018-07-21T17:36:32+02:00</time>
      </trkpt>
      <trkpt lat="45.38458" lon="4.6287">
        <ele>1043</ele>
        <time>2018-07-21T17:36:37+02:00</time>
      </trkpt>
      <trkpt lat="45.38458" lon="4.62874">
        <ele>1043</ele>
        <time>2018-07-21T17:36:42+02:00</time>
      </trkpt>
      <trkpt lat="45.38461" lon="4.6288">
        <ele>1044</ele>
        <time>2018-07-21T17:36:47+02:00</time>
      </trkpt>
      <trkpt lat="45.38468" lon="4.62896">
        <ele>1046</ele>
        <time>2018-07-21T17:36:52+02:00</time>
      </trkpt>
      <trkpt lat="45.38474" lon="4.62903">
        <ele>1048</ele>
        <time>2018-07-21T17:36:57+02:00</time>
      </trkpt>
      <trkpt lat="45.38477" lon="4.62911">
        <ele>1049</ele>
        <time>2018-07-21T17:37:02+02:00</time>
      </trkpt>
      <trkpt lat="45.38478" lon="4.62919">
        <ele>1049</ele>
        <time>2018-07-21T17:37:07+02:00</time>
      </trkpt>
      <trkpt lat="45.3848" lon="4.62925">
        <ele>1049</ele>
        <time>2018-07-21T17:37:12+02:00</time>
      </trkpt>
      <trkpt lat="45.38484" lon="4.62932">
        <ele>1049</ele>
        <time>2018-07-21T17:37:17+02:00</time>
      </trkpt>
      <trkpt lat="45.38486" lon="4.62942">
        <ele>1049</ele>
        <time>2018-07-21T17:37:22+02:00</time>
      </trkpt>
      <trkpt lat="45.3849" lon="4.62947">
        <ele>1050</ele>
        <time>2018-07-21T17:37:27+02:00</time>
      </trkpt>
      <trkpt lat="45.38491" lon="4.62957">
        <ele>1050</ele>
        <time>2018-07-21T17:37:32+02:00</time>
      </trkpt>
      <trkpt lat="45.38495" lon="4.62963">
        <ele>1050</ele>
        <time>2018-07-21T17:37:37+02:00</time>
      </trkpt>
      <trkpt lat="45.385" lon="4.62968">
        <ele>1051</ele>
        <time>2018-07-21T17:37:42+02:00</time>
      </trkpt>
      <trkpt lat="45.38504" lon="4.62975">
        <ele>1053</ele>
        <time>2018-07-21T17:37:47+02:00</time>
      </trkpt>
      <trkpt lat="45.38506" lon="4.62979">
        <ele>1053</ele>
        <time>2018-07-21T17:37:52+02:00</time>
      </trkpt>
      <trkpt lat="45.38509" lon="4.62984">
        <ele>1054</ele>
        <time>2018-07-21T17:37:57+02:00</time>
      </trkpt>
      <trkpt lat="45.38512" lon="4.62997">
        <ele>1054</ele>
        <time>2018-07-21T17:38:02+02:00</time>
      </trkpt>
      <trkpt lat="45.38515" lon="4.63005">
        <ele>1055</ele>
        <time>2018-07-21T17:38:07+02:00</time>
      </trkpt>
      <trkpt lat="45.38516" lon="4.63011">
        <ele>1055</ele>
        <time>2018-07-21T17:38:12+02:00</time>
      </trkpt>
      <trkpt lat="45.38515" lon="4.63016">
        <ele>1055</ele>
        <time>2018-07-21T17:38:17+02:00</time>
      </trkpt>
      <trkpt lat="45.38517" lon="4.63023">
        <ele>1055</ele>
        <time>2018-07-21T17:38:22+02:00</time>
      </trkpt>
      <trkpt lat="45.38517" lon="4.63027">
        <ele>1055</ele>
        <time>2018-07-21T17:38:27+02:00</time>
      </trkpt>
      <trkpt lat="45.38521" lon="4.63035">
        <ele>1057</ele>
        <time>2018-07-21T17:38:32+02:00</time>
      </trkpt>
      <trkpt lat="45.38517" lon="4.6304">
        <ele>1055</ele>
        <time>2018-07-21T17:38:37+02:00</time>
      </trkpt>
      <trkpt lat="45.38516" lon="4.63047">
        <ele>1054</ele>
        <time>2018-07-21T17:38:42+02:00</time>
      </trkpt>
      <trkpt lat="45.38514" lon="4.63057">
        <ele>1054</ele>
        <time>2018-07-21T17:38:47+02:00</time>
      </trkpt>
      <trkpt lat="45.38514" lon="4.63063">
        <ele>1054</ele>
        <time>2018-07-21T17:38:52+02:00</time>
      </trkpt>
      <trkpt lat="45.3852" lon="4.63079">
        <ele>1055</ele>
        <time>2018-07-21T17:38:57+02:00</time>
      </trkpt>
      <trkpt lat="45.38525" lon="4.63097">
        <ele>1056</ele>
        <time>2018-07-21T17:39:02+02:00</time>
      </trkpt>
      <trkpt lat="45.3853" lon="4.63109">
        <ele>1057</ele>
        <time>2018-07-21T17:39:07+02:00</time>
      </trkpt>
      <trkpt lat="45.3853" lon="4.63111">
        <ele>1057</ele>
        <time>2018-07-21T17:39:12+02:00</time>
      </trkpt>
      <trkpt lat="45.38529" lon="4.63124">
        <ele>1056</ele>
        <time>2018-07-21T17:39:17+02:00</time>
      </trkpt>
      <trkpt lat="45.38527" lon="4.63134">
        <ele>1054</ele>
        <time>2018-07-21T17:39:22+02:00</time>
      </trkpt>
      <trkpt lat="45.38525" lon="4.63143">
        <ele>1054</ele>
        <time>2018-07-21T17:39:27+02:00</time>
      </trkpt>
      <trkpt lat="45.38525" lon="4.63146">
        <ele>1053</ele>
        <time>2018-07-21T17:39:32+02:00</time>
      </trkpt>
      <trkpt lat="45.38524" lon="4.63153">
        <ele>1053</ele>
        <time>2018-07-21T17:39:37+02:00</time>
      </trkpt>
      <trkpt lat="45.38527" lon="4.63159">
        <ele>1053</ele>
        <time>2018-07-21T17:39:42+02:00</time>
      </trkpt>
      <trkpt lat="45.38532" lon="4.63159">
        <ele>1055</ele>
        <time>2018-07-21T17:39:47+02:00</time>
      </trkpt>
      <trkpt lat="45.38536" lon="4.6316">
        <ele>1056</ele>
        <time>2018-07-21T17:39:52+02:00</time>
      </trkpt>
      <trkpt lat="45.3854" lon="4.63162">
        <ele>1057</ele>
        <time>2018-07-21T17:39:57+02:00</time>
      </trkpt>
      <trkpt lat="45.38546" lon="4.63163">
        <ele>1058</ele>
        <time>2018-07-21T17:40:02+02:00</time>
      </trkpt>
      <trkpt lat="45.38551" lon="4.63167">
        <ele>1060</ele>
        <time>2018-07-21T17:40:07+02:00</time>
      </trkpt>
      <trkpt lat="45.38552" lon="4.63163">
        <ele>1060</ele>
        <time>2018-07-21T17:40:12+02:00</time>
      </trkpt>
      <trkpt lat="45.38556" lon="4.63159">
        <ele>1062</ele>
        <time>2018-07-21T17:40:17+02:00</time>
      </trkpt>
      <trkpt lat="45.38558" lon="4.63159">
        <ele>1062</ele>
        <time>2018-07-21T17:40:22+02:00</time>
      </trkpt>
      <trkpt lat="45.38561" lon="4.63153">
        <ele>1063</ele>
        <time>2018-07-21T17:40:27+02:00</time>
      </trkpt>
      <trkpt lat="45.38567" lon="4.63147">
        <ele>1066</ele>
        <time>2018-07-21T17:40:32+02:00</time>
      </trkpt>
      <trkpt lat="45.38574" lon="4.63141">
        <ele>1068</ele>
        <time>2018-07-21T17:40:37+02:00</time>
      </trkpt>
      <trkpt lat="45.38574" lon="4.63136">
        <ele>1068</ele>
        <time>2018-07-21T17:40:42+02:00</time>
      </trkpt>
      <trkpt lat="45.3858" lon="4.63129">
        <ele>1071</ele>
        <time>2018-07-21T17:40:47+02:00</time>
      </trkpt>
      <trkpt lat="45.38583" lon="4.63124">
        <ele>1072</ele>
        <time>2018-07-21T17:40:52+02:00</time>
      </trkpt>
      <trkpt lat="45.38584" lon="4.63114">
        <ele>1073</ele>
        <time>2018-07-21T17:40:57+02:00</time>
      </trkpt>
      <trkpt lat="45.38593" lon="4.63113">
        <ele>1076</ele>
        <time>2018-07-21T17:41:02+02:00</time>
      </trkpt>
      <trkpt lat="45.38596" lon="4.63104">
        <ele>1078</ele>
        <time>2018-07-21T17:41:07+02:00</time>
      </trkpt>
      <trkpt lat="45.38601" lon="4.63105">
        <ele>1080</ele>
        <time>2018-07-21T17:41:12+02:00</time>
      </trkpt>
      <trkpt lat="45.38605" lon="4.63103">
        <ele>1081</ele>
        <time>2018-07-21T17:41:17+02:00</time>
      </trkpt>
      <trkpt lat="45.38611" lon="4.63099">
        <ele>1084</ele>
        <time>2018-07-21T17:41:22+02:00</time>
      </trkpt>
      <trkpt lat="45.38614" lon="4.63092">
        <ele>1086</ele>
        <time>2018-07-21T17:41:27+02:00</time>
      </trkpt>
      <trkpt lat="45.38615" lon="4.63085">
        <ele>1087</ele>
        <time>2018-07-21T17:41:32+02:00</time>
      </trkpt>
      <trkpt lat="45.38617" lon="4.63077">
        <ele>1088</ele>
        <time>2018-07-21T17:41:37+02:00</time>
      </trkpt>
      <trkpt lat="45.38623" lon="4.63077">
        <ele>1090</ele>
        <time>2018-07-21T17:41:42+02:00</time>
      </trkpt>
      <trkpt lat="45.38628" lon="4.63074">
        <ele>1092</ele>
        <time>2018-07-21T17:41:47+02:00</time>
      </trkpt>
      <trkpt lat="45.38634" lon="4.63071">
        <ele>1095</ele>
        <time>2018-07-21T17:41:52+02:00</time>
      </trkpt>
      <trkpt lat="45.38672" lon="4.63034">
        <ele>1114</ele>
        <time>2018-07-21T17:41:57+02:00</time>
      </trkpt>
      <trkpt lat="45.38675" lon="4.63027">
        <ele>1116</ele>
        <time>2018-07-21T17:42:02+02:00</time>
      </trkpt>
      <trkpt lat="45.38676" lon="4.63021">
        <ele>1117</ele>
        <time>2018-07-21T17:42:07+02:00</time>
      </trkpt>
      <trkpt lat="45.38682" lon="4.63018">
        <ele>1120</ele>
        <time>2018-07-21T17:42:12+02:00</time>
      </trkpt>
      <trkpt lat="45.38686" lon="4.63013">
        <ele>1122</ele>
        <time>2018-07-21T17:42:17+02:00</time>
      </trkpt>
      <trkpt lat="45.38689" lon="4.63011">
        <ele>1123</ele>
        <time>2018-07-21T17:42:22+02:00</time>
      </trkpt>
      <trkpt lat="45.38693" lon="4.63007">
        <ele>1125</ele>
        <time>2018-07-21T17:42:27+02:00</time>
      </trkpt>
      <trkpt lat="45.38694" lon="4.63003">
        <ele>1126</ele>
        <time>2018-07-21T17:42:32+02:00</time>
      </trkpt>
      <trkpt lat="45.387" lon="4.62993">
        <ele>1130</ele>
        <time>2018-07-21T17:42:37+02:00</time>
      </trkpt>
      <trkpt lat="45.38705" lon="4.62981">
        <ele>1135</ele>
        <time>2018-07-21T17:42:42+02:00</time>
      </trkpt>
      <trkpt lat="45.38707" lon="4.62981">
        <ele>1135</ele>
        <time>2018-07-21T17:42:47+02:00</time>
      </trkpt>
      <trkpt lat="45.38716" lon="4.62965">
        <ele>1141</ele>
        <time>2018-07-21T17:42:52+02:00</time>
      </trkpt>
      <trkpt lat="45.3872" lon="4.62958">
        <ele>1144</ele>
        <time>2018-07-21T17:42:57+02:00</time>
      </trkpt>
      <trkpt lat="45.38727" lon="4.62954">
        <ele>1148</ele>
        <time>2018-07-21T17:43:02+02:00</time>
      </trkpt>
      <trkpt lat="45.38729" lon="4.62951">
        <ele>1149</ele>
        <time>2018-07-21T17:43:07+02:00</time>
      </trkpt>
      <trkpt lat="45.38733" lon="4.62951">
        <ele>1151</ele>
        <time>2018-07-21T17:43:12+02:00</time>
      </trkpt>
      <trkpt lat="45.38736" lon="4.6295">
        <ele>1152</ele>
        <time>2018-07-21T17:43:17+02:00</time>
      </trkpt>
      <trkpt lat="45.38738" lon="4.62951">
        <ele>1152</ele>
        <time>2018-07-21T17:43:22+02:00</time>
      </trkpt>
      <trkpt lat="45.38744" lon="4.62947">
        <ele>1156</ele>
        <time>2018-07-21T17:43:27+02:00</time>
      </trkpt>
      <trkpt lat="45.38746" lon="4.62941">
        <ele>1157</ele>
        <time>2018-07-21T17:43:32+02:00</time>
      </trkpt>
      <trkpt lat="45.38749" lon="4.62939">
        <ele>1159</ele>
        <time>2018-07-21T17:43:37+02:00</time>
      </trkpt>
      <trkpt lat="45.38752" lon="4.62934">
        <ele>1160</ele>
        <time>2018-07-21T17:43:42+02:00</time>
      </trkpt>
      <trkpt lat="45.38753" lon="4.62928">
        <ele>1162</ele>
        <time>2018-07-21T17:43:47+02:00</time>
      </trkpt>
      <trkpt lat="45.38754" lon="4.62921">
        <ele>1163</ele>
        <time>2018-07-21T17:43:52+02:00</time>
      </trkpt>
      <trkpt lat="45.38755" lon="4.62917">
        <ele>1177</ele>
        <time>2018-07-21T17:43:57+02:00</time>
      </trkpt>
      <trkpt lat="45.38763" lon="4.62906">
        <ele>1166</ele>
        <time>2018-07-21T17:44:02+02:00</time>
      </trkpt>
      <trkpt lat="45.38768" lon="4.62897">
        <ele>1168</ele>
        <time>2018-07-21T17:44:07+02:00</time>
      </trkpt>
      <trkpt lat="45.3877" lon="4.62894">
        <ele>1168</ele>
        <time>2018-07-21T17:44:12+02:00</time>
      </trkpt>
      <trkpt lat="45.38775" lon="4.62887">
        <ele>1170</ele>
        <time>2018-07-21T17:44:17+02:00</time>
      </trkpt>
      <trkpt lat="45.38781" lon="4.62881">
        <ele>1171</ele>
        <time>2018-07-21T17:44:22+02:00</time>
      </trkpt>
      <trkpt lat="45.38785" lon="4.62874">
        <ele>1173</ele>
        <time>2018-07-21T17:44:27+02:00</time>
      </trkpt>
      <trkpt lat="45.38786" lon="4.62864">
        <ele>1174</ele>
        <time>2018-07-21T17:44:32+02:00</time>
      </trkpt>
      <trkpt lat="45.38782" lon="4.62855">
        <ele>1174</ele>
        <time>2018-07-21T17:44:37+02:00</time>
      </trkpt>
      <trkpt lat="45.38779" lon="4.62846">
        <ele>1174</ele>
        <time>2018-07-21T17:44:42+02:00</time>
      </trkpt>
      <trkpt lat="45.38777" lon="4.62839">
        <ele>1175</ele>
        <time>2018-07-21T17:44:47+02:00</time>
      </trkpt>
      <trkpt lat="45.38779" lon="4.62831">
        <ele>1175</ele>
        <time>2018-07-21T17:44:52+02:00</time>
      </trkpt>
      <trkpt lat="45.38779" lon="4.62825">
        <ele>1175</ele>
        <time>2018-07-21T17:44:57+02:00</time>
      </trkpt>
      <trkpt lat="45.38778" lon="4.62818">
        <ele>1174</ele>
        <time>2018-07-21T17:45:02+02:00</time>
      </trkpt>
      <trkpt lat="45.38773" lon="4.62816">
        <ele>1173</ele>
        <time>2018-07-21T17:45:07+02:00</time>
      </trkpt>
      <trkpt lat="45.38768" lon="4.6281">
        <ele>1172</ele>
        <time>2018-07-21T17:45:12+02:00</time>
      </trkpt>
      <trkpt lat="45.38767" lon="4.62799">
        <ele>1171</ele>
        <time>2018-07-21T17:45:17+02:00</time>
      </trkpt>
      <trkpt lat="45.38767" lon="4.62798">
        <ele>1171</ele>
        <time>2018-07-21T17:45:22+02:00</time>
      </trkpt>
      <trkpt lat="45.38768" lon="4.62796">
        <ele>1171</ele>
        <time>2018-07-21T17:45:27+02:00</time>
      </trkpt>
      <trkpt lat="45.38768" lon="4.62777">
        <ele>1169</ele>
        <time>2018-07-21T17:45:32+02:00</time>
      </trkpt>
      <trkpt lat="45.38769" lon="4.62774">
        <ele>1169</ele>
        <time>2018-07-21T17:45:37+02:00</time>
      </trkpt>
      <trkpt lat="45.38773" lon="4.62768">
        <ele>1170</ele>
        <time>2018-07-21T17:45:42+02:00</time>
      </trkpt>
      <trkpt lat="45.38776" lon="4.62763">
        <ele>1170</ele>
        <time>2018-07-21T17:45:47+02:00</time>
      </trkpt>
      <trkpt lat="45.38779" lon="4.62759">
        <ele>1171</ele>
        <time>2018-07-21T17:45:52+02:00</time>
      </trkpt>
      <trkpt lat="45.38777" lon="4.62751">
        <ele>1170</ele>
        <time>2018-07-21T17:45:57+02:00</time>
      </trkpt>
      <trkpt lat="45.38779" lon="4.62746">
        <ele>1170</ele>
        <time>2018-07-21T17:46:02+02:00</time>
      </trkpt>
      <trkpt lat="45.38782" lon="4.62741">
        <ele>1170</ele>
        <time>2018-07-21T17:46:07+02:00</time>
      </trkpt>
      <trkpt lat="45.38785" lon="4.62737">
        <ele>1170</ele>
        <time>2018-07-21T17:46:12+02:00</time>
      </trkpt>
      <trkpt lat="45.38788" lon="4.62735">
        <ele>1170</ele>
        <time>2018-07-21T17:46:17+02:00</time>
      </trkpt>
      <trkpt lat="45.38792" lon="4.6273">
        <ele>1171</ele>
        <time>2018-07-21T17:46:22+02:00</time>
      </trkpt>
      <trkpt lat="45.38795" lon="4.62725">
        <ele>1171</ele>
        <time>2018-07-21T17:46:27+02:00</time>
      </trkpt>
      <trkpt lat="45.38799" lon="4.62717">
        <ele>1171</ele>
        <time>2018-07-21T17:46:32+02:00</time>
      </trkpt>
      <trkpt lat="45.38804" lon="4.62713">
        <ele>1172</ele>
        <time>2018-07-21T17:46:37+02:00</time>
      </trkpt>
      <trkpt lat="45.38808" lon="4.62711">
        <ele>1173</ele>
        <time>2018-07-21T17:46:42+02:00</time>
      </trkpt>
      <trkpt lat="45.38813" lon="4.62707">
        <ele>1174</ele>
        <time>2018-07-21T17:46:47+02:00</time>
      </trkpt>
      <trkpt lat="45.38817" lon="4.62707">
        <ele>1175</ele>
        <time>2018-07-21T17:46:52+02:00</time>
      </trkpt>
      <trkpt lat="45.38821" lon="4.62706">
        <ele>1176</ele>
        <time>2018-07-21T17:46:57+02:00</time>
      </trkpt>
      <trkpt lat="45.38825" lon="4.62704">
        <ele>1177</ele>
        <time>2018-07-21T17:47:02+02:00</time>
      </trkpt>
      <trkpt lat="45.38828" lon="4.62704">
        <ele>1178</ele>
        <time>2018-07-21T17:47:07+02:00</time>
      </trkpt>
      <trkpt lat="45.38832" lon="4.62701">
        <ele>1179</ele>
        <time>2018-07-21T17:47:12+02:00</time>
      </trkpt>
      <trkpt lat="45.38838" lon="4.62696">
        <ele>1179</ele>
        <time>2018-07-21T17:47:17+02:00</time>
      </trkpt>
      <trkpt lat="45.38842" lon="4.62694">
        <ele>1179</ele>
        <time>2018-07-21T17:47:22+02:00</time>
      </trkpt>
      <trkpt lat="45.38845" lon="4.62691">
        <ele>1179</ele>
        <time>2018-07-21T17:47:27+02:00</time>
      </trkpt>
      <trkpt lat="45.38846" lon="4.62687">
        <ele>1178</ele>
        <time>2018-07-21T17:47:32+02:00</time>
      </trkpt>
      <trkpt lat="45.38849" lon="4.62678">
        <ele>1178</ele>
        <time>2018-07-21T17:47:37+02:00</time>
      </trkpt>
      <trkpt lat="45.3885" lon="4.62672">
        <ele>1177</ele>
        <time>2018-07-21T17:47:42+02:00</time>
      </trkpt>
      <trkpt lat="45.38851" lon="4.62665">
        <ele>1177</ele>
        <time>2018-07-21T17:47:47+02:00</time>
      </trkpt>
      <trkpt lat="45.38851" lon="4.62664">
        <ele>1177</ele>
        <time>2018-07-21T17:47:52+02:00</time>
      </trkpt>
      <trkpt lat="45.38854" lon="4.62656">
        <ele>1176</ele>
        <time>2018-07-21T17:47:57+02:00</time>
      </trkpt>
      <trkpt lat="45.38858" lon="4.62652">
        <ele>1176</ele>
        <time>2018-07-21T17:48:02+02:00</time>
      </trkpt>
      <trkpt lat="45.38861" lon="4.62648">
        <ele>1175</ele>
        <time>2018-07-21T17:48:07+02:00</time>
      </trkpt>
      <trkpt lat="45.38865" lon="4.62642">
        <ele>1175</ele>
        <time>2018-07-21T17:48:12+02:00</time>
      </trkpt>
      <trkpt lat="45.3887" lon="4.62641">
        <ele>1176</ele>
        <time>2018-07-21T17:48:17+02:00</time>
      </trkpt>
      <trkpt lat="45.38875" lon="4.62636">
        <ele>1176</ele>
        <time>2018-07-21T17:48:22+02:00</time>
      </trkpt>
      <trkpt lat="45.38881" lon="4.62625">
        <ele>1176</ele>
        <time>2018-07-21T17:48:27+02:00</time>
      </trkpt>
      <trkpt lat="45.38901" lon="4.62594">
        <ele>1177</ele>
        <time>2018-07-21T17:48:32+02:00</time>
      </trkpt>
      <trkpt lat="45.38924" lon="4.62559">
        <ele>1176</ele>
        <time>2018-07-21T17:48:37+02:00</time>
      </trkpt>
      <trkpt lat="45.38923" lon="4.62559">
        <ele>1177</ele>
        <time>2018-07-21T17:48:42+02:00</time>
      </trkpt>
      <trkpt lat="45.38927" lon="4.62554">
        <ele>1175</ele>
        <time>2018-07-21T17:48:47+02:00</time>
      </trkpt>
      <trkpt lat="45.3893" lon="4.62546">
        <ele>1174</ele>
        <time>2018-07-21T17:48:52+02:00</time>
      </trkpt>
      <trkpt lat="45.38931" lon="4.62543">
        <ele>1173</ele>
        <time>2018-07-21T17:48:57+02:00</time>
      </trkpt>
      <trkpt lat="45.38928" lon="4.6253">
        <ele>1174</ele>
        <time>2018-07-21T17:49:02+02:00</time>
      </trkpt>
      <trkpt lat="45.38926" lon="4.62529">
        <ele>1174</ele>
        <time>2018-07-21T17:49:07+02:00</time>
      </trkpt>
      <trkpt lat="45.38924" lon="4.62523">
        <ele>1175</ele>
        <time>2018-07-21T17:49:12+02:00</time>
      </trkpt>
      <trkpt lat="45.38928" lon="4.62516">
        <ele>1173</ele>
        <time>2018-07-21T17:49:17+02:00</time>
      </trkpt>
      <trkpt lat="45.3893" lon="4.62514">
        <ele>1172</ele>
        <time>2018-07-21T17:49:22+02:00</time>
      </trkpt>
      <trkpt lat="45.38931" lon="4.6251">
        <ele>1172</ele>
        <time>2018-07-21T17:49:27+02:00</time>
      </trkpt>
      <trkpt lat="45.38926" lon="4.62502">
        <ele>1173</ele>
        <time>2018-07-21T17:49:32+02:00</time>
      </trkpt>
      <trkpt lat="45.38926" lon="4.62496">
        <ele>1173</ele>
        <time>2018-07-21T17:49:37+02:00</time>
      </trkpt>
      <trkpt lat="45.38928" lon="4.62488">
        <ele>1172</ele>
        <time>2018-07-21T17:49:42+02:00</time>
      </trkpt>
      <trkpt lat="45.38928" lon="4.62483">
        <ele>1171</ele>
        <time>2018-07-21T17:49:47+02:00</time>
      </trkpt>
      <trkpt lat="45.38932" lon="4.62476">
        <ele>1170</ele>
        <time>2018-07-21T17:49:52+02:00</time>
      </trkpt>
      <trkpt lat="45.38932" lon="4.62471">
        <ele>1170</ele>
        <time>2018-07-21T17:49:57+02:00</time>
      </trkpt>
      <trkpt lat="45.38931" lon="4.62464">
        <ele>1169</ele>
        <time>2018-07-21T17:50:02+02:00</time>
      </trkpt>
      <trkpt lat="45.3893" lon="4.62461">
        <ele>1170</ele>
        <time>2018-07-21T17:50:07+02:00</time>
      </trkpt>
      <trkpt lat="45.38931" lon="4.62456">
        <ele>1169</ele>
        <time>2018-07-21T17:50:12+02:00</time>
      </trkpt>
      <trkpt lat="45.38928" lon="4.62448">
        <ele>1170</ele>
        <time>2018-07-21T17:50:17+02:00</time>
      </trkpt>
      <trkpt lat="45.38928" lon="4.62452">
        <ele>1170</ele>
        <time>2018-07-21T17:50:22+02:00</time>
      </trkpt>
      <trkpt lat="45.38924" lon="4.62454">
        <ele>1171</ele>
        <time>2018-07-21T17:50:27+02:00</time>
      </trkpt>
      <trkpt lat="45.38921" lon="4.62456">
        <ele>1172</ele>
        <time>2018-07-21T17:50:32+02:00</time>
      </trkpt>
      <trkpt lat="45.38919" lon="4.62454">
        <ele>1173</ele>
        <time>2018-07-21T17:50:37+02:00</time>
      </trkpt>
      <trkpt lat="45.38918" lon="4.62451">
        <ele>1173</ele>
        <time>2018-07-21T17:50:42+02:00</time>
      </trkpt>
      <trkpt lat="45.38913" lon="4.62452">
        <ele>1173</ele>
        <time>2018-07-21T17:50:47+02:00</time>
      </trkpt>
      <trkpt lat="45.38913" lon="4.62452">
        <ele>1173</ele>
        <time>2018-07-21T17:50:52+02:00</time>
      </trkpt>
      <trkpt lat="45.38909" lon="4.62449">
        <ele>1171</ele>
        <time>2018-07-21T17:50:57+02:00</time>
      </trkpt>
      <trkpt lat="45.38908" lon="4.62447">
        <ele>1171</ele>
        <time>2018-07-21T17:51:02+02:00</time>
      </trkpt>
      <trkpt lat="45.38909" lon="4.62439">
        <ele>1171</ele>
        <time>2018-07-21T17:51:07+02:00</time>
      </trkpt>
      <trkpt lat="45.38908" lon="4.62423">
        <ele>1169</ele>
        <time>2018-07-21T17:51:12+02:00</time>
      </trkpt>
      <trkpt lat="45.38907" lon="4.62409">
        <ele>1168</ele>
        <time>2018-07-21T17:51:17+02:00</time>
      </trkpt>
      <trkpt lat="45.38909" lon="4.62399">
        <ele>1168</ele>
        <time>2018-07-21T17:51:22+02:00</time>
      </trkpt>
      <trkpt lat="45.38911" lon="4.62389">
        <ele>1168</ele>
        <time>2018-07-21T17:51:27+02:00</time>
      </trkpt>
      <trkpt lat="45.38913" lon="4.6238">
        <ele>1168</ele>
        <time>2018-07-21T17:51:32+02:00</time>
      </trkpt>
      <trkpt lat="45.38917" lon="4.62372">
        <ele>1168</ele>
        <time>2018-07-21T17:51:37+02:00</time>
      </trkpt>
      <trkpt lat="45.38922" lon="4.62366">
        <ele>1166</ele>
        <time>2018-07-21T17:51:42+02:00</time>
      </trkpt>
      <trkpt lat="45.38926" lon="4.62362">
        <ele>1164</ele>
        <time>2018-07-21T17:51:47+02:00</time>
      </trkpt>
      <trkpt lat="45.38929" lon="4.62358">
        <ele>1163</ele>
        <time>2018-07-21T17:51:52+02:00</time>
      </trkpt>
      <trkpt lat="45.38932" lon="4.62356">
        <ele>1162</ele>
        <time>2018-07-21T17:51:57+02:00</time>
      </trkpt>
      <trkpt lat="45.38933" lon="4.62353">
        <ele>1161</ele>
        <time>2018-07-21T17:52:02+02:00</time>
      </trkpt>
      <trkpt lat="45.38931" lon="4.62345">
        <ele>1161</ele>
        <time>2018-07-21T17:52:07+02:00</time>
      </trkpt>
      <trkpt lat="45.3893" lon="4.62344">
        <ele>1161</ele>
        <time>2018-07-21T17:52:12+02:00</time>
      </trkpt>
      <trkpt lat="45.3893" lon="4.62336">
        <ele>1161</ele>
        <time>2018-07-21T17:52:17+02:00</time>
      </trkpt>
      <trkpt lat="45.38931" lon="4.62331">
        <ele>1160</ele>
        <time>2018-07-21T17:52:22+02:00</time>
      </trkpt>
      <trkpt lat="45.38928" lon="4.62322">
        <ele>1160</ele>
        <time>2018-07-21T17:52:27+02:00</time>
      </trkpt>
      <trkpt lat="45.38927" lon="4.62312">
        <ele>1160</ele>
        <time>2018-07-21T17:52:32+02:00</time>
      </trkpt>
      <trkpt lat="45.38926" lon="4.62308">
        <ele>1160</ele>
        <time>2018-07-21T17:52:37+02:00</time>
      </trkpt>
      <trkpt lat="45.38929" lon="4.62299">
        <ele>1158</ele>
        <time>2018-07-21T17:52:42+02:00</time>
      </trkpt>
      <trkpt lat="45.38928" lon="4.62293">
        <ele>1158</ele>
        <time>2018-07-21T17:52:47+02:00</time>
      </trkpt>
      <trkpt lat="45.38926" lon="4.62281">
        <ele>1158</ele>
        <time>2018-07-21T17:52:52+02:00</time>
      </trkpt>
      <trkpt lat="45.38925" lon="4.62271">
        <ele>1158</ele>
        <time>2018-07-21T17:52:57+02:00</time>
      </trkpt>
      <trkpt lat="45.38921" lon="4.62258">
        <ele>1158</ele>
        <time>2018-07-21T17:53:02+02:00</time>
      </trkpt>
      <trkpt lat="45.38919" lon="4.62246">
        <ele>1159</ele>
        <time>2018-07-21T17:53:07+02:00</time>
      </trkpt>
      <trkpt lat="45.38918" lon="4.62245">
        <ele>1159</ele>
        <time>2018-07-21T17:53:12+02:00</time>
      </trkpt>
      <trkpt lat="45.38916" lon="4.62239">
        <ele>1160</ele>
        <time>2018-07-21T17:53:17+02:00</time>
      </trkpt>
      <trkpt lat="45.38915" lon="4.62234">
        <ele>1160</ele>
        <time>2018-07-21T17:53:22+02:00</time>
      </trkpt>
      <trkpt lat="45.38915" lon="4.62226">
        <ele>1160</ele>
        <time>2018-07-21T17:53:27+02:00</time>
      </trkpt>
      <trkpt lat="45.38916" lon="4.62212">
        <ele>1161</ele>
        <time>2018-07-21T17:53:32+02:00</time>
      </trkpt>
      <trkpt lat="45.38917" lon="4.62209">
        <ele>1161</ele>
        <time>2018-07-21T17:53:37+02:00</time>
      </trkpt>
      <trkpt lat="45.38919" lon="4.62198">
        <ele>1161</ele>
        <time>2018-07-21T17:53:42+02:00</time>
      </trkpt>
      <trkpt lat="45.38919" lon="4.62191">
        <ele>1162</ele>
        <time>2018-07-21T17:53:47+02:00</time>
      </trkpt>
      <trkpt lat="45.38916" lon="4.62186">
        <ele>1163</ele>
        <time>2018-07-21T17:53:52+02:00</time>
      </trkpt>
      <trkpt lat="45.38915" lon="4.62181">
        <ele>1163</ele>
        <time>2018-07-21T17:53:57+02:00</time>
      </trkpt>
      <trkpt lat="45.38915" lon="4.62173">
        <ele>1163</ele>
        <time>2018-07-21T17:54:02+02:00</time>
      </trkpt>
      <trkpt lat="45.38915" lon="4.62166">
        <ele>1164</ele>
        <time>2018-07-21T17:54:07+02:00</time>
      </trkpt>
      <trkpt lat="45.38914" lon="4.62159">
        <ele>1165</ele>
        <time>2018-07-21T17:54:12+02:00</time>
      </trkpt>
      <trkpt lat="45.38911" lon="4.62155">
        <ele>1166</ele>
        <time>2018-07-21T17:54:17+02:00</time>
      </trkpt>
      <trkpt lat="45.38909" lon="4.62148">
        <ele>1166</ele>
        <time>2018-07-21T17:54:22+02:00</time>
      </trkpt>
      <trkpt lat="45.38906" lon="4.62146">
        <ele>1167</ele>
        <time>2018-07-21T17:54:27+02:00</time>
      </trkpt>
      <trkpt lat="45.38904" lon="4.6214">
        <ele>1167</ele>
        <time>2018-07-21T17:54:32+02:00</time>
      </trkpt>
      <trkpt lat="45.38903" lon="4.62135">
        <ele>1168</ele>
        <time>2018-07-21T17:54:37+02:00</time>
      </trkpt>
      <trkpt lat="45.389" lon="4.62131">
        <ele>1169</ele>
        <time>2018-07-21T17:54:42+02:00</time>
      </trkpt>
      <trkpt lat="45.38898" lon="4.62122">
        <ele>1170</ele>
        <time>2018-07-21T17:54:47+02:00</time>
      </trkpt>
      <trkpt lat="45.38898" lon="4.62117">
        <ele>1171</ele>
        <time>2018-07-21T17:54:52+02:00</time>
      </trkpt>
      <trkpt lat="45.38896" lon="4.62112">
        <ele>1172</ele>
        <time>2018-07-21T17:54:57+02:00</time>
      </trkpt>
      <trkpt lat="45.38889" lon="4.62106">
        <ele>1172</ele>
        <time>2018-07-21T17:55:02+02:00</time>
      </trkpt>
      <trkpt lat="45.38883" lon="4.62103">
        <ele>1173</ele>
        <time>2018-07-21T17:55:07+02:00</time>
      </trkpt>
      <trkpt lat="45.38879" lon="4.62101">
        <ele>1173</ele>
        <time>2018-07-21T17:55:12+02:00</time>
      </trkpt>
      <trkpt lat="45.38873" lon="4.62096">
        <ele>1173</ele>
        <time>2018-07-21T17:55:17+02:00</time>
      </trkpt>
      <trkpt lat="45.38869" lon="4.62092">
        <ele>1174</ele>
        <time>2018-07-21T17:55:22+02:00</time>
      </trkpt>
      <trkpt lat="45.38865" lon="4.62087">
        <ele>1175</ele>
        <time>2018-07-21T17:55:27+02:00</time>
      </trkpt>
      <trkpt lat="45.38859" lon="4.62081">
        <ele>1176</ele>
        <time>2018-07-21T17:55:32+02:00</time>
      </trkpt>
      <trkpt lat="45.38857" lon="4.62077">
        <ele>1176</ele>
        <time>2018-07-21T17:55:37+02:00</time>
      </trkpt>
      <trkpt lat="45.38852" lon="4.62073">
        <ele>1177</ele>
        <time>2018-07-21T17:55:42+02:00</time>
      </trkpt>
      <trkpt lat="45.38849" lon="4.62071">
        <ele>1178</ele>
        <time>2018-07-21T17:55:47+02:00</time>
      </trkpt>
      <trkpt lat="45.38843" lon="4.6207">
        <ele>1178</ele>
        <time>2018-07-21T17:55:52+02:00</time>
      </trkpt>
      <trkpt lat="45.38839" lon="4.62068">
        <ele>1179</ele>
        <time>2018-07-21T17:55:57+02:00</time>
      </trkpt>
      <trkpt lat="45.38835" lon="4.6206">
        <ele>1181</ele>
        <time>2018-07-21T17:56:02+02:00</time>
      </trkpt>
      <trkpt lat="45.38832" lon="4.62054">
        <ele>1182</ele>
        <time>2018-07-21T17:56:07+02:00</time>
      </trkpt>
      <trkpt lat="45.38829" lon="4.62049">
        <ele>1183</ele>
        <time>2018-07-21T17:56:12+02:00</time>
      </trkpt>
      <trkpt lat="45.38827" lon="4.62049">
        <ele>1183</ele>
        <time>2018-07-21T17:56:17+02:00</time>
      </trkpt>
      <trkpt lat="45.38823" lon="4.62047">
        <ele>1182</ele>
        <time>2018-07-21T17:56:22+02:00</time>
      </trkpt>
      <trkpt lat="45.38818" lon="4.62041">
        <ele>1183</ele>
        <time>2018-07-21T17:56:27+02:00</time>
      </trkpt>
      <trkpt lat="45.38815" lon="4.62037">
        <ele>1184</ele>
        <time>2018-07-21T17:56:32+02:00</time>
      </trkpt>
      <trkpt lat="45.38812" lon="4.62033">
        <ele>1184</ele>
        <time>2018-07-21T17:56:37+02:00</time>
      </trkpt>
      <trkpt lat="45.38809" lon="4.6203">
        <ele>1185</ele>
        <time>2018-07-21T17:56:42+02:00</time>
      </trkpt>
      <trkpt lat="45.38806" lon="4.62026">
        <ele>1185</ele>
        <time>2018-07-21T17:56:47+02:00</time>
      </trkpt>
      <trkpt lat="45.38802" lon="4.62017">
        <ele>1187</ele>
        <time>2018-07-21T17:56:52+02:00</time>
      </trkpt>
      <trkpt lat="45.38799" lon="4.6201">
        <ele>1188</ele>
        <time>2018-07-21T17:56:57+02:00</time>
      </trkpt>
      <trkpt lat="45.38797" lon="4.62003">
        <ele>1190</ele>
        <time>2018-07-21T17:57:02+02:00</time>
      </trkpt>
      <trkpt lat="45.38792" lon="4.61997">
        <ele>1190</ele>
        <time>2018-07-21T17:57:07+02:00</time>
      </trkpt>
      <trkpt lat="45.3879" lon="4.61994">
        <ele>1190</ele>
        <time>2018-07-21T17:57:12+02:00</time>
      </trkpt>
      <trkpt lat="45.38786" lon="4.61987">
        <ele>1191</ele>
        <time>2018-07-21T17:57:17+02:00</time>
      </trkpt>
      <trkpt lat="45.38783" lon="4.61983">
        <ele>1191</ele>
        <time>2018-07-21T17:57:22+02:00</time>
      </trkpt>
      <trkpt lat="45.38776" lon="4.61978">
        <ele>1191</ele>
        <time>2018-07-21T17:57:27+02:00</time>
      </trkpt>
      <trkpt lat="45.38773" lon="4.61973">
        <ele>1192</ele>
        <time>2018-07-21T17:57:32+02:00</time>
      </trkpt>
      <trkpt lat="45.38767" lon="4.61969">
        <ele>1191</ele>
        <time>2018-07-21T17:57:37+02:00</time>
      </trkpt>
      <trkpt lat="45.38763" lon="4.61963">
        <ele>1192</ele>
        <time>2018-07-21T17:57:42+02:00</time>
      </trkpt>
      <trkpt lat="45.3876" lon="4.61958">
        <ele>1192</ele>
        <time>2018-07-21T17:57:47+02:00</time>
      </trkpt>
      <trkpt lat="45.3876" lon="4.6195">
        <ele>1194</ele>
        <time>2018-07-21T17:57:52+02:00</time>
      </trkpt>
      <trkpt lat="45.38757" lon="4.6194">
        <ele>1196</ele>
        <time>2018-07-21T17:57:57+02:00</time>
      </trkpt>
      <trkpt lat="45.38749" lon="4.61942">
        <ele>1194</ele>
        <time>2018-07-21T17:58:02+02:00</time>
      </trkpt>
      <trkpt lat="45.38743" lon="4.61948">
        <ele>1191</ele>
        <time>2018-07-21T17:58:07+02:00</time>
      </trkpt>
      <trkpt lat="45.38739" lon="4.61948">
        <ele>1190</ele>
        <time>2018-07-21T17:58:12+02:00</time>
      </trkpt>
      <trkpt lat="45.38735" lon="4.61946">
        <ele>1190</ele>
        <time>2018-07-21T17:58:17+02:00</time>
      </trkpt>
      <trkpt lat="45.38733" lon="4.61946">
        <ele>1189</ele>
        <time>2018-07-21T17:58:22+02:00</time>
      </trkpt>
      <trkpt lat="45.3873" lon="4.61941">
        <ele>1190</ele>
        <time>2018-07-21T17:58:27+02:00</time>
      </trkpt>
      <trkpt lat="45.38722" lon="4.61933">
        <ele>1190</ele>
        <time>2018-07-21T17:58:32+02:00</time>
      </trkpt>
      <trkpt lat="45.3872" lon="4.61929">
        <ele>1191</ele>
        <time>2018-07-21T17:58:37+02:00</time>
      </trkpt>
      <trkpt lat="45.38718" lon="4.61923">
        <ele>1192</ele>
        <time>2018-07-21T17:58:42+02:00</time>
      </trkpt>
      <trkpt lat="45.38718" lon="4.61916">
        <ele>1194</ele>
        <time>2018-07-21T17:58:47+02:00</time>
      </trkpt>
      <trkpt lat="45.38716" lon="4.6191">
        <ele>1195</ele>
        <time>2018-07-21T17:58:52+02:00</time>
      </trkpt>
      <trkpt lat="45.38714" lon="4.61906">
        <ele>1196</ele>
        <time>2018-07-21T17:58:57+02:00</time>
      </trkpt>
      <trkpt lat="45.38711" lon="4.61906">
        <ele>1195</ele>
        <time>2018-07-21T17:59:02+02:00</time>
      </trkpt>
      <trkpt lat="45.38705" lon="4.61899">
        <ele>1196</ele>
        <time>2018-07-21T17:59:07+02:00</time>
      </trkpt>
      <trkpt lat="45.38699" lon="4.61895">
        <ele>1196</ele>
        <time>2018-07-21T17:59:12+02:00</time>
      </trkpt>
      <trkpt lat="45.38692" lon="4.61892">
        <ele>1195</ele>
        <time>2018-07-21T17:59:17+02:00</time>
      </trkpt>
      <trkpt lat="45.38687" lon="4.6189">
        <ele>1195</ele>
        <time>2018-07-21T17:59:22+02:00</time>
      </trkpt>
      <trkpt lat="45.38681" lon="4.61886">
        <ele>1195</ele>
        <time>2018-07-21T17:59:27+02:00</time>
      </trkpt>
      <trkpt lat="45.38676" lon="4.6188">
        <ele>1196</ele>
        <time>2018-07-21T17:59:32+02:00</time>
      </trkpt>
      <trkpt lat="45.38672" lon="4.61874">
        <ele>1197</ele>
        <time>2018-07-21T17:59:37+02:00</time>
      </trkpt>
      <trkpt lat="45.38666" lon="4.61873">
        <ele>1196</ele>
        <time>2018-07-21T17:59:42+02:00</time>
      </trkpt>
      <trkpt lat="45.38659" lon="4.61873">
        <ele>1195</ele>
        <time>2018-07-21T17:59:47+02:00</time>
      </trkpt>
      <trkpt lat="45.38652" lon="4.61872">
        <ele>1194</ele>
        <time>2018-07-21T17:59:52+02:00</time>
      </trkpt>
      <trkpt lat="45.38646" lon="4.61868">
        <ele>1194</ele>
        <time>2018-07-21T17:59:57+02:00</time>
      </trkpt>
      <trkpt lat="45.3864" lon="4.61862">
        <ele>1195</ele>
        <time>2018-07-21T18:00:02+02:00</time>
      </trkpt>
      <trkpt lat="45.38636" lon="4.61856">
        <ele>1196</ele>
        <time>2018-07-21T18:00:07+02:00</time>
      </trkpt>
      <trkpt lat="45.3863" lon="4.6185">
        <ele>1197</ele>
        <time>2018-07-21T18:00:12+02:00</time>
      </trkpt>
      <trkpt lat="45.38627" lon="4.61846">
        <ele>1198</ele>
        <time>2018-07-21T18:00:17+02:00</time>
      </trkpt>
      <trkpt lat="45.38623" lon="4.61843">
        <ele>1198</ele>
        <time>2018-07-21T18:00:22+02:00</time>
      </trkpt>
      <trkpt lat="45.38618" lon="4.61839">
        <ele>1198</ele>
        <time>2018-07-21T18:00:27+02:00</time>
      </trkpt>
      <trkpt lat="45.38612" lon="4.61838">
        <ele>1198</ele>
        <time>2018-07-21T18:00:32+02:00</time>
      </trkpt>
      <trkpt lat="45.38607" lon="4.61833">
        <ele>1198</ele>
        <time>2018-07-21T18:00:37+02:00</time>
      </trkpt>
      <trkpt lat="45.38604" lon="4.61831">
        <ele>1198</ele>
        <time>2018-07-21T18:00:42+02:00</time>
      </trkpt>
      <trkpt lat="45.386" lon="4.61827">
        <ele>1198</ele>
        <time>2018-07-21T18:00:47+02:00</time>
      </trkpt>
      <trkpt lat="45.38597" lon="4.6182">
        <ele>1200</ele>
        <time>2018-07-21T18:00:52+02:00</time>
      </trkpt>
      <trkpt lat="45.38591" lon="4.61816">
        <ele>1200</ele>
        <time>2018-07-21T18:00:57+02:00</time>
      </trkpt>
      <trkpt lat="45.38586" lon="4.61811">
        <ele>1200</ele>
        <time>2018-07-21T18:01:02+02:00</time>
      </trkpt>
      <trkpt lat="45.38582" lon="4.61806">
        <ele>1200</ele>
        <time>2018-07-21T18:01:07+02:00</time>
      </trkpt>
      <trkpt lat="45.38577" lon="4.61801">
        <ele>1200</ele>
        <time>2018-07-21T18:01:12+02:00</time>
      </trkpt>
      <trkpt lat="45.38569" lon="4.61796">
        <ele>1199</ele>
        <time>2018-07-21T18:01:17+02:00</time>
      </trkpt>
      <trkpt lat="45.38564" lon="4.61793">
        <ele>1198</ele>
        <time>2018-07-21T18:01:22+02:00</time>
      </trkpt>
      <trkpt lat="45.38563" lon="4.61789">
        <ele>1198</ele>
        <time>2018-07-21T18:01:27+02:00</time>
      </trkpt>
      <trkpt lat="45.3856" lon="4.61786">
        <ele>1198</ele>
        <time>2018-07-21T18:01:32+02:00</time>
      </trkpt>
      <trkpt lat="45.38556" lon="4.61784">
        <ele>1197</ele>
        <time>2018-07-21T18:01:37+02:00</time>
      </trkpt>
      <trkpt lat="45.38553" lon="4.61777">
        <ele>1198</ele>
        <time>2018-07-21T18:01:42+02:00</time>
      </trkpt>
      <trkpt lat="45.38551" lon="4.61771">
        <ele>1198</ele>
        <time>2018-07-21T18:01:47+02:00</time>
      </trkpt>
      <trkpt lat="45.38549" lon="4.61767">
        <ele>1198</ele>
        <time>2018-07-21T18:01:52+02:00</time>
      </trkpt>
      <trkpt lat="45.38546" lon="4.61758">
        <ele>1199</ele>
        <time>2018-07-21T18:01:57+02:00</time>
      </trkpt>
      <trkpt lat="45.38542" lon="4.61751">
        <ele>1199</ele>
        <time>2018-07-21T18:02:02+02:00</time>
      </trkpt>
      <trkpt lat="45.38541" lon="4.61745">
        <ele>1199</ele>
        <time>2018-07-21T18:02:07+02:00</time>
      </trkpt>
      <trkpt lat="45.3854" lon="4.61738">
        <ele>1199</ele>
        <time>2018-07-21T18:02:12+02:00</time>
      </trkpt>
      <trkpt lat="45.3854" lon="4.61733">
        <ele>1199</ele>
        <time>2018-07-21T18:02:17+02:00</time>
      </trkpt>
      <trkpt lat="45.38538" lon="4.6173">
        <ele>1199</ele>
        <time>2018-07-21T18:02:22+02:00</time>
      </trkpt>
      <trkpt lat="45.3854" lon="4.61722">
        <ele>1200</ele>
        <time>2018-07-21T18:02:27+02:00</time>
      </trkpt>
      <trkpt lat="45.38539" lon="4.61713">
        <ele>1201</ele>
        <time>2018-07-21T18:02:32+02:00</time>
      </trkpt>
      <trkpt lat="45.38539" lon="4.61702">
        <ele>1201</ele>
        <time>2018-07-21T18:02:37+02:00</time>
      </trkpt>
      <trkpt lat="45.38539" lon="4.61694">
        <ele>1202</ele>
        <time>2018-07-21T18:02:42+02:00</time>
      </trkpt>
      <trkpt lat="45.38538" lon="4.61685">
        <ele>1202</ele>
        <time>2018-07-21T18:02:47+02:00</time>
      </trkpt>
      <trkpt lat="45.38535" lon="4.61674">
        <ele>1202</ele>
        <time>2018-07-21T18:02:52+02:00</time>
      </trkpt>
      <trkpt lat="45.38533" lon="4.61663">
        <ele>1202</ele>
        <time>2018-07-21T18:02:57+02:00</time>
      </trkpt>
      <trkpt lat="45.38528" lon="4.61655">
        <ele>1201</ele>
        <time>2018-07-21T18:03:02+02:00</time>
      </trkpt>
      <trkpt lat="45.38527" lon="4.61651">
        <ele>1201</ele>
        <time>2018-07-21T18:03:07+02:00</time>
      </trkpt>
      <trkpt lat="45.38522" lon="4.6164">
        <ele>1200</ele>
        <time>2018-07-21T18:03:12+02:00</time>
      </trkpt>
      <trkpt lat="45.38521" lon="4.61631">
        <ele>1201</ele>
        <time>2018-07-21T18:03:17+02:00</time>
      </trkpt>
      <trkpt lat="45.3852" lon="4.61622">
        <ele>1201</ele>
        <time>2018-07-21T18:03:22+02:00</time>
      </trkpt>
      <trkpt lat="45.38517" lon="4.61615">
        <ele>1201</ele>
        <time>2018-07-21T18:03:27+02:00</time>
      </trkpt>
      <trkpt lat="45.38516" lon="4.6161">
        <ele>1202</ele>
        <time>2018-07-21T18:03:32+02:00</time>
      </trkpt>
      <trkpt lat="45.38512" lon="4.61599">
        <ele>1202</ele>
        <time>2018-07-21T18:03:37+02:00</time>
      </trkpt>
      <trkpt lat="45.38509" lon="4.61597">
        <ele>1201</ele>
        <time>2018-07-21T18:03:42+02:00</time>
      </trkpt>
      <trkpt lat="45.38506" lon="4.61589">
        <ele>1201</ele>
        <time>2018-07-21T18:03:47+02:00</time>
      </trkpt>
      <trkpt lat="45.38502" lon="4.61581">
        <ele>1201</ele>
        <time>2018-07-21T18:03:52+02:00</time>
      </trkpt>
      <trkpt lat="45.38501" lon="4.61574">
        <ele>1202</ele>
        <time>2018-07-21T18:03:57+02:00</time>
      </trkpt>
      <trkpt lat="45.38501" lon="4.61573">
        <ele>1202</ele>
        <time>2018-07-21T18:04:02+02:00</time>
      </trkpt>
      <trkpt lat="45.38492" lon="4.61562">
        <ele>1201</ele>
        <time>2018-07-21T18:04:07+02:00</time>
      </trkpt>
      <trkpt lat="45.38485" lon="4.61547">
        <ele>1201</ele>
        <time>2018-07-21T18:04:12+02:00</time>
      </trkpt>
      <trkpt lat="45.3849" lon="4.61508">
        <ele>1204</ele>
        <time>2018-07-21T18:04:17+02:00</time>
      </trkpt>
      <trkpt lat="45.38471" lon="4.61499">
        <ele>1203</ele>
        <time>2018-07-21T18:04:22+02:00</time>
      </trkpt>
      <trkpt lat="45.38464" lon="4.61496">
        <ele>1202</ele>
        <time>2018-07-21T18:04:27+02:00</time>
      </trkpt>
      <trkpt lat="45.38456" lon="4.61494">
        <ele>1201</ele>
        <time>2018-07-21T18:04:32+02:00</time>
      </trkpt>
      <trkpt lat="45.3845" lon="4.61491">
        <ele>1201</ele>
        <time>2018-07-21T18:04:37+02:00</time>
      </trkpt>
      <trkpt lat="45.38437" lon="4.61488">
        <ele>1200</ele>
        <time>2018-07-21T18:04:42+02:00</time>
      </trkpt>
      <trkpt lat="45.38429" lon="4.61485">
        <ele>1199</ele>
        <time>2018-07-21T18:04:47+02:00</time>
      </trkpt>
      <trkpt lat="45.38421" lon="4.61484">
        <ele>1199</ele>
        <time>2018-07-21T18:04:52+02:00</time>
      </trkpt>
      <trkpt lat="45.38413" lon="4.61484">
        <ele>1198</ele>
        <time>2018-07-21T18:04:57+02:00</time>
      </trkpt>
      <trkpt lat="45.38405" lon="4.61484">
        <ele>1198</ele>
        <time>2018-07-21T18:05:02+02:00</time>
      </trkpt>
      <trkpt lat="45.38398" lon="4.61482">
        <ele>1198</ele>
        <time>2018-07-21T18:05:07+02:00</time>
      </trkpt>
      <trkpt lat="45.38389" lon="4.61476">
        <ele>1197</ele>
        <time>2018-07-21T18:05:12+02:00</time>
      </trkpt>
      <trkpt lat="45.38384" lon="4.61472">
        <ele>1197</ele>
        <time>2018-07-21T18:05:17+02:00</time>
      </trkpt>
      <trkpt lat="45.38378" lon="4.61466">
        <ele>1197</ele>
        <time>2018-07-21T18:05:22+02:00</time>
      </trkpt>
      <trkpt lat="45.38371" lon="4.61463">
        <ele>1197</ele>
        <time>2018-07-21T18:05:27+02:00</time>
      </trkpt>
      <trkpt lat="45.38367" lon="4.6146">
        <ele>1197</ele>
        <time>2018-07-21T18:05:32+02:00</time>
      </trkpt>
      <trkpt lat="45.38358" lon="4.61455">
        <ele>1198</ele>
        <time>2018-07-21T18:05:37+02:00</time>
      </trkpt>
      <trkpt lat="45.38348" lon="4.6146">
        <ele>1197</ele>
        <time>2018-07-21T18:05:42+02:00</time>
      </trkpt>
      <trkpt lat="45.3834" lon="4.61457">
        <ele>1197</ele>
        <time>2018-07-21T18:05:47+02:00</time>
      </trkpt>
      <trkpt lat="45.38333" lon="4.61456">
        <ele>1197</ele>
        <time>2018-07-21T18:05:52+02:00</time>
      </trkpt>
      <trkpt lat="45.38326" lon="4.61455">
        <ele>1197</ele>
        <time>2018-07-21T18:05:57+02:00</time>
      </trkpt>
      <trkpt lat="45.38321" lon="4.61453">
        <ele>1197</ele>
        <time>2018-07-21T18:06:02+02:00</time>
      </trkpt>
      <trkpt lat="45.38314" lon="4.61452">
        <ele>1197</ele>
        <time>2018-07-21T18:06:07+02:00</time>
      </trkpt>
      <trkpt lat="45.38307" lon="4.61451">
        <ele>1197</ele>
        <time>2018-07-21T18:06:12+02:00</time>
      </trkpt>
      <trkpt lat="45.38302" lon="4.61449">
        <ele>1197</ele>
        <time>2018-07-21T18:06:17+02:00</time>
      </trkpt>
      <trkpt lat="45.38292" lon="4.61449">
        <ele>1197</ele>
        <time>2018-07-21T18:06:22+02:00</time>
      </trkpt>
      <trkpt lat="45.38287" lon="4.6145">
        <ele>1196</ele>
        <time>2018-07-21T18:06:27+02:00</time>
      </trkpt>
      <trkpt lat="45.38277" lon="4.61446">
        <ele>1197</ele>
        <time>2018-07-21T18:06:32+02:00</time>
      </trkpt>
      <trkpt lat="45.38269" lon="4.61447">
        <ele>1196</ele>
        <time>2018-07-21T18:06:37+02:00</time>
      </trkpt>
      <trkpt lat="45.38262" lon="4.61449">
        <ele>1196</ele>
        <time>2018-07-21T18:06:42+02:00</time>
      </trkpt>
      <trkpt lat="45.38253" lon="4.61449">
        <ele>1195</ele>
        <time>2018-07-21T18:06:47+02:00</time>
      </trkpt>
      <trkpt lat="45.38245" lon="4.6145">
        <ele>1195</ele>
        <time>2018-07-21T18:06:52+02:00</time>
      </trkpt>
      <trkpt lat="45.38239" lon="4.61448">
        <ele>1195</ele>
        <time>2018-07-21T18:06:57+02:00</time>
      </trkpt>
      <trkpt lat="45.38232" lon="4.61448">
        <ele>1195</ele>
        <time>2018-07-21T18:07:02+02:00</time>
      </trkpt>
      <trkpt lat="45.38227" lon="4.61452">
        <ele>1195</ele>
        <time>2018-07-21T18:07:07+02:00</time>
      </trkpt>
      <trkpt lat="45.3822" lon="4.61451">
        <ele>1195</ele>
        <time>2018-07-21T18:07:12+02:00</time>
      </trkpt>
      <trkpt lat="45.38211" lon="4.61452">
        <ele>1195</ele>
        <time>2018-07-21T18:07:17+02:00</time>
      </trkpt>
      <trkpt lat="45.38204" lon="4.61453">
        <ele>1195</ele>
        <time>2018-07-21T18:07:22+02:00</time>
      </trkpt>
      <trkpt lat="45.38196" lon="4.61451">
        <ele>1195</ele>
        <time>2018-07-21T18:07:27+02:00</time>
      </trkpt>
      <trkpt lat="45.38188" lon="4.61451">
        <ele>1195</ele>
        <time>2018-07-21T18:07:32+02:00</time>
      </trkpt>
      <trkpt lat="45.38183" lon="4.61454">
        <ele>1195</ele>
        <time>2018-07-21T18:07:37+02:00</time>
      </trkpt>
      <trkpt lat="45.38174" lon="4.61461">
        <ele>1194</ele>
        <time>2018-07-21T18:07:42+02:00</time>
      </trkpt>
      <trkpt lat="45.38172" lon="4.61466">
        <ele>1193</ele>
        <time>2018-07-21T18:07:47+02:00</time>
      </trkpt>
      <trkpt lat="45.38168" lon="4.61468">
        <ele>1193</ele>
        <time>2018-07-21T18:07:52+02:00</time>
      </trkpt>
      <trkpt lat="45.38165" lon="4.61473">
        <ele>1192</ele>
        <time>2018-07-21T18:07:57+02:00</time>
      </trkpt>
      <trkpt lat="45.38165" lon="4.6147">
        <ele>1192</ele>
        <time>2018-07-21T18:08:02+02:00</time>
      </trkpt>
      <trkpt lat="45.38162" lon="4.61467">
        <ele>1193</ele>
        <time>2018-07-21T18:08:07+02:00</time>
      </trkpt>
      <trkpt lat="45.38158" lon="4.61465">
        <ele>1193</ele>
        <time>2018-07-21T18:08:12+02:00</time>
      </trkpt>
      <trkpt lat="45.38154" lon="4.61462">
        <ele>1193</ele>
        <time>2018-07-21T18:08:17+02:00</time>
      </trkpt>
      <trkpt lat="45.38151" lon="4.61462">
        <ele>1193</ele>
        <time>2018-07-21T18:08:22+02:00</time>
      </trkpt>
      <trkpt lat="45.38146" lon="4.61461">
        <ele>1192</ele>
        <time>2018-07-21T18:08:27+02:00</time>
      </trkpt>
      <trkpt lat="45.38141" lon="4.6146">
        <ele>1192</ele>
        <time>2018-07-21T18:08:32+02:00</time>
      </trkpt>
      <trkpt lat="45.38134" lon="4.61458">
        <ele>1192</ele>
        <time>2018-07-21T18:08:37+02:00</time>
      </trkpt>
      <trkpt lat="45.38128" lon="4.61456">
        <ele>1191</ele>
        <time>2018-07-21T18:08:42+02:00</time>
      </trkpt>
      <trkpt lat="45.38124" lon="4.61459">
        <ele>1191</ele>
        <time>2018-07-21T18:08:47+02:00</time>
      </trkpt>
      <trkpt lat="45.38117" lon="4.61462">
        <ele>1190</ele>
        <time>2018-07-21T18:08:52+02:00</time>
      </trkpt>
      <trkpt lat="45.38111" lon="4.61464">
        <ele>1190</ele>
        <time>2018-07-21T18:08:57+02:00</time>
      </trkpt>
      <trkpt lat="45.38105" lon="4.61466">
        <ele>1189</ele>
        <time>2018-07-21T18:09:02+02:00</time>
      </trkpt>
      <trkpt lat="45.38096" lon="4.61467">
        <ele>1188</ele>
        <time>2018-07-21T18:09:07+02:00</time>
      </trkpt>
      <trkpt lat="45.38089" lon="4.61469">
        <ele>1188</ele>
        <time>2018-07-21T18:09:12+02:00</time>
      </trkpt>
      <trkpt lat="45.38081" lon="4.61471">
        <ele>1187</ele>
        <time>2018-07-21T18:09:17+02:00</time>
      </trkpt>
      <trkpt lat="45.38072" lon="4.61472">
        <ele>1187</ele>
        <time>2018-07-21T18:09:22+02:00</time>
      </trkpt>
      <trkpt lat="45.38065" lon="4.61473">
        <ele>1187</ele>
        <time>2018-07-21T18:09:27+02:00</time>
      </trkpt>
      <trkpt lat="45.3806" lon="4.61475">
        <ele>1186</ele>
        <time>2018-07-21T18:09:32+02:00</time>
      </trkpt>
      <trkpt lat="45.38053" lon="4.61478">
        <ele>1186</ele>
        <time>2018-07-21T18:09:37+02:00</time>
      </trkpt>
      <trkpt lat="45.38046" lon="4.6148">
        <ele>1186</ele>
        <time>2018-07-21T18:09:42+02:00</time>
      </trkpt>
      <trkpt lat="45.38039" lon="4.61482">
        <ele>1185</ele>
        <time>2018-07-21T18:09:47+02:00</time>
      </trkpt>
      <trkpt lat="45.38033" lon="4.61483">
        <ele>1185</ele>
        <time>2018-07-21T18:09:52+02:00</time>
      </trkpt>
      <trkpt lat="45.38028" lon="4.61487">
        <ele>1185</ele>
        <time>2018-07-21T18:09:57+02:00</time>
      </trkpt>
      <trkpt lat="45.38022" lon="4.61489">
        <ele>1185</ele>
        <time>2018-07-21T18:10:02+02:00</time>
      </trkpt>
      <trkpt lat="45.38015" lon="4.61494">
        <ele>1184</ele>
        <time>2018-07-21T18:10:07+02:00</time>
      </trkpt>
      <trkpt lat="45.38006" lon="4.61504">
        <ele>1183</ele>
        <time>2018-07-21T18:10:12+02:00</time>
      </trkpt>
      <trkpt lat="45.38001" lon="4.61505">
        <ele>1183</ele>
        <time>2018-07-21T18:10:17+02:00</time>
      </trkpt>
      <trkpt lat="45.37995" lon="4.61509">
        <ele>1183</ele>
        <time>2018-07-21T18:10:22+02:00</time>
      </trkpt>
      <trkpt lat="45.37988" lon="4.61512">
        <ele>1183</ele>
        <time>2018-07-21T18:10:27+02:00</time>
      </trkpt>
      <trkpt lat="45.37983" lon="4.61516">
        <ele>1183</ele>
        <time>2018-07-21T18:10:32+02:00</time>
      </trkpt>
      <trkpt lat="45.37977" lon="4.61515">
        <ele>1184</ele>
        <time>2018-07-21T18:10:37+02:00</time>
      </trkpt>
      <trkpt lat="45.37972" lon="4.61515">
        <ele>1184</ele>
        <time>2018-07-21T18:10:42+02:00</time>
      </trkpt>
      <trkpt lat="45.37964" lon="4.61514">
        <ele>1185</ele>
        <time>2018-07-21T18:10:47+02:00</time>
      </trkpt>
      <trkpt lat="45.37956" lon="4.61512">
        <ele>1186</ele>
        <time>2018-07-21T18:10:52+02:00</time>
      </trkpt>
      <trkpt lat="45.37947" lon="4.61507">
        <ele>1187</ele>
        <time>2018-07-21T18:10:57+02:00</time>
      </trkpt>
      <trkpt lat="45.37939" lon="4.61504">
        <ele>1188</ele>
        <time>2018-07-21T18:11:02+02:00</time>
      </trkpt>
      <trkpt lat="45.37926" lon="4.61499">
        <ele>1189</ele>
        <time>2018-07-21T18:11:07+02:00</time>
      </trkpt>
      <trkpt lat="45.37921" lon="4.61498">
        <ele>1190</ele>
        <time>2018-07-21T18:11:12+02:00</time>
      </trkpt>
      <trkpt lat="45.37919" lon="4.61495">
        <ele>1190</ele>
        <time>2018-07-21T18:11:17+02:00</time>
      </trkpt>
      <trkpt lat="45.37914" lon="4.61491">
        <ele>1190</ele>
        <time>2018-07-21T18:11:22+02:00</time>
      </trkpt>
      <trkpt lat="45.37903" lon="4.61485">
        <ele>1191</ele>
        <time>2018-07-21T18:11:27+02:00</time>
      </trkpt>
      <trkpt lat="45.37897" lon="4.61484">
        <ele>1191</ele>
        <time>2018-07-21T18:11:32+02:00</time>
      </trkpt>
      <trkpt lat="45.3789" lon="4.61481">
        <ele>1192</ele>
        <time>2018-07-21T18:11:37+02:00</time>
      </trkpt>
      <trkpt lat="45.37882" lon="4.61476">
        <ele>1192</ele>
        <time>2018-07-21T18:11:42+02:00</time>
      </trkpt>
      <trkpt lat="45.37874" lon="4.61475">
        <ele>1193</ele>
        <time>2018-07-21T18:11:47+02:00</time>
      </trkpt>
      <trkpt lat="45.37866" lon="4.61473">
        <ele>1193</ele>
        <time>2018-07-21T18:11:52+02:00</time>
      </trkpt>
      <trkpt lat="45.37861" lon="4.6147">
        <ele>1193</ele>
        <time>2018-07-21T18:11:57+02:00</time>
      </trkpt>
      <trkpt lat="45.37855" lon="4.61469">
        <ele>1194</ele>
        <time>2018-07-21T18:12:02+02:00</time>
      </trkpt>
      <trkpt lat="45.37848" lon="4.61467">
        <ele>1194</ele>
        <time>2018-07-21T18:12:07+02:00</time>
      </trkpt>
      <trkpt lat="45.37836" lon="4.61462">
        <ele>1195</ele>
        <time>2018-07-21T18:12:12+02:00</time>
      </trkpt>
      <trkpt lat="45.37825" lon="4.6146">
        <ele>1195</ele>
        <time>2018-07-21T18:12:17+02:00</time>
      </trkpt>
      <trkpt lat="45.37813" lon="4.61456">
        <ele>1195</ele>
        <time>2018-07-21T18:12:22+02:00</time>
      </trkpt>
      <trkpt lat="45.37804" lon="4.61452">
        <ele>1195</ele>
        <time>2018-07-21T18:12:27+02:00</time>
      </trkpt>
      <trkpt lat="45.37796" lon="4.61452">
        <ele>1195</ele>
        <time>2018-07-21T18:12:32+02:00</time>
      </trkpt>
      <trkpt lat="45.37787" lon="4.61452">
        <ele>1195</ele>
        <time>2018-07-21T18:12:37+02:00</time>
      </trkpt>
      <trkpt lat="45.37783" lon="4.61452">
        <ele>1196</ele>
        <time>2018-07-21T18:12:42+02:00</time>
      </trkpt>
      <trkpt lat="45.37777" lon="4.61452">
        <ele>1196</ele>
        <time>2018-07-21T18:12:47+02:00</time>
      </trkpt>
      <trkpt lat="45.37771" lon="4.61453">
        <ele>1196</ele>
        <time>2018-07-21T18:12:52+02:00</time>
      </trkpt>
      <trkpt lat="45.37766" lon="4.61454">
        <ele>1196</ele>
        <time>2018-07-21T18:12:57+02:00</time>
      </trkpt>
      <trkpt lat="45.37757" lon="4.61455">
        <ele>1197</ele>
        <time>2018-07-21T18:13:02+02:00</time>
      </trkpt>
      <trkpt lat="45.37756" lon="4.61455">
        <ele>1197</ele>
        <time>2018-07-21T18:13:07+02:00</time>
      </trkpt>
      <trkpt lat="45.37745" lon="4.61456">
        <ele>1197</ele>
        <time>2018-07-21T18:13:12+02:00</time>
      </trkpt>
      <trkpt lat="45.37742" lon="4.61456">
        <ele>1197</ele>
        <time>2018-07-21T18:13:17+02:00</time>
      </trkpt>
      <trkpt lat="45.37738" lon="4.61458">
        <ele>1197</ele>
        <time>2018-07-21T18:13:22+02:00</time>
      </trkpt>
      <trkpt lat="45.37728" lon="4.61457">
        <ele>1197</ele>
        <time>2018-07-21T18:13:27+02:00</time>
      </trkpt>
      <trkpt lat="45.37714" lon="4.61469">
        <ele>1197</ele>
        <time>2018-07-21T18:13:32+02:00</time>
      </trkpt>
      <trkpt lat="45.37708" lon="4.61475">
        <ele>1197</ele>
        <time>2018-07-21T18:13:37+02:00</time>
      </trkpt>
      <trkpt lat="45.37706" lon="4.61476">
        <ele>1197</ele>
        <time>2018-07-21T18:13:42+02:00</time>
      </trkpt>
      <trkpt lat="45.37698" lon="4.61487">
        <ele>1197</ele>
        <time>2018-07-21T18:13:47+02:00</time>
      </trkpt>
      <trkpt lat="45.37693" lon="4.61498">
        <ele>1196</ele>
        <time>2018-07-21T18:13:52+02:00</time>
      </trkpt>
      <trkpt lat="45.37687" lon="4.61508">
        <ele>1196</ele>
        <time>2018-07-21T18:13:57+02:00</time>
      </trkpt>
      <trkpt lat="45.37683" lon="4.61513">
        <ele>1195</ele>
        <time>2018-07-21T18:14:02+02:00</time>
      </trkpt>
      <trkpt lat="45.37668" lon="4.61547">
        <ele>1192</ele>
        <time>2018-07-21T18:14:07+02:00</time>
      </trkpt>
      <trkpt lat="45.37665" lon="4.61554">
        <ele>1192</ele>
        <time>2018-07-21T18:14:12+02:00</time>
      </trkpt>
      <trkpt lat="45.37661" lon="4.6156">
        <ele>1191</ele>
        <time>2018-07-21T18:14:17+02:00</time>
      </trkpt>
      <trkpt lat="45.37657" lon="4.61562">
        <ele>1191</ele>
        <time>2018-07-21T18:14:22+02:00</time>
      </trkpt>
      <trkpt lat="45.37655" lon="4.61569">
        <ele>1190</ele>
        <time>2018-07-21T18:14:27+02:00</time>
      </trkpt>
      <trkpt lat="45.37656" lon="4.61578">
        <ele>1189</ele>
        <time>2018-07-21T18:14:32+02:00</time>
      </trkpt>
      <trkpt lat="45.37653" lon="4.61583">
        <ele>1189</ele>
        <time>2018-07-21T18:14:37+02:00</time>
      </trkpt>
      <trkpt lat="45.37652" lon="4.61588">
        <ele>1188</ele>
        <time>2018-07-21T18:14:42+02:00</time>
      </trkpt>
      <trkpt lat="45.37648" lon="4.61593">
        <ele>1187</ele>
        <time>2018-07-21T18:14:47+02:00</time>
      </trkpt>
      <trkpt lat="45.37643" lon="4.61599">
        <ele>1186</ele>
        <time>2018-07-21T18:14:52+02:00</time>
      </trkpt>
      <trkpt lat="45.37642" lon="4.616">
        <ele>1186</ele>
        <time>2018-07-21T18:14:57+02:00</time>
      </trkpt>
      <trkpt lat="45.37636" lon="4.61612">
        <ele>1184</ele>
        <time>2018-07-21T18:15:02+02:00</time>
      </trkpt>
      <trkpt lat="45.37635" lon="4.61619">
        <ele>1183</ele>
        <time>2018-07-21T18:15:07+02:00</time>
      </trkpt>
      <trkpt lat="45.37633" lon="4.61624">
        <ele>1182</ele>
        <time>2018-07-21T18:15:12+02:00</time>
      </trkpt>
      <trkpt lat="45.3763" lon="4.61632">
        <ele>1181</ele>
        <time>2018-07-21T18:15:17+02:00</time>
      </trkpt>
      <trkpt lat="45.37627" lon="4.61639">
        <ele>1180</ele>
        <time>2018-07-21T18:15:22+02:00</time>
      </trkpt>
      <trkpt lat="45.37624" lon="4.61645">
        <ele>1178</ele>
        <time>2018-07-21T18:15:27+02:00</time>
      </trkpt>
      <trkpt lat="45.37624" lon="4.61652">
        <ele>1178</ele>
        <time>2018-07-21T18:15:32+02:00</time>
      </trkpt>
      <trkpt lat="45.37623" lon="4.61659">
        <ele>1177</ele>
        <time>2018-07-21T18:15:37+02:00</time>
      </trkpt>
      <trkpt lat="45.37619" lon="4.61665">
        <ele>1175</ele>
        <time>2018-07-21T18:15:42+02:00</time>
      </trkpt>
      <trkpt lat="45.37616" lon="4.61674">
        <ele>1174</ele>
        <time>2018-07-21T18:15:47+02:00</time>
      </trkpt>
      <trkpt lat="45.37613" lon="4.6168">
        <ele>1172</ele>
        <time>2018-07-21T18:15:52+02:00</time>
      </trkpt>
      <trkpt lat="45.37611" lon="4.61687">
        <ele>1171</ele>
        <time>2018-07-21T18:15:57+02:00</time>
      </trkpt>
      <trkpt lat="45.37608" lon="4.61692">
        <ele>1170</ele>
        <time>2018-07-21T18:16:02+02:00</time>
      </trkpt>
      <trkpt lat="45.37606" lon="4.617">
        <ele>1169</ele>
        <time>2018-07-21T18:16:07+02:00</time>
      </trkpt>
      <trkpt lat="45.37606" lon="4.6171">
        <ele>1167</ele>
        <time>2018-07-21T18:16:12+02:00</time>
      </trkpt>
      <trkpt lat="45.37604" lon="4.61715">
        <ele>1166</ele>
        <time>2018-07-21T18:16:17+02:00</time>
      </trkpt>
      <trkpt lat="45.37601" lon="4.61721">
        <ele>1165</ele>
        <time>2018-07-21T18:16:22+02:00</time>
      </trkpt>
      <trkpt lat="45.37596" lon="4.61728">
        <ele>1163</ele>
        <time>2018-07-21T18:16:27+02:00</time>
      </trkpt>
      <trkpt lat="45.37592" lon="4.61731">
        <ele>1163</ele>
        <time>2018-07-21T18:16:32+02:00</time>
      </trkpt>
      <trkpt lat="45.37584" lon="4.61735">
        <ele>1161</ele>
        <time>2018-07-21T18:16:37+02:00</time>
      </trkpt>
      <trkpt lat="45.37577" lon="4.61738">
        <ele>1160</ele>
        <time>2018-07-21T18:16:42+02:00</time>
      </trkpt>
      <trkpt lat="45.37569" lon="4.61738">
        <ele>1158</ele>
        <time>2018-07-21T18:16:47+02:00</time>
      </trkpt>
      <trkpt lat="45.37563" lon="4.61738">
        <ele>1158</ele>
        <time>2018-07-21T18:16:52+02:00</time>
      </trkpt>
      <trkpt lat="45.37559" lon="4.61741">
        <ele>1156</ele>
        <time>2018-07-21T18:16:57+02:00</time>
      </trkpt>
      <trkpt lat="45.37554" lon="4.61746">
        <ele>1155</ele>
        <time>2018-07-21T18:17:02+02:00</time>
      </trkpt>
      <trkpt lat="45.37546" lon="4.61749">
        <ele>1153</ele>
        <time>2018-07-21T18:17:07+02:00</time>
      </trkpt>
      <trkpt lat="45.37539" lon="4.61748">
        <ele>1152</ele>
        <time>2018-07-21T18:17:12+02:00</time>
      </trkpt>
      <trkpt lat="45.37536" lon="4.61751">
        <ele>1151</ele>
        <time>2018-07-21T18:17:17+02:00</time>
      </trkpt>
      <trkpt lat="45.3753" lon="4.6175">
        <ele>1150</ele>
        <time>2018-07-21T18:17:22+02:00</time>
      </trkpt>
      <trkpt lat="45.37526" lon="4.61752">
        <ele>1149</ele>
        <time>2018-07-21T18:17:27+02:00</time>
      </trkpt>
      <trkpt lat="45.37513" lon="4.61748">
        <ele>1148</ele>
        <time>2018-07-21T18:17:32+02:00</time>
      </trkpt>
      <trkpt lat="45.37507" lon="4.6175">
        <ele>1146</ele>
        <time>2018-07-21T18:17:37+02:00</time>
      </trkpt>
      <trkpt lat="45.375" lon="4.61748">
        <ele>1145</ele>
        <time>2018-07-21T18:17:42+02:00</time>
      </trkpt>
      <trkpt lat="45.37494" lon="4.61748">
        <ele>1145</ele>
        <time>2018-07-21T18:17:47+02:00</time>
      </trkpt>
      <trkpt lat="45.3749" lon="4.61749">
        <ele>1144</ele>
        <time>2018-07-21T18:17:52+02:00</time>
      </trkpt>
      <trkpt lat="45.37484" lon="4.61749">
        <ele>1143</ele>
        <time>2018-07-21T18:17:57+02:00</time>
      </trkpt>
      <trkpt lat="45.37478" lon="4.61751">
        <ele>1142</ele>
        <time>2018-07-21T18:18:02+02:00</time>
      </trkpt>
      <trkpt lat="45.37473" lon="4.61754">
        <ele>1141</ele>
        <time>2018-07-21T18:18:07+02:00</time>
      </trkpt>
      <trkpt lat="45.37465" lon="4.61751">
        <ele>1140</ele>
        <time>2018-07-21T18:18:12+02:00</time>
      </trkpt>
      <trkpt lat="45.37462" lon="4.6175">
        <ele>1140</ele>
        <time>2018-07-21T18:18:17+02:00</time>
      </trkpt>
      <trkpt lat="45.37458" lon="4.61749">
        <ele>1140</ele>
        <time>2018-07-21T18:18:22+02:00</time>
      </trkpt>
      <trkpt lat="45.37453" lon="4.61747">
        <ele>1139</ele>
        <time>2018-07-21T18:18:27+02:00</time>
      </trkpt>
      <trkpt lat="45.37441" lon="4.61751">
        <ele>1137</ele>
        <time>2018-07-21T18:18:32+02:00</time>
      </trkpt>
      <trkpt lat="45.37433" lon="4.61751">
        <ele>1136</ele>
        <time>2018-07-21T18:18:37+02:00</time>
      </trkpt>
      <trkpt lat="45.37427" lon="4.61754">
        <ele>1134</ele>
        <time>2018-07-21T18:18:42+02:00</time>
      </trkpt>
      <trkpt lat="45.3741" lon="4.61756">
        <ele>1132</ele>
        <time>2018-07-21T18:18:47+02:00</time>
      </trkpt>
      <trkpt lat="45.37406" lon="4.6176">
        <ele>1130</ele>
        <time>2018-07-21T18:18:52+02:00</time>
      </trkpt>
      <trkpt lat="45.374" lon="4.61758">
        <ele>1130</ele>
        <time>2018-07-21T18:18:57+02:00</time>
      </trkpt>
      <trkpt lat="45.37396" lon="4.61762">
        <ele>1128</ele>
        <time>2018-07-21T18:19:02+02:00</time>
      </trkpt>
      <trkpt lat="45.37384" lon="4.61767">
        <ele>1126</ele>
        <time>2018-07-21T18:19:07+02:00</time>
      </trkpt>
      <trkpt lat="45.37378" lon="4.61775">
        <ele>1123</ele>
        <time>2018-07-21T18:19:12+02:00</time>
      </trkpt>
      <trkpt lat="45.3737" lon="4.61773">
        <ele>1122</ele>
        <time>2018-07-21T18:19:17+02:00</time>
      </trkpt>
      <trkpt lat="45.37363" lon="4.61769">
        <ele>1122</ele>
        <time>2018-07-21T18:19:22+02:00</time>
      </trkpt>
      <trkpt lat="45.37349" lon="4.61764">
        <ele>1122</ele>
        <time>2018-07-21T18:19:27+02:00</time>
      </trkpt>
      <trkpt lat="45.37341" lon="4.61758">
        <ele>1123</ele>
        <time>2018-07-21T18:19:32+02:00</time>
      </trkpt>
      <trkpt lat="45.37336" lon="4.61753">
        <ele>1123</ele>
        <time>2018-07-21T18:19:37+02:00</time>
      </trkpt>
      <trkpt lat="45.37333" lon="4.61754">
        <ele>1123</ele>
        <time>2018-07-21T18:19:42+02:00</time>
      </trkpt>
      <trkpt lat="45.37328" lon="4.6175">
        <ele>1123</ele>
        <time>2018-07-21T18:19:47+02:00</time>
      </trkpt>
      <trkpt lat="45.37316" lon="4.61746">
        <ele>1121</ele>
        <time>2018-07-21T18:19:52+02:00</time>
      </trkpt>
      <trkpt lat="45.37304" lon="4.61744">
        <ele>1119</ele>
        <time>2018-07-21T18:19:57+02:00</time>
      </trkpt>
      <trkpt lat="45.37298" lon="4.61744">
        <ele>1117</ele>
        <time>2018-07-21T18:20:02+02:00</time>
      </trkpt>
      <trkpt lat="45.37294" lon="4.61738">
        <ele>1117</ele>
        <time>2018-07-21T18:20:07+02:00</time>
      </trkpt>
      <trkpt lat="45.37291" lon="4.61735">
        <ele>1118</ele>
        <time>2018-07-21T18:20:12+02:00</time>
      </trkpt>
      <trkpt lat="45.37289" lon="4.6173">
        <ele>1118</ele>
        <time>2018-07-21T18:20:17+02:00</time>
      </trkpt>
      <trkpt lat="45.3728" lon="4.61721">
        <ele>1118</ele>
        <time>2018-07-21T18:20:22+02:00</time>
      </trkpt>
      <trkpt lat="45.37273" lon="4.61719">
        <ele>1117</ele>
        <time>2018-07-21T18:20:27+02:00</time>
      </trkpt>
      <trkpt lat="45.37252" lon="4.61725">
        <ele>1110</ele>
        <time>2018-07-21T18:20:32+02:00</time>
      </trkpt>
      <trkpt lat="45.37249" lon="4.61717">
        <ele>1112</ele>
        <time>2018-07-21T18:20:37+02:00</time>
      </trkpt>
      <trkpt lat="45.37244" lon="4.6171">
        <ele>1112</ele>
        <time>2018-07-21T18:20:42+02:00</time>
      </trkpt>
      <trkpt lat="45.37239" lon="4.6171">
        <ele>1110</ele>
        <time>2018-07-21T18:20:47+02:00</time>
      </trkpt>
      <trkpt lat="45.37228" lon="4.61709">
        <ele>1108</ele>
        <time>2018-07-21T18:20:52+02:00</time>
      </trkpt>
      <trkpt lat="45.37223" lon="4.61705">
        <ele>1107</ele>
        <time>2018-07-21T18:20:57+02:00</time>
      </trkpt>
      <trkpt lat="45.37219" lon="4.617">
        <ele>1107</ele>
        <time>2018-07-21T18:21:02+02:00</time>
      </trkpt>
      <trkpt lat="45.37213" lon="4.61699">
        <ele>1105</ele>
        <time>2018-07-21T18:21:07+02:00</time>
      </trkpt>
      <trkpt lat="45.37207" lon="4.61699">
        <ele>1103</ele>
        <time>2018-07-21T18:21:12+02:00</time>
      </trkpt>
      <trkpt lat="45.37194" lon="4.61695">
        <ele>1101</ele>
        <time>2018-07-21T18:21:17+02:00</time>
      </trkpt>
      <trkpt lat="45.37187" lon="4.61692">
        <ele>1099</ele>
        <time>2018-07-21T18:21:22+02:00</time>
      </trkpt>
      <trkpt lat="45.37183" lon="4.61689">
        <ele>1099</ele>
        <time>2018-07-21T18:21:27+02:00</time>
      </trkpt>
      <trkpt lat="45.37177" lon="4.61688">
        <ele>1097</ele>
        <time>2018-07-21T18:21:32+02:00</time>
      </trkpt>
      <trkpt lat="45.3717" lon="4.61686">
        <ele>1096</ele>
        <time>2018-07-21T18:21:37+02:00</time>
      </trkpt>
      <trkpt lat="45.37163" lon="4.61681">
        <ele>1095</ele>
        <time>2018-07-21T18:21:42+02:00</time>
      </trkpt>
      <trkpt lat="45.37156" lon="4.61682">
        <ele>1092</ele>
        <time>2018-07-21T18:21:47+02:00</time>
      </trkpt>
      <trkpt lat="45.37146" lon="4.61683">
        <ele>1089</ele>
        <time>2018-07-21T18:21:52+02:00</time>
      </trkpt>
      <trkpt lat="45.37125" lon="4.61675">
        <ele>1085</ele>
        <time>2018-07-21T18:21:57+02:00</time>
      </trkpt>
      <trkpt lat="45.37122" lon="4.61667">
        <ele>1085</ele>
        <time>2018-07-21T18:22:02+02:00</time>
      </trkpt>
      <trkpt lat="45.37117" lon="4.61666">
        <ele>1084</ele>
        <time>2018-07-21T18:22:07+02:00</time>
      </trkpt>
      <trkpt lat="45.37113" lon="4.61663">
        <ele>1083</ele>
        <time>2018-07-21T18:22:12+02:00</time>
      </trkpt>
      <trkpt lat="45.37107" lon="4.61658">
        <ele>1082</ele>
        <time>2018-07-21T18:22:17+02:00</time>
      </trkpt>
      <trkpt lat="45.37102" lon="4.61652">
        <ele>1081</ele>
        <time>2018-07-21T18:22:22+02:00</time>
      </trkpt>
      <trkpt lat="45.37097" lon="4.61645">
        <ele>1080</ele>
        <time>2018-07-21T18:22:27+02:00</time>
      </trkpt>
      <trkpt lat="45.37093" lon="4.61643">
        <ele>1079</ele>
        <time>2018-07-21T18:22:32+02:00</time>
      </trkpt>
      <trkpt lat="45.37085" lon="4.6164">
        <ele>1077</ele>
        <time>2018-07-21T18:22:37+02:00</time>
      </trkpt>
      <trkpt lat="45.37081" lon="4.61633">
        <ele>1077</ele>
        <time>2018-07-21T18:22:42+02:00</time>
      </trkpt>
      <trkpt lat="45.37078" lon="4.61629">
        <ele>1077</ele>
        <time>2018-07-21T18:22:47+02:00</time>
      </trkpt>
      <trkpt lat="45.37074" lon="4.61626">
        <ele>1076</ele>
        <time>2018-07-21T18:22:52+02:00</time>
      </trkpt>
      <trkpt lat="45.3707" lon="4.61623">
        <ele>1076</ele>
        <time>2018-07-21T18:22:57+02:00</time>
      </trkpt>
      <trkpt lat="45.37064" lon="4.61621">
        <ele>1075</ele>
        <time>2018-07-21T18:23:02+02:00</time>
      </trkpt>
      <trkpt lat="45.37063" lon="4.61616">
        <ele>1075</ele>
        <time>2018-07-21T18:23:07+02:00</time>
      </trkpt>
      <trkpt lat="45.37056" lon="4.61607">
        <ele>1075</ele>
        <time>2018-07-21T18:23:12+02:00</time>
      </trkpt>
      <trkpt lat="45.37051" lon="4.61605">
        <ele>1074</ele>
        <time>2018-07-21T18:23:17+02:00</time>
      </trkpt>
      <trkpt lat="45.37049" lon="4.616">
        <ele>1074</ele>
        <time>2018-07-21T18:23:22+02:00</time>
      </trkpt>
      <trkpt lat="45.37037" lon="4.61593">
        <ele>1072</ele>
        <time>2018-07-21T18:23:27+02:00</time>
      </trkpt>
      <trkpt lat="45.37029" lon="4.61589">
        <ele>1070</ele>
        <time>2018-07-21T18:23:32+02:00</time>
      </trkpt>
      <trkpt lat="45.37022" lon="4.61591">
        <ele>1069</ele>
        <time>2018-07-21T18:23:37+02:00</time>
      </trkpt>
      <trkpt lat="45.37017" lon="4.61593">
        <ele>1067</ele>
        <time>2018-07-21T18:23:42+02:00</time>
      </trkpt>
      <trkpt lat="45.37011" lon="4.61591">
        <ele>1066</ele>
        <time>2018-07-21T18:23:47+02:00</time>
      </trkpt>
      <trkpt lat="45.37006" lon="4.61593">
        <ele>1065</ele>
        <time>2018-07-21T18:23:52+02:00</time>
      </trkpt>
      <trkpt lat="45.37" lon="4.61595">
        <ele>1064</ele>
        <time>2018-07-21T18:23:57+02:00</time>
      </trkpt>
      <trkpt lat="45.36991" lon="4.616">
        <ele>1063</ele>
        <time>2018-07-21T18:24:02+02:00</time>
      </trkpt>
      <trkpt lat="45.36985" lon="4.61602">
        <ele>1062</ele>
        <time>2018-07-21T18:24:07+02:00</time>
      </trkpt>
      <trkpt lat="45.36978" lon="4.61603">
        <ele>1062</ele>
        <time>2018-07-21T18:24:12+02:00</time>
      </trkpt>
      <trkpt lat="45.36971" lon="4.6161">
        <ele>1061</ele>
        <time>2018-07-21T18:24:17+02:00</time>
      </trkpt>
      <trkpt lat="45.36964" lon="4.61612">
        <ele>1060</ele>
        <time>2018-07-21T18:24:22+02:00</time>
      </trkpt>
      <trkpt lat="45.36957" lon="4.61619">
        <ele>1060</ele>
        <time>2018-07-21T18:24:27+02:00</time>
      </trkpt>
      <trkpt lat="45.36958" lon="4.61629">
        <ele>1060</ele>
        <time>2018-07-21T18:24:32+02:00</time>
      </trkpt>
      <trkpt lat="45.36958" lon="4.61641">
        <ele>1060</ele>
        <time>2018-07-21T18:24:37+02:00</time>
      </trkpt>
      <trkpt lat="45.36959" lon="4.61656">
        <ele>1060</ele>
        <time>2018-07-21T18:24:42+02:00</time>
      </trkpt>
      <trkpt lat="45.36961" lon="4.61669">
        <ele>1060</ele>
        <time>2018-07-21T18:24:47+02:00</time>
      </trkpt>
      <trkpt lat="45.36965" lon="4.61681">
        <ele>1060</ele>
        <time>2018-07-21T18:24:52+02:00</time>
      </trkpt>
      <trkpt lat="45.36971" lon="4.61696">
        <ele>1059</ele>
        <time>2018-07-21T18:24:57+02:00</time>
      </trkpt>
      <trkpt lat="45.36976" lon="4.61709">
        <ele>1059</ele>
        <time>2018-07-21T18:25:02+02:00</time>
      </trkpt>
      <trkpt lat="45.36978" lon="4.61718">
        <ele>1059</ele>
        <time>2018-07-21T18:25:07+02:00</time>
      </trkpt>
      <trkpt lat="45.36979" lon="4.61718">
        <ele>1059</ele>
        <time>2018-07-21T18:25:12+02:00</time>
      </trkpt>
      <trkpt lat="45.3698" lon="4.61721">
        <ele>1059</ele>
        <time>2018-07-21T18:25:17+02:00</time>
      </trkpt>
      <trkpt lat="45.36981" lon="4.61725">
        <ele>1058</ele>
        <time>2018-07-21T18:25:22+02:00</time>
      </trkpt>
      <trkpt lat="45.37001" lon="4.61777">
        <ele>1055</ele>
        <time>2018-07-21T18:25:27+02:00</time>
      </trkpt>
      <trkpt lat="45.37009" lon="4.61811">
        <ele>1053</ele>
        <time>2018-07-21T18:25:32+02:00</time>
      </trkpt>
      <trkpt lat="45.37031" lon="4.61803">
        <ele>1053</ele>
        <time>2018-07-21T18:25:37+02:00</time>
      </trkpt>
      <trkpt lat="45.37051" lon="4.61812">
        <ele>1051</ele>
        <time>2018-07-21T18:25:42+02:00</time>
      </trkpt>
      <trkpt lat="45.37057" lon="4.6182">
        <ele>1049</ele>
        <time>2018-07-21T18:25:47+02:00</time>
      </trkpt>
      <trkpt lat="45.3706" lon="4.61824">
        <ele>1049</ele>
        <time>2018-07-21T18:25:52+02:00</time>
      </trkpt>
      <trkpt lat="45.37064" lon="4.61827">
        <ele>1048</ele>
        <time>2018-07-21T18:25:57+02:00</time>
      </trkpt>
      <trkpt lat="45.37067" lon="4.61828">
        <ele>1047</ele>
        <time>2018-07-21T18:26:02+02:00</time>
      </trkpt>
      <trkpt lat="45.37071" lon="4.61832">
        <ele>1046</ele>
        <time>2018-07-21T18:26:07+02:00</time>
      </trkpt>
      <trkpt lat="45.37073" lon="4.61839">
        <ele>1045</ele>
        <time>2018-07-21T18:26:12+02:00</time>
      </trkpt>
      <trkpt lat="45.3708" lon="4.61843">
        <ele>1043</ele>
        <time>2018-07-21T18:26:17+02:00</time>
      </trkpt>
      <trkpt lat="45.37083" lon="4.61847">
        <ele>1042</ele>
        <time>2018-07-21T18:26:22+02:00</time>
      </trkpt>
      <trkpt lat="45.37086" lon="4.6185">
        <ele>1041</ele>
        <time>2018-07-21T18:26:27+02:00</time>
      </trkpt>
      <trkpt lat="45.37088" lon="4.61852">
        <ele>1041</ele>
        <time>2018-07-21T18:26:32+02:00</time>
      </trkpt>
      <trkpt lat="45.37094" lon="4.61855">
        <ele>1041</ele>
        <time>2018-07-21T18:26:37+02:00</time>
      </trkpt>
      <trkpt lat="45.37098" lon="4.61858">
        <ele>1041</ele>
        <time>2018-07-21T18:26:42+02:00</time>
      </trkpt>
      <trkpt lat="45.37103" lon="4.61863">
        <ele>1040</ele>
        <time>2018-07-21T18:26:47+02:00</time>
      </trkpt>
      <trkpt lat="45.37106" lon="4.61869">
        <ele>1039</ele>
        <time>2018-07-21T18:26:52+02:00</time>
      </trkpt>
      <trkpt lat="45.37112" lon="4.61877">
        <ele>1038</ele>
        <time>2018-07-21T18:26:57+02:00</time>
      </trkpt>
      <trkpt lat="45.37124" lon="4.6189">
        <ele>1036</ele>
        <time>2018-07-21T18:27:02+02:00</time>
      </trkpt>
      <trkpt lat="45.37133" lon="4.61902">
        <ele>1033</ele>
        <time>2018-07-21T18:27:07+02:00</time>
      </trkpt>
      <trkpt lat="45.37142" lon="4.61916">
        <ele>1030</ele>
        <time>2018-07-21T18:27:12+02:00</time>
      </trkpt>
      <trkpt lat="45.37148" lon="4.61929">
        <ele>1027</ele>
        <time>2018-07-21T18:27:17+02:00</time>
      </trkpt>
      <trkpt lat="45.37152" lon="4.61938">
        <ele>1025</ele>
        <time>2018-07-21T18:27:22+02:00</time>
      </trkpt>
      <trkpt lat="45.37156" lon="4.61944">
        <ele>1024</ele>
        <time>2018-07-21T18:27:27+02:00</time>
      </trkpt>
      <trkpt lat="45.37156" lon="4.61945">
        <ele>1024</ele>
        <time>2018-07-21T18:27:32+02:00</time>
      </trkpt>
      <trkpt lat="45.37162" lon="4.61952">
        <ele>1022</ele>
        <time>2018-07-21T18:27:37+02:00</time>
      </trkpt>
      <trkpt lat="45.37163" lon="4.61954">
        <ele>1022</ele>
        <time>2018-07-21T18:27:42+02:00</time>
      </trkpt>
      <trkpt lat="45.37172" lon="4.61974">
        <ele>1017</ele>
        <time>2018-07-21T18:27:47+02:00</time>
      </trkpt>
      <trkpt lat="45.3718" lon="4.61977">
        <ele>1018</ele>
        <time>2018-07-21T18:27:52+02:00</time>
      </trkpt>
      <trkpt lat="45.37183" lon="4.61988">
        <ele>1016</ele>
        <time>2018-07-21T18:27:57+02:00</time>
      </trkpt>
      <trkpt lat="45.37188" lon="4.61986">
        <ele>1017</ele>
        <time>2018-07-21T18:28:02+02:00</time>
      </trkpt>
      <trkpt lat="45.3719" lon="4.61994">
        <ele>1015</ele>
        <time>2018-07-21T18:28:07+02:00</time>
      </trkpt>
      <trkpt lat="45.37191" lon="4.62003">
        <ele>1013</ele>
        <time>2018-07-21T18:28:12+02:00</time>
      </trkpt>
      <trkpt lat="45.37194" lon="4.62014">
        <ele>1011</ele>
        <time>2018-07-21T18:28:17+02:00</time>
      </trkpt>
      <trkpt lat="45.37194" lon="4.62026">
        <ele>1008</ele>
        <time>2018-07-21T18:28:22+02:00</time>
      </trkpt>
      <trkpt lat="45.37198" lon="4.62028">
        <ele>1008</ele>
        <time>2018-07-21T18:28:27+02:00</time>
      </trkpt>
      <trkpt lat="45.37201" lon="4.62036">
        <ele>1007</ele>
        <time>2018-07-21T18:28:32+02:00</time>
      </trkpt>
      <trkpt lat="45.37204" lon="4.62049">
        <ele>1004</ele>
        <time>2018-07-21T18:28:37+02:00</time>
      </trkpt>
      <trkpt lat="45.37208" lon="4.62052">
        <ele>1004</ele>
        <time>2018-07-21T18:28:42+02:00</time>
      </trkpt>
      <trkpt lat="45.37214" lon="4.62057">
        <ele>1004</ele>
        <time>2018-07-21T18:28:47+02:00</time>
      </trkpt>
      <trkpt lat="45.37219" lon="4.62058">
        <ele>1004</ele>
        <time>2018-07-21T18:28:52+02:00</time>
      </trkpt>
      <trkpt lat="45.37222" lon="4.62062">
        <ele>1003</ele>
        <time>2018-07-21T18:28:57+02:00</time>
      </trkpt>
      <trkpt lat="45.37227" lon="4.62066">
        <ele>1003</ele>
        <time>2018-07-21T18:29:02+02:00</time>
      </trkpt>
      <trkpt lat="45.37228" lon="4.62069">
        <ele>1002</ele>
        <time>2018-07-21T18:29:07+02:00</time>
      </trkpt>
      <trkpt lat="45.37231" lon="4.62071">
        <ele>1002</ele>
        <time>2018-07-21T18:29:12+02:00</time>
      </trkpt>
      <trkpt lat="45.37238" lon="4.62079">
        <ele>1001</ele>
        <time>2018-07-21T18:29:17+02:00</time>
      </trkpt>
      <trkpt lat="45.37243" lon="4.6208">
        <ele>1001</ele>
        <time>2018-07-21T18:29:22+02:00</time>
      </trkpt>
      <trkpt lat="45.37249" lon="4.62083">
        <ele>1001</ele>
        <time>2018-07-21T18:29:27+02:00</time>
      </trkpt>
      <trkpt lat="45.37257" lon="4.62085">
        <ele>1001</ele>
        <time>2018-07-21T18:29:32+02:00</time>
      </trkpt>
      <trkpt lat="45.37264" lon="4.62088">
        <ele>1001</ele>
        <time>2018-07-21T18:29:37+02:00</time>
      </trkpt>
      <trkpt lat="45.37268" lon="4.62092">
        <ele>1000</ele>
        <time>2018-07-21T18:29:42+02:00</time>
      </trkpt>
      <trkpt lat="45.37271" lon="4.62092">
        <ele>1001</ele>
        <time>2018-07-21T18:29:47+02:00</time>
      </trkpt>
      <trkpt lat="45.37287" lon="4.62094">
        <ele>1002</ele>
        <time>2018-07-21T18:29:52+02:00</time>
      </trkpt>
      <trkpt lat="45.37289" lon="4.621">
        <ele>1000</ele>
        <time>2018-07-21T18:29:57+02:00</time>
      </trkpt>
      <trkpt lat="45.37294" lon="4.62101">
        <ele>1000</ele>
        <time>2018-07-21T18:30:02+02:00</time>
      </trkpt>
      <trkpt lat="45.37299" lon="4.6211">
        <ele>998</ele>
        <time>2018-07-21T18:30:07+02:00</time>
      </trkpt>
      <trkpt lat="45.37302" lon="4.62116">
        <ele>997</ele>
        <time>2018-07-21T18:30:12+02:00</time>
      </trkpt>
      <trkpt lat="45.37302" lon="4.62122">
        <ele>995</ele>
        <time>2018-07-21T18:30:17+02:00</time>
      </trkpt>
      <trkpt lat="45.37288" lon="4.62119">
        <ele>994</ele>
        <time>2018-07-21T18:30:22+02:00</time>
      </trkpt>
      <trkpt lat="45.37285" lon="4.62116">
        <ele>995</ele>
        <time>2018-07-21T18:30:27+02:00</time>
      </trkpt>
      <trkpt lat="45.37283" lon="4.62111">
        <ele>996</ele>
        <time>2018-07-21T18:30:32+02:00</time>
      </trkpt>
      <trkpt lat="45.37277" lon="4.62109">
        <ele>996</ele>
        <time>2018-07-21T18:30:37+02:00</time>
      </trkpt>
      <trkpt lat="45.37269" lon="4.62111">
        <ele>994</ele>
        <time>2018-07-21T18:30:42+02:00</time>
      </trkpt>
      <trkpt lat="45.37261" lon="4.62115">
        <ele>992</ele>
        <time>2018-07-21T18:30:47+02:00</time>
      </trkpt>
      <trkpt lat="45.37258" lon="4.62117">
        <ele>991</ele>
        <time>2018-07-21T18:30:52+02:00</time>
      </trkpt>
      <trkpt lat="45.37254" lon="4.62122">
        <ele>989</ele>
        <time>2018-07-21T18:30:57+02:00</time>
      </trkpt>
      <trkpt lat="45.37248" lon="4.62127">
        <ele>986</ele>
        <time>2018-07-21T18:31:02+02:00</time>
      </trkpt>
      <trkpt lat="45.3724" lon="4.62131">
        <ele>984</ele>
        <time>2018-07-21T18:31:07+02:00</time>
      </trkpt>
      <trkpt lat="45.3723" lon="4.62134">
        <ele>982</ele>
        <time>2018-07-21T18:31:12+02:00</time>
      </trkpt>
      <trkpt lat="45.37219" lon="4.62135">
        <ele>981</ele>
        <time>2018-07-21T18:31:17+02:00</time>
      </trkpt>
      <trkpt lat="45.37217" lon="4.62143">
        <ele>978</ele>
        <time>2018-07-21T18:31:22+02:00</time>
      </trkpt>
      <trkpt lat="45.37216" lon="4.62151">
        <ele>976</ele>
        <time>2018-07-21T18:31:27+02:00</time>
      </trkpt>
      <trkpt lat="45.3722" lon="4.6216">
        <ele>973</ele>
        <time>2018-07-21T18:31:32+02:00</time>
      </trkpt>
      <trkpt lat="45.37227" lon="4.62169">
        <ele>971</ele>
        <time>2018-07-21T18:31:37+02:00</time>
      </trkpt>
      <trkpt lat="45.37237" lon="4.62173">
        <ele>971</ele>
        <time>2018-07-21T18:31:42+02:00</time>
      </trkpt>
      <trkpt lat="45.37247" lon="4.62184">
        <ele>968</ele>
        <time>2018-07-21T18:31:47+02:00</time>
      </trkpt>
      <trkpt lat="45.37252" lon="4.6219">
        <ele>968</ele>
        <time>2018-07-21T18:31:52+02:00</time>
      </trkpt>
      <trkpt lat="45.37259" lon="4.62197">
        <ele>967</ele>
        <time>2018-07-21T18:31:57+02:00</time>
      </trkpt>
      <trkpt lat="45.3726" lon="4.62202">
        <ele>966</ele>
        <time>2018-07-21T18:32:02+02:00</time>
      </trkpt>
      <trkpt lat="45.37262" lon="4.6221">
        <ele>965</ele>
        <time>2018-07-21T18:32:07+02:00</time>
      </trkpt>
      <trkpt lat="45.37259" lon="4.62218">
        <ele>962</ele>
        <time>2018-07-21T18:32:12+02:00</time>
      </trkpt>
      <trkpt lat="45.3726" lon="4.62226">
        <ele>960</ele>
        <time>2018-07-21T18:32:17+02:00</time>
      </trkpt>
      <trkpt lat="45.37261" lon="4.62232">
        <ele>959</ele>
        <time>2018-07-21T18:32:22+02:00</time>
      </trkpt>
      <trkpt lat="45.37264" lon="4.62245">
        <ele>957</ele>
        <time>2018-07-21T18:32:27+02:00</time>
      </trkpt>
      <trkpt lat="45.37263" lon="4.62256">
        <ele>955</ele>
        <time>2018-07-21T18:32:32+02:00</time>
      </trkpt>
      <trkpt lat="45.37262" lon="4.62266">
        <ele>953</ele>
        <time>2018-07-21T18:32:37+02:00</time>
      </trkpt>
      <trkpt lat="45.37267" lon="4.6228">
        <ele>953</ele>
        <time>2018-07-21T18:32:42+02:00</time>
      </trkpt>
      <trkpt lat="45.37266" lon="4.62302">
        <ele>950</ele>
        <time>2018-07-21T18:32:47+02:00</time>
      </trkpt>
      <trkpt lat="45.37265" lon="4.62323">
        <ele>947</ele>
        <time>2018-07-21T18:32:52+02:00</time>
      </trkpt>
      <trkpt lat="45.37261" lon="4.62331">
        <ele>945</ele>
        <time>2018-07-21T18:32:57+02:00</time>
      </trkpt>
      <trkpt lat="45.37257" lon="4.6235">
        <ele>941</ele>
        <time>2018-07-21T18:33:02+02:00</time>
      </trkpt>
      <trkpt lat="45.37247" lon="4.6237">
        <ele>936</ele>
        <time>2018-07-21T18:33:07+02:00</time>
      </trkpt>
      <trkpt lat="45.37249" lon="4.62386">
        <ele>934</ele>
        <time>2018-07-21T18:33:12+02:00</time>
      </trkpt>
      <trkpt lat="45.37246" lon="4.62398">
        <ele>932</ele>
        <time>2018-07-21T18:33:17+02:00</time>
      </trkpt>
      <trkpt lat="45.37245" lon="4.62404">
        <ele>931</ele>
        <time>2018-07-21T18:33:22+02:00</time>
      </trkpt>
      <trkpt lat="45.37245" lon="4.62417">
        <ele>930</ele>
        <time>2018-07-21T18:33:27+02:00</time>
      </trkpt>
      <trkpt lat="45.37248" lon="4.62442">
        <ele>925</ele>
        <time>2018-07-21T18:33:32+02:00</time>
      </trkpt>
      <trkpt lat="45.37254" lon="4.62468">
        <ele>922</ele>
        <time>2018-07-21T18:33:37+02:00</time>
      </trkpt>
      <trkpt lat="45.37261" lon="4.62494">
        <ele>918</ele>
        <time>2018-07-21T18:33:42+02:00</time>
      </trkpt>
      <trkpt lat="45.37265" lon="4.62503">
        <ele>918</ele>
        <time>2018-07-21T18:33:47+02:00</time>
      </trkpt>
      <trkpt lat="45.37272" lon="4.62513">
        <ele>918</ele>
        <time>2018-07-21T18:33:52+02:00</time>
      </trkpt>
      <trkpt lat="45.37277" lon="4.62519">
        <ele>918</ele>
        <time>2018-07-21T18:33:57+02:00</time>
      </trkpt>
      <trkpt lat="45.37283" lon="4.62526">
        <ele>919</ele>
        <time>2018-07-21T18:34:02+02:00</time>
      </trkpt>
      <trkpt lat="45.37288" lon="4.62538">
        <ele>918</ele>
        <time>2018-07-21T18:34:07+02:00</time>
      </trkpt>
      <trkpt lat="45.37291" lon="4.62548">
        <ele>917</ele>
        <time>2018-07-21T18:34:12+02:00</time>
      </trkpt>
      <trkpt lat="45.37293" lon="4.62554">
        <ele>916</ele>
        <time>2018-07-21T18:34:17+02:00</time>
      </trkpt>
      <trkpt lat="45.37296" lon="4.62564">
        <ele>915</ele>
        <time>2018-07-21T18:34:22+02:00</time>
      </trkpt>
      <trkpt lat="45.37299" lon="4.62568">
        <ele>915</ele>
        <time>2018-07-21T18:34:27+02:00</time>
      </trkpt>
      <trkpt lat="45.37301" lon="4.62572">
        <ele>915</ele>
        <time>2018-07-21T18:34:32+02:00</time>
      </trkpt>
      <trkpt lat="45.37303" lon="4.62583">
        <ele>913</ele>
        <time>2018-07-21T18:34:37+02:00</time>
      </trkpt>
      <trkpt lat="45.37301" lon="4.62588">
        <ele>912</ele>
        <time>2018-07-21T18:34:42+02:00</time>
      </trkpt>
      <trkpt lat="45.37297" lon="4.62597">
        <ele>909</ele>
        <time>2018-07-21T18:34:47+02:00</time>
      </trkpt>
      <trkpt lat="45.37299" lon="4.62604">
        <ele>909</ele>
        <time>2018-07-21T18:34:52+02:00</time>
      </trkpt>
      <trkpt lat="45.37297" lon="4.62611">
        <ele>907</ele>
        <time>2018-07-21T18:34:57+02:00</time>
      </trkpt>
      <trkpt lat="45.37297" lon="4.62616">
        <ele>906</ele>
        <time>2018-07-21T18:35:02+02:00</time>
      </trkpt>
      <trkpt lat="45.37296" lon="4.62622">
        <ele>905</ele>
        <time>2018-07-21T18:35:07+02:00</time>
      </trkpt>
      <trkpt lat="45.37297" lon="4.62629">
        <ele>904</ele>
        <time>2018-07-21T18:35:12+02:00</time>
      </trkpt>
      <trkpt lat="45.37294" lon="4.62641">
        <ele>901</ele>
        <time>2018-07-21T18:35:17+02:00</time>
      </trkpt>
      <trkpt lat="45.37293" lon="4.62652">
        <ele>900</ele>
        <time>2018-07-21T18:35:22+02:00</time>
      </trkpt>
      <trkpt lat="45.37293" lon="4.62656">
        <ele>899</ele>
        <time>2018-07-21T18:35:27+02:00</time>
      </trkpt>
      <trkpt lat="45.37294" lon="4.62666">
        <ele>898</ele>
        <time>2018-07-21T18:35:32+02:00</time>
      </trkpt>
      <trkpt lat="45.37295" lon="4.62666">
        <ele>898</ele>
        <time>2018-07-21T18:35:37+02:00</time>
      </trkpt>
      <trkpt lat="45.37295" lon="4.62677">
        <ele>896</ele>
        <time>2018-07-21T18:35:42+02:00</time>
      </trkpt>
      <trkpt lat="45.37299" lon="4.62687">
        <ele>895</ele>
        <time>2018-07-21T18:35:47+02:00</time>
      </trkpt>
      <trkpt lat="45.37297" lon="4.62704">
        <ele>892</ele>
        <time>2018-07-21T18:35:52+02:00</time>
      </trkpt>
      <trkpt lat="45.37296" lon="4.62709">
        <ele>891</ele>
        <time>2018-07-21T18:35:57+02:00</time>
      </trkpt>
      <trkpt lat="45.37297" lon="4.62719">
        <ele>890</ele>
        <time>2018-07-21T18:36:02+02:00</time>
      </trkpt>
      <trkpt lat="45.37298" lon="4.62729">
        <ele>888</ele>
        <time>2018-07-21T18:36:07+02:00</time>
      </trkpt>
      <trkpt lat="45.37298" lon="4.62735">
        <ele>887</ele>
        <time>2018-07-21T18:36:12+02:00</time>
      </trkpt>
      <trkpt lat="45.37298" lon="4.62744">
        <ele>886</ele>
        <time>2018-07-21T18:36:17+02:00</time>
      </trkpt>
      <trkpt lat="45.37298" lon="4.62757">
        <ele>884</ele>
        <time>2018-07-21T18:36:22+02:00</time>
      </trkpt>
      <trkpt lat="45.37301" lon="4.6277">
        <ele>882</ele>
        <time>2018-07-21T18:36:27+02:00</time>
      </trkpt>
      <trkpt lat="45.37308" lon="4.62783">
        <ele>881</ele>
        <time>2018-07-21T18:36:32+02:00</time>
      </trkpt>
      <trkpt lat="45.3731" lon="4.62794">
        <ele>879</ele>
        <time>2018-07-21T18:36:37+02:00</time>
      </trkpt>
      <trkpt lat="45.3731" lon="4.62802">
        <ele>878</ele>
        <time>2018-07-21T18:36:42+02:00</time>
      </trkpt>
      <trkpt lat="45.37313" lon="4.62808">
        <ele>877</ele>
        <time>2018-07-21T18:36:47+02:00</time>
      </trkpt>
      <trkpt lat="45.37309" lon="4.62825">
        <ele>873</ele>
        <time>2018-07-21T18:36:52+02:00</time>
      </trkpt>
      <trkpt lat="45.37306" lon="4.62834">
        <ele>872</ele>
        <time>2018-07-21T18:36:57+02:00</time>
      </trkpt>
      <trkpt lat="45.37302" lon="4.62839">
        <ele>871</ele>
        <time>2018-07-21T18:37:02+02:00</time>
      </trkpt>
      <trkpt lat="45.37299" lon="4.62843">
        <ele>870</ele>
        <time>2018-07-21T18:37:07+02:00</time>
      </trkpt>
      <trkpt lat="45.37298" lon="4.62844">
        <ele>870</ele>
        <time>2018-07-21T18:37:12+02:00</time>
      </trkpt>
      <trkpt lat="45.37296" lon="4.62846">
        <ele>869</ele>
        <time>2018-07-21T18:37:17+02:00</time>
      </trkpt>
      <trkpt lat="45.37293" lon="4.62851">
        <ele>868</ele>
        <time>2018-07-21T18:37:22+02:00</time>
      </trkpt>
      <trkpt lat="45.37289" lon="4.62855">
        <ele>868</ele>
        <time>2018-07-21T18:37:27+02:00</time>
      </trkpt>
      <trkpt lat="45.37286" lon="4.6286">
        <ele>867</ele>
        <time>2018-07-21T18:37:32+02:00</time>
      </trkpt>
      <trkpt lat="45.37281" lon="4.62866">
        <ele>866</ele>
        <time>2018-07-21T18:37:37+02:00</time>
      </trkpt>
      <trkpt lat="45.37278" lon="4.6287">
        <ele>865</ele>
        <time>2018-07-21T18:37:42+02:00</time>
      </trkpt>
      <trkpt lat="45.37271" lon="4.62883">
        <ele>864</ele>
        <time>2018-07-21T18:37:47+02:00</time>
      </trkpt>
      <trkpt lat="45.37262" lon="4.62894">
        <ele>864</ele>
        <time>2018-07-21T18:37:52+02:00</time>
      </trkpt>
      <trkpt lat="45.37255" lon="4.62904">
        <ele>863</ele>
        <time>2018-07-21T18:37:57+02:00</time>
      </trkpt>
      <trkpt lat="45.37246" lon="4.62915">
        <ele>863</ele>
        <time>2018-07-21T18:38:02+02:00</time>
      </trkpt>
      <trkpt lat="45.37236" lon="4.62919">
        <ele>862</ele>
        <time>2018-07-21T18:38:07+02:00</time>
      </trkpt>
      <trkpt lat="45.37227" lon="4.62929">
        <ele>862</ele>
        <time>2018-07-21T18:38:12+02:00</time>
      </trkpt>
      <trkpt lat="45.37222" lon="4.62933">
        <ele>862</ele>
        <time>2018-07-21T18:38:17+02:00</time>
      </trkpt>
      <trkpt lat="45.37222" lon="4.62934">
        <ele>862</ele>
        <time>2018-07-21T18:38:22+02:00</time>
      </trkpt>
      <trkpt lat="45.37213" lon="4.62939">
        <ele>862</ele>
        <time>2018-07-21T18:38:27+02:00</time>
      </trkpt>
      <trkpt lat="45.37205" lon="4.62946">
        <ele>861</ele>
        <time>2018-07-21T18:38:32+02:00</time>
      </trkpt>
      <trkpt lat="45.37198" lon="4.62951">
        <ele>861</ele>
        <time>2018-07-21T18:38:37+02:00</time>
      </trkpt>
      <trkpt lat="45.3719" lon="4.62956">
        <ele>861</ele>
        <time>2018-07-21T18:38:42+02:00</time>
      </trkpt>
      <trkpt lat="45.37183" lon="4.6296">
        <ele>861</ele>
        <time>2018-07-21T18:38:47+02:00</time>
      </trkpt>
      <trkpt lat="45.37177" lon="4.62964">
        <ele>861</ele>
        <time>2018-07-21T18:38:52+02:00</time>
      </trkpt>
      <trkpt lat="45.37171" lon="4.62973">
        <ele>861</ele>
        <time>2018-07-21T18:38:57+02:00</time>
      </trkpt>
      <trkpt lat="45.37167" lon="4.62978">
        <ele>861</ele>
        <time>2018-07-21T18:39:02+02:00</time>
      </trkpt>
      <trkpt lat="45.37159" lon="4.62984">
        <ele>859</ele>
        <time>2018-07-21T18:39:07+02:00</time>
      </trkpt>
      <trkpt lat="45.37156" lon="4.62988">
        <ele>859</ele>
        <time>2018-07-21T18:39:12+02:00</time>
      </trkpt>
      <trkpt lat="45.37151" lon="4.62993">
        <ele>857</ele>
        <time>2018-07-21T18:39:17+02:00</time>
      </trkpt>
      <trkpt lat="45.37144" lon="4.63001">
        <ele>855</ele>
        <time>2018-07-21T18:39:22+02:00</time>
      </trkpt>
      <trkpt lat="45.37137" lon="4.63008">
        <ele>853</ele>
        <time>2018-07-21T18:39:27+02:00</time>
      </trkpt>
      <trkpt lat="45.37127" lon="4.63013">
        <ele>849</ele>
        <time>2018-07-21T18:39:32+02:00</time>
      </trkpt>
      <trkpt lat="45.37124" lon="4.63024">
        <ele>848</ele>
        <time>2018-07-21T18:39:37+02:00</time>
      </trkpt>
      <trkpt lat="45.37123" lon="4.63032">
        <ele>848</ele>
        <time>2018-07-21T18:39:42+02:00</time>
      </trkpt>
      <trkpt lat="45.3712" lon="4.63038">
        <ele>847</ele>
        <time>2018-07-21T18:39:47+02:00</time>
      </trkpt>
      <trkpt lat="45.37115" lon="4.63045">
        <ele>845</ele>
        <time>2018-07-21T18:39:52+02:00</time>
      </trkpt>
      <trkpt lat="45.37107" lon="4.63054">
        <ele>842</ele>
        <time>2018-07-21T18:39:57+02:00</time>
      </trkpt>
      <trkpt lat="45.37103" lon="4.63062">
        <ele>841</ele>
        <time>2018-07-21T18:40:02+02:00</time>
      </trkpt>
      <trkpt lat="45.37102" lon="4.63068">
        <ele>840</ele>
        <time>2018-07-21T18:40:07+02:00</time>
      </trkpt>
      <trkpt lat="45.37096" lon="4.63078">
        <ele>838</ele>
        <time>2018-07-21T18:40:12+02:00</time>
      </trkpt>
      <trkpt lat="45.37095" lon="4.63083">
        <ele>838</ele>
        <time>2018-07-21T18:40:17+02:00</time>
      </trkpt>
      <trkpt lat="45.37092" lon="4.63092">
        <ele>837</ele>
        <time>2018-07-21T18:40:22+02:00</time>
      </trkpt>
      <trkpt lat="45.37088" lon="4.63105">
        <ele>837</ele>
        <time>2018-07-21T18:40:27+02:00</time>
      </trkpt>
      <trkpt lat="45.37083" lon="4.63114">
        <ele>835</ele>
        <time>2018-07-21T18:40:32+02:00</time>
      </trkpt>
      <trkpt lat="45.3708" lon="4.6312">
        <ele>835</ele>
        <time>2018-07-21T18:40:37+02:00</time>
      </trkpt>
      <trkpt lat="45.37075" lon="4.63129">
        <ele>833</ele>
        <time>2018-07-21T18:40:42+02:00</time>
      </trkpt>
      <trkpt lat="45.37073" lon="4.63134">
        <ele>833</ele>
        <time>2018-07-21T18:40:47+02:00</time>
      </trkpt>
      <trkpt lat="45.37072" lon="4.63142">
        <ele>833</ele>
        <time>2018-07-21T18:40:52+02:00</time>
      </trkpt>
      <trkpt lat="45.3707" lon="4.63152">
        <ele>832</ele>
        <time>2018-07-21T18:40:57+02:00</time>
      </trkpt>
      <trkpt lat="45.37067" lon="4.63161">
        <ele>831</ele>
        <time>2018-07-21T18:41:02+02:00</time>
      </trkpt>
      <trkpt lat="45.37063" lon="4.63174">
        <ele>830</ele>
        <time>2018-07-21T18:41:07+02:00</time>
      </trkpt>
      <trkpt lat="45.3706" lon="4.63182">
        <ele>828</ele>
        <time>2018-07-21T18:41:12+02:00</time>
      </trkpt>
      <trkpt lat="45.37055" lon="4.63196">
        <ele>827</ele>
        <time>2018-07-21T18:41:17+02:00</time>
      </trkpt>
      <trkpt lat="45.37053" lon="4.63199">
        <ele>826</ele>
        <time>2018-07-21T18:41:22+02:00</time>
      </trkpt>
      <trkpt lat="45.37049" lon="4.63209">
        <ele>824</ele>
        <time>2018-07-21T18:41:27+02:00</time>
      </trkpt>
      <trkpt lat="45.37048" lon="4.63215">
        <ele>824</ele>
        <time>2018-07-21T18:41:32+02:00</time>
      </trkpt>
      <trkpt lat="45.37048" lon="4.63224">
        <ele>824</ele>
        <time>2018-07-21T18:41:37+02:00</time>
      </trkpt>
      <trkpt lat="45.37047" lon="4.63236">
        <ele>824</ele>
        <time>2018-07-21T18:41:42+02:00</time>
      </trkpt>
      <trkpt lat="45.37046" lon="4.63248">
        <ele>824</ele>
        <time>2018-07-21T18:41:47+02:00</time>
      </trkpt>
      <trkpt lat="45.37044" lon="4.63254">
        <ele>823</ele>
        <time>2018-07-21T18:41:52+02:00</time>
      </trkpt>
      <trkpt lat="45.37042" lon="4.63262">
        <ele>821</ele>
        <time>2018-07-21T18:41:57+02:00</time>
      </trkpt>
      <trkpt lat="45.3704" lon="4.6327">
        <ele>820</ele>
        <time>2018-07-21T18:42:02+02:00</time>
      </trkpt>
      <trkpt lat="45.3704" lon="4.63281">
        <ele>819</ele>
        <time>2018-07-21T18:42:07+02:00</time>
      </trkpt>
      <trkpt lat="45.37041" lon="4.63292">
        <ele>818</ele>
        <time>2018-07-21T18:42:12+02:00</time>
      </trkpt>
      <trkpt lat="45.37042" lon="4.63299">
        <ele>818</ele>
        <time>2018-07-21T18:42:17+02:00</time>
      </trkpt>
      <trkpt lat="45.37043" lon="4.63308">
        <ele>818</ele>
        <time>2018-07-21T18:42:22+02:00</time>
      </trkpt>
      <trkpt lat="45.37041" lon="4.63317">
        <ele>816</ele>
        <time>2018-07-21T18:42:27+02:00</time>
      </trkpt>
      <trkpt lat="45.37043" lon="4.63324">
        <ele>817</ele>
        <time>2018-07-21T18:42:32+02:00</time>
      </trkpt>
      <trkpt lat="45.37045" lon="4.63337">
        <ele>816</ele>
        <time>2018-07-21T18:42:37+02:00</time>
      </trkpt>
      <trkpt lat="45.37043" lon="4.63346">
        <ele>814</ele>
        <time>2018-07-21T18:42:42+02:00</time>
      </trkpt>
      <trkpt lat="45.37042" lon="4.63351">
        <ele>813</ele>
        <time>2018-07-21T18:42:47+02:00</time>
      </trkpt>
      <trkpt lat="45.37042" lon="4.63352">
        <ele>812</ele>
        <time>2018-07-21T18:42:52+02:00</time>
      </trkpt>
      <trkpt lat="45.37033" lon="4.63354">
        <ele>810</ele>
        <time>2018-07-21T18:42:57+02:00</time>
      </trkpt>
      <trkpt lat="45.37027" lon="4.63352">
        <ele>808</ele>
        <time>2018-07-21T18:43:02+02:00</time>
      </trkpt>
      <trkpt lat="45.37019" lon="4.63352">
        <ele>806</ele>
        <time>2018-07-21T18:43:07+02:00</time>
      </trkpt>
      <trkpt lat="45.37014" lon="4.63349">
        <ele>805</ele>
        <time>2018-07-21T18:43:12+02:00</time>
      </trkpt>
      <trkpt lat="45.37007" lon="4.63346">
        <ele>803</ele>
        <time>2018-07-21T18:43:17+02:00</time>
      </trkpt>
      <trkpt lat="45.37003" lon="4.63337">
        <ele>803</ele>
        <time>2018-07-21T18:43:22+02:00</time>
      </trkpt>
      <trkpt lat="45.36995" lon="4.63336">
        <ele>800</ele>
        <time>2018-07-21T18:43:27+02:00</time>
      </trkpt>
      <trkpt lat="45.3699" lon="4.63343">
        <ele>798</ele>
        <time>2018-07-21T18:43:32+02:00</time>
      </trkpt>
      <trkpt lat="45.3699" lon="4.63347">
        <ele>798</ele>
        <time>2018-07-21T18:43:37+02:00</time>
      </trkpt>
      <trkpt lat="45.36988" lon="4.63361">
        <ele>796</ele>
        <time>2018-07-21T18:43:42+02:00</time>
      </trkpt>
      <trkpt lat="45.36986" lon="4.63372">
        <ele>794</ele>
        <time>2018-07-21T18:43:47+02:00</time>
      </trkpt>
      <trkpt lat="45.36983" lon="4.63383">
        <ele>792</ele>
        <time>2018-07-21T18:43:52+02:00</time>
      </trkpt>
      <trkpt lat="45.3698" lon="4.63396">
        <ele>790</ele>
        <time>2018-07-21T18:43:57+02:00</time>
      </trkpt>
      <trkpt lat="45.36978" lon="4.63402">
        <ele>789</ele>
        <time>2018-07-21T18:44:02+02:00</time>
      </trkpt>
      <trkpt lat="45.36972" lon="4.63412">
        <ele>787</ele>
        <time>2018-07-21T18:44:07+02:00</time>
      </trkpt>
      <trkpt lat="45.36967" lon="4.63422">
        <ele>785</ele>
        <time>2018-07-21T18:44:12+02:00</time>
      </trkpt>
      <trkpt lat="45.36963" lon="4.63431">
        <ele>783</ele>
        <time>2018-07-21T18:44:17+02:00</time>
      </trkpt>
      <trkpt lat="45.36958" lon="4.63442">
        <ele>781</ele>
        <time>2018-07-21T18:44:22+02:00</time>
      </trkpt>
      <trkpt lat="45.36955" lon="4.63447">
        <ele>781</ele>
        <time>2018-07-21T18:44:27+02:00</time>
      </trkpt>
      <trkpt lat="45.36952" lon="4.63452">
        <ele>780</ele>
        <time>2018-07-21T18:44:32+02:00</time>
      </trkpt>
      <trkpt lat="45.36947" lon="4.63462">
        <ele>778</ele>
        <time>2018-07-21T18:44:37+02:00</time>
      </trkpt>
      <trkpt lat="45.36939" lon="4.63473">
        <ele>776</ele>
        <time>2018-07-21T18:44:42+02:00</time>
      </trkpt>
      <trkpt lat="45.36933" lon="4.63482">
        <ele>774</ele>
        <time>2018-07-21T18:44:47+02:00</time>
      </trkpt>
      <trkpt lat="45.36929" lon="4.6349">
        <ele>773</ele>
        <time>2018-07-21T18:44:52+02:00</time>
      </trkpt>
      <trkpt lat="45.36927" lon="4.63498">
        <ele>773</ele>
        <time>2018-07-21T18:44:57+02:00</time>
      </trkpt>
      <trkpt lat="45.3692" lon="4.63503">
        <ele>772</ele>
        <time>2018-07-21T18:45:02+02:00</time>
      </trkpt>
      <trkpt lat="45.36918" lon="4.63506">
        <ele>772</ele>
        <time>2018-07-21T18:45:07+02:00</time>
      </trkpt>
      <trkpt lat="45.36912" lon="4.63515">
        <ele>771</ele>
        <time>2018-07-21T18:45:12+02:00</time>
      </trkpt>
      <trkpt lat="45.36907" lon="4.63523">
        <ele>770</ele>
        <time>2018-07-21T18:45:17+02:00</time>
      </trkpt>
      <trkpt lat="45.36902" lon="4.6353">
        <ele>769</ele>
        <time>2018-07-21T18:45:22+02:00</time>
      </trkpt>
      <trkpt lat="45.36895" lon="4.63539">
        <ele>768</ele>
        <time>2018-07-21T18:45:27+02:00</time>
      </trkpt>
      <trkpt lat="45.36887" lon="4.63549">
        <ele>767</ele>
        <time>2018-07-21T18:45:32+02:00</time>
      </trkpt>
      <trkpt lat="45.36882" lon="4.63553">
        <ele>766</ele>
        <time>2018-07-21T18:45:37+02:00</time>
      </trkpt>
      <trkpt lat="45.36876" lon="4.63553">
        <ele>765</ele>
        <time>2018-07-21T18:45:42+02:00</time>
      </trkpt>
      <trkpt lat="45.3687" lon="4.63551">
        <ele>764</ele>
        <time>2018-07-21T18:45:47+02:00</time>
      </trkpt>
      <trkpt lat="45.36858" lon="4.63564">
        <ele>763</ele>
        <time>2018-07-21T18:45:52+02:00</time>
      </trkpt>
      <trkpt lat="45.36852" lon="4.63568">
        <ele>762</ele>
        <time>2018-07-21T18:45:57+02:00</time>
      </trkpt>
      <trkpt lat="45.36847" lon="4.63575">
        <ele>762</ele>
        <time>2018-07-21T18:46:02+02:00</time>
      </trkpt>
      <trkpt lat="45.36839" lon="4.63584">
        <ele>762</ele>
        <time>2018-07-21T18:46:07+02:00</time>
      </trkpt>
      <trkpt lat="45.36829" lon="4.63594">
        <ele>761</ele>
        <time>2018-07-21T18:46:12+02:00</time>
      </trkpt>
      <trkpt lat="45.36821" lon="4.63604">
        <ele>760</ele>
        <time>2018-07-21T18:46:17+02:00</time>
      </trkpt>
      <trkpt lat="45.36813" lon="4.6361">
        <ele>759</ele>
        <time>2018-07-21T18:46:22+02:00</time>
      </trkpt>
      <trkpt lat="45.36811" lon="4.63613">
        <ele>758</ele>
        <time>2018-07-21T18:46:27+02:00</time>
      </trkpt>
      <trkpt lat="45.36806" lon="4.63616">
        <ele>757</ele>
        <time>2018-07-21T18:46:32+02:00</time>
      </trkpt>
      <trkpt lat="45.368" lon="4.63623">
        <ele>756</ele>
        <time>2018-07-21T18:46:37+02:00</time>
      </trkpt>
      <trkpt lat="45.36793" lon="4.63629">
        <ele>755</ele>
        <time>2018-07-21T18:46:42+02:00</time>
      </trkpt>
      <trkpt lat="45.36785" lon="4.63635">
        <ele>753</ele>
        <time>2018-07-21T18:46:47+02:00</time>
      </trkpt>
      <trkpt lat="45.36784" lon="4.63635">
        <ele>753</ele>
        <time>2018-07-21T18:46:52+02:00</time>
      </trkpt>
      <trkpt lat="45.36776" lon="4.63643">
        <ele>752</ele>
        <time>2018-07-21T18:46:57+02:00</time>
      </trkpt>
      <trkpt lat="45.36768" lon="4.63649">
        <ele>750</ele>
        <time>2018-07-21T18:47:02+02:00</time>
      </trkpt>
      <trkpt lat="45.36762" lon="4.63654">
        <ele>749</ele>
        <time>2018-07-21T18:47:07+02:00</time>
      </trkpt>
      <trkpt lat="45.36757" lon="4.63658">
        <ele>748</ele>
        <time>2018-07-21T18:47:12+02:00</time>
      </trkpt>
      <trkpt lat="45.3675" lon="4.63666">
        <ele>747</ele>
        <time>2018-07-21T18:47:17+02:00</time>
      </trkpt>
      <trkpt lat="45.36747" lon="4.63671">
        <ele>747</ele>
        <time>2018-07-21T18:47:22+02:00</time>
      </trkpt>
      <trkpt lat="45.36745" lon="4.63675">
        <ele>746</ele>
        <time>2018-07-21T18:47:27+02:00</time>
      </trkpt>
      <trkpt lat="45.36741" lon="4.63681">
        <ele>746</ele>
        <time>2018-07-21T18:47:32+02:00</time>
      </trkpt>
      <trkpt lat="45.36738" lon="4.63689">
        <ele>746</ele>
        <time>2018-07-21T18:47:37+02:00</time>
      </trkpt>
      <trkpt lat="45.36734" lon="4.63691">
        <ele>745</ele>
        <time>2018-07-21T18:47:42+02:00</time>
      </trkpt>
      <trkpt lat="45.36731" lon="4.63701">
        <ele>745</ele>
        <time>2018-07-21T18:47:47+02:00</time>
      </trkpt>
      <trkpt lat="45.36728" lon="4.6371">
        <ele>745</ele>
        <time>2018-07-21T18:47:52+02:00</time>
      </trkpt>
      <trkpt lat="45.36725" lon="4.63715">
        <ele>744</ele>
        <time>2018-07-21T18:47:57+02:00</time>
      </trkpt>
      <trkpt lat="45.36719" lon="4.63727">
        <ele>744</ele>
        <time>2018-07-21T18:48:02+02:00</time>
      </trkpt>
      <trkpt lat="45.36714" lon="4.63736">
        <ele>743</ele>
        <time>2018-07-21T18:48:07+02:00</time>
      </trkpt>
      <trkpt lat="45.3671" lon="4.63747">
        <ele>743</ele>
        <time>2018-07-21T18:48:12+02:00</time>
      </trkpt>
      <trkpt lat="45.36706" lon="4.63758">
        <ele>742</ele>
        <time>2018-07-21T18:48:17+02:00</time>
      </trkpt>
      <trkpt lat="45.36703" lon="4.63767">
        <ele>742</ele>
        <time>2018-07-21T18:48:22+02:00</time>
      </trkpt>
      <trkpt lat="45.36698" lon="4.63775">
        <ele>741</ele>
        <time>2018-07-21T18:48:27+02:00</time>
      </trkpt>
      <trkpt lat="45.36697" lon="4.63778">
        <ele>741</ele>
        <time>2018-07-21T18:48:32+02:00</time>
      </trkpt>
      <trkpt lat="45.36693" lon="4.63789">
        <ele>740</ele>
        <time>2018-07-21T18:48:37+02:00</time>
      </trkpt>
      <trkpt lat="45.36691" lon="4.63797">
        <ele>740</ele>
        <time>2018-07-21T18:48:42+02:00</time>
      </trkpt>
      <trkpt lat="45.36687" lon="4.63808">
        <ele>739</ele>
        <time>2018-07-21T18:48:47+02:00</time>
      </trkpt>
      <trkpt lat="45.36682" lon="4.63817">
        <ele>738</ele>
        <time>2018-07-21T18:48:52+02:00</time>
      </trkpt>
      <trkpt lat="45.36678" lon="4.63827">
        <ele>738</ele>
        <time>2018-07-21T18:48:57+02:00</time>
      </trkpt>
      <trkpt lat="45.36676" lon="4.63838">
        <ele>738</ele>
        <time>2018-07-21T18:49:02+02:00</time>
      </trkpt>
      <trkpt lat="45.36673" lon="4.6385">
        <ele>737</ele>
        <time>2018-07-21T18:49:07+02:00</time>
      </trkpt>
      <trkpt lat="45.36669" lon="4.6386">
        <ele>736</ele>
        <time>2018-07-21T18:49:12+02:00</time>
      </trkpt>
      <trkpt lat="45.36667" lon="4.6387">
        <ele>736</ele>
        <time>2018-07-21T18:49:17+02:00</time>
      </trkpt>
      <trkpt lat="45.36665" lon="4.63879">
        <ele>736</ele>
        <time>2018-07-21T18:49:22+02:00</time>
      </trkpt>
      <trkpt lat="45.36663" lon="4.6389">
        <ele>735</ele>
        <time>2018-07-21T18:49:27+02:00</time>
      </trkpt>
      <trkpt lat="45.36661" lon="4.63899">
        <ele>735</ele>
        <time>2018-07-21T18:49:32+02:00</time>
      </trkpt>
      <trkpt lat="45.36661" lon="4.63908">
        <ele>735</ele>
        <time>2018-07-21T18:49:37+02:00</time>
      </trkpt>
      <trkpt lat="45.3666" lon="4.6392">
        <ele>735</ele>
        <time>2018-07-21T18:49:42+02:00</time>
      </trkpt>
      <trkpt lat="45.3666" lon="4.63928">
        <ele>735</ele>
        <time>2018-07-21T18:49:47+02:00</time>
      </trkpt>
      <trkpt lat="45.36662" lon="4.63938">
        <ele>736</ele>
        <time>2018-07-21T18:49:52+02:00</time>
      </trkpt>
      <trkpt lat="45.36663" lon="4.63944">
        <ele>737</ele>
        <time>2018-07-21T18:49:57+02:00</time>
      </trkpt>
      <trkpt lat="45.36661" lon="4.63956">
        <ele>736</ele>
        <time>2018-07-21T18:50:02+02:00</time>
      </trkpt>
      <trkpt lat="45.36661" lon="4.63961">
        <ele>736</ele>
        <time>2018-07-21T18:50:07+02:00</time>
      </trkpt>
      <trkpt lat="45.36662" lon="4.63973">
        <ele>737</ele>
        <time>2018-07-21T18:50:12+02:00</time>
      </trkpt>
      <trkpt lat="45.36662" lon="4.63978">
        <ele>737</ele>
        <time>2018-07-21T18:50:17+02:00</time>
      </trkpt>
      <trkpt lat="45.36662" lon="4.63985">
        <ele>737</ele>
        <time>2018-07-21T18:50:22+02:00</time>
      </trkpt>
      <trkpt lat="45.36658" lon="4.63997">
        <ele>735</ele>
        <time>2018-07-21T18:50:27+02:00</time>
      </trkpt>
      <trkpt lat="45.36654" lon="4.64006">
        <ele>733</ele>
        <time>2018-07-21T18:50:32+02:00</time>
      </trkpt>
      <trkpt lat="45.36656" lon="4.64012">
        <ele>733</ele>
        <time>2018-07-21T18:50:37+02:00</time>
      </trkpt>
      <trkpt lat="45.36656" lon="4.64018">
        <ele>733</ele>
        <time>2018-07-21T18:50:42+02:00</time>
      </trkpt>
      <trkpt lat="45.36656" lon="4.64027">
        <ele>732</ele>
        <time>2018-07-21T18:50:47+02:00</time>
      </trkpt>
      <trkpt lat="45.36655" lon="4.64032">
        <ele>732</ele>
        <time>2018-07-21T18:50:52+02:00</time>
      </trkpt>
      <trkpt lat="45.36654" lon="4.64041">
        <ele>731</ele>
        <time>2018-07-21T18:50:57+02:00</time>
      </trkpt>
      <trkpt lat="45.36652" lon="4.64053">
        <ele>729</ele>
        <time>2018-07-21T18:51:02+02:00</time>
      </trkpt>
      <trkpt lat="45.36652" lon="4.64063">
        <ele>729</ele>
        <time>2018-07-21T18:51:07+02:00</time>
      </trkpt>
      <trkpt lat="45.36655" lon="4.64071">
        <ele>729</ele>
        <time>2018-07-21T18:51:12+02:00</time>
      </trkpt>
      <trkpt lat="45.36655" lon="4.64078">
        <ele>729</ele>
        <time>2018-07-21T18:51:17+02:00</time>
      </trkpt>
      <trkpt lat="45.36654" lon="4.64087">
        <ele>728</ele>
        <time>2018-07-21T18:51:22+02:00</time>
      </trkpt>
      <trkpt lat="45.36651" lon="4.64094">
        <ele>726</ele>
        <time>2018-07-21T18:51:27+02:00</time>
      </trkpt>
      <trkpt lat="45.36649" lon="4.641">
        <ele>724</ele>
        <time>2018-07-21T18:51:32+02:00</time>
      </trkpt>
      <trkpt lat="45.36649" lon="4.64106">
        <ele>723</ele>
        <time>2018-07-21T18:51:37+02:00</time>
      </trkpt>
      <trkpt lat="45.36651" lon="4.64111">
        <ele>724</ele>
        <time>2018-07-21T18:51:42+02:00</time>
      </trkpt>
      <trkpt lat="45.36652" lon="4.64118">
        <ele>724</ele>
        <time>2018-07-21T18:51:47+02:00</time>
      </trkpt>
      <trkpt lat="45.36651" lon="4.64128">
        <ele>723</ele>
        <time>2018-07-21T18:51:52+02:00</time>
      </trkpt>
      <trkpt lat="45.36651" lon="4.64134">
        <ele>722</ele>
        <time>2018-07-21T18:51:57+02:00</time>
      </trkpt>
      <trkpt lat="45.36651" lon="4.64148">
        <ele>721</ele>
        <time>2018-07-21T18:52:02+02:00</time>
      </trkpt>
      <trkpt lat="45.3665" lon="4.64154">
        <ele>720</ele>
        <time>2018-07-21T18:52:07+02:00</time>
      </trkpt>
      <trkpt lat="45.36648" lon="4.64158">
        <ele>719</ele>
        <time>2018-07-21T18:52:12+02:00</time>
      </trkpt>
      <trkpt lat="45.36649" lon="4.64168">
        <ele>718</ele>
        <time>2018-07-21T18:52:17+02:00</time>
      </trkpt>
      <trkpt lat="45.36648" lon="4.64175">
        <ele>717</ele>
        <time>2018-07-21T18:52:22+02:00</time>
      </trkpt>
      <trkpt lat="45.36649" lon="4.64183">
        <ele>716</ele>
        <time>2018-07-21T18:52:27+02:00</time>
      </trkpt>
      <trkpt lat="45.36649" lon="4.64194">
        <ele>716</ele>
        <time>2018-07-21T18:52:32+02:00</time>
      </trkpt>
      <trkpt lat="45.36647" lon="4.64202">
        <ele>714</ele>
        <time>2018-07-21T18:52:37+02:00</time>
      </trkpt>
      <trkpt lat="45.36649" lon="4.64205">
        <ele>715</ele>
        <time>2018-07-21T18:52:42+02:00</time>
      </trkpt>
      <trkpt lat="45.36645" lon="4.64221">
        <ele>712</ele>
        <time>2018-07-21T18:52:47+02:00</time>
      </trkpt>
      <trkpt lat="45.36644" lon="4.64231">
        <ele>710</ele>
        <time>2018-07-21T18:52:52+02:00</time>
      </trkpt>
      <trkpt lat="45.36641" lon="4.64242">
        <ele>708</ele>
        <time>2018-07-21T18:52:57+02:00</time>
      </trkpt>
      <trkpt lat="45.36639" lon="4.64247">
        <ele>707</ele>
        <time>2018-07-21T18:53:02+02:00</time>
      </trkpt>
      <trkpt lat="45.36638" lon="4.64248">
        <ele>706</ele>
        <time>2018-07-21T18:53:07+02:00</time>
      </trkpt>
      <trkpt lat="45.36635" lon="4.64254">
        <ele>705</ele>
        <time>2018-07-21T18:53:12+02:00</time>
      </trkpt>
      <trkpt lat="45.36632" lon="4.64266">
        <ele>703</ele>
        <time>2018-07-21T18:53:17+02:00</time>
      </trkpt>
      <trkpt lat="45.36628" lon="4.64274">
        <ele>701</ele>
        <time>2018-07-21T18:53:22+02:00</time>
      </trkpt>
      <trkpt lat="45.36622" lon="4.64285">
        <ele>699</ele>
        <time>2018-07-21T18:53:27+02:00</time>
      </trkpt>
      <trkpt lat="45.36621" lon="4.64286">
        <ele>698</ele>
        <time>2018-07-21T18:53:32+02:00</time>
      </trkpt>
      <trkpt lat="45.36615" lon="4.643">
        <ele>696</ele>
        <time>2018-07-21T18:53:37+02:00</time>
      </trkpt>
      <trkpt lat="45.36613" lon="4.64309">
        <ele>695</ele>
        <time>2018-07-21T18:53:42+02:00</time>
      </trkpt>
      <trkpt lat="45.36612" lon="4.64319">
        <ele>695</ele>
        <time>2018-07-21T18:53:47+02:00</time>
      </trkpt>
      <trkpt lat="45.3661" lon="4.64324">
        <ele>694</ele>
        <time>2018-07-21T18:53:52+02:00</time>
      </trkpt>
      <trkpt lat="45.36609" lon="4.64334">
        <ele>694</ele>
        <time>2018-07-21T18:53:57+02:00</time>
      </trkpt>
      <trkpt lat="45.3661" lon="4.64335">
        <ele>693</ele>
        <time>2018-07-21T18:54:02+02:00</time>
      </trkpt>
      <trkpt lat="45.36611" lon="4.64346">
        <ele>693</ele>
        <time>2018-07-21T18:54:07+02:00</time>
      </trkpt>
      <trkpt lat="45.36612" lon="4.6435">
        <ele>692</ele>
        <time>2018-07-21T18:54:12+02:00</time>
      </trkpt>
      <trkpt lat="45.36615" lon="4.6436">
        <ele>692</ele>
        <time>2018-07-21T18:54:17+02:00</time>
      </trkpt>
      <trkpt lat="45.36618" lon="4.64369">
        <ele>692</ele>
        <time>2018-07-21T18:54:22+02:00</time>
      </trkpt>
      <trkpt lat="45.3662" lon="4.6438">
        <ele>691</ele>
        <time>2018-07-21T18:54:27+02:00</time>
      </trkpt>
      <trkpt lat="45.3662" lon="4.64386">
        <ele>690</ele>
        <time>2018-07-21T18:54:32+02:00</time>
      </trkpt>
      <trkpt lat="45.36619" lon="4.64393">
        <ele>689</ele>
        <time>2018-07-21T18:54:37+02:00</time>
      </trkpt>
      <trkpt lat="45.36618" lon="4.644">
        <ele>688</ele>
        <time>2018-07-21T18:54:42+02:00</time>
      </trkpt>
      <trkpt lat="45.36614" lon="4.6441">
        <ele>686</ele>
        <time>2018-07-21T18:54:47+02:00</time>
      </trkpt>
      <trkpt lat="45.36613" lon="4.6442">
        <ele>685</ele>
        <time>2018-07-21T18:54:52+02:00</time>
      </trkpt>
      <trkpt lat="45.3661" lon="4.64426">
        <ele>683</ele>
        <time>2018-07-21T18:54:57+02:00</time>
      </trkpt>
      <trkpt lat="45.36607" lon="4.64434">
        <ele>682</ele>
        <time>2018-07-21T18:55:02+02:00</time>
      </trkpt>
      <trkpt lat="45.36605" lon="4.64446">
        <ele>680</ele>
        <time>2018-07-21T18:55:07+02:00</time>
      </trkpt>
      <trkpt lat="45.36604" lon="4.64453">
        <ele>679</ele>
        <time>2018-07-21T18:55:12+02:00</time>
      </trkpt>
      <trkpt lat="45.36601" lon="4.64461">
        <ele>677</ele>
        <time>2018-07-21T18:55:17+02:00</time>
      </trkpt>
      <trkpt lat="45.36599" lon="4.64471">
        <ele>676</ele>
        <time>2018-07-21T18:55:22+02:00</time>
      </trkpt>
      <trkpt lat="45.36597" lon="4.6448">
        <ele>674</ele>
        <time>2018-07-21T18:55:27+02:00</time>
      </trkpt>
      <trkpt lat="45.36594" lon="4.64486">
        <ele>673</ele>
        <time>2018-07-21T18:55:32+02:00</time>
      </trkpt>
      <trkpt lat="45.36594" lon="4.64501">
        <ele>671</ele>
        <time>2018-07-21T18:55:37+02:00</time>
      </trkpt>
      <trkpt lat="45.36594" lon="4.64512">
        <ele>670</ele>
        <time>2018-07-21T18:55:42+02:00</time>
      </trkpt>
      <trkpt lat="45.36599" lon="4.64519">
        <ele>669</ele>
        <time>2018-07-21T18:55:47+02:00</time>
      </trkpt>
      <trkpt lat="45.36601" lon="4.64522">
        <ele>668</ele>
        <time>2018-07-21T18:55:52+02:00</time>
      </trkpt>
      <trkpt lat="45.36606" lon="4.64524">
        <ele>668</ele>
        <time>2018-07-21T18:55:57+02:00</time>
      </trkpt>
      <trkpt lat="45.3661" lon="4.64527">
        <ele>668</ele>
        <time>2018-07-21T18:56:02+02:00</time>
      </trkpt>
      <trkpt lat="45.36616" lon="4.64529">
        <ele>668</ele>
        <time>2018-07-21T18:56:07+02:00</time>
      </trkpt>
      <trkpt lat="45.36623" lon="4.64529">
        <ele>668</ele>
        <time>2018-07-21T18:56:12+02:00</time>
      </trkpt>
      <trkpt lat="45.36628" lon="4.64532">
        <ele>667</ele>
        <time>2018-07-21T18:56:17+02:00</time>
      </trkpt>
      <trkpt lat="45.36636" lon="4.6453">
        <ele>668</ele>
        <time>2018-07-21T18:56:22+02:00</time>
      </trkpt>
      <trkpt lat="45.36642" lon="4.64533">
        <ele>667</ele>
        <time>2018-07-21T18:56:27+02:00</time>
      </trkpt>
      <trkpt lat="45.36651" lon="4.64532">
        <ele>667</ele>
        <time>2018-07-21T18:56:32+02:00</time>
      </trkpt>
      <trkpt lat="45.36658" lon="4.64535">
        <ele>667</ele>
        <time>2018-07-21T18:56:37+02:00</time>
      </trkpt>
      <trkpt lat="45.36659" lon="4.64536">
        <ele>667</ele>
        <time>2018-07-21T18:56:42+02:00</time>
      </trkpt>
      <trkpt lat="45.36667" lon="4.64539">
        <ele>666</ele>
        <time>2018-07-21T18:56:47+02:00</time>
      </trkpt>
      <trkpt lat="45.36673" lon="4.64539">
        <ele>665</ele>
        <time>2018-07-21T18:56:52+02:00</time>
      </trkpt>
      <trkpt lat="45.36678" lon="4.6454">
        <ele>664</ele>
        <time>2018-07-21T18:56:57+02:00</time>
      </trkpt>
      <trkpt lat="45.36686" lon="4.64539">
        <ele>663</ele>
        <time>2018-07-21T18:57:02+02:00</time>
      </trkpt>
      <trkpt lat="45.36692" lon="4.64543">
        <ele>662</ele>
        <time>2018-07-21T18:57:07+02:00</time>
      </trkpt>
      <trkpt lat="45.36697" lon="4.64545">
        <ele>661</ele>
        <time>2018-07-21T18:57:12+02:00</time>
      </trkpt>
      <trkpt lat="45.367" lon="4.64545">
        <ele>660</ele>
        <time>2018-07-21T18:57:17+02:00</time>
      </trkpt>
      <trkpt lat="45.36706" lon="4.64546">
        <ele>659</ele>
        <time>2018-07-21T18:57:22+02:00</time>
      </trkpt>
      <trkpt lat="45.36715" lon="4.64549">
        <ele>657</ele>
        <time>2018-07-21T18:57:27+02:00</time>
      </trkpt>
      <trkpt lat="45.36713" lon="4.64585">
        <ele>650</ele>
        <time>2018-07-21T18:57:32+02:00</time>
      </trkpt>
      <trkpt lat="45.36711" lon="4.64619">
        <ele>644</ele>
        <time>2018-07-21T18:57:37+02:00</time>
      </trkpt>
      <trkpt lat="45.36709" lon="4.64629">
        <ele>642</ele>
        <time>2018-07-21T18:57:42+02:00</time>
      </trkpt>
      <trkpt lat="45.36707" lon="4.64639">
        <ele>641</ele>
        <time>2018-07-21T18:57:47+02:00</time>
      </trkpt>
      <trkpt lat="45.36706" lon="4.64649">
        <ele>639</ele>
        <time>2018-07-21T18:57:52+02:00</time>
      </trkpt>
      <trkpt lat="45.36704" lon="4.64665">
        <ele>636</ele>
        <time>2018-07-21T18:57:57+02:00</time>
      </trkpt>
      <trkpt lat="45.36701" lon="4.64679">
        <ele>634</ele>
        <time>2018-07-21T18:58:02+02:00</time>
      </trkpt>
      <trkpt lat="45.36699" lon="4.6469">
        <ele>632</ele>
        <time>2018-07-21T18:58:07+02:00</time>
      </trkpt>
      <trkpt lat="45.36698" lon="4.64704">
        <ele>630</ele>
        <time>2018-07-21T18:58:12+02:00</time>
      </trkpt>
      <trkpt lat="45.36696" lon="4.64721">
        <ele>628</ele>
        <time>2018-07-21T18:58:17+02:00</time>
      </trkpt>
      <trkpt lat="45.36693" lon="4.64736">
        <ele>626</ele>
        <time>2018-07-21T18:58:22+02:00</time>
      </trkpt>
      <trkpt lat="45.36689" lon="4.64755">
        <ele>623</ele>
        <time>2018-07-21T18:58:27+02:00</time>
      </trkpt>
      <trkpt lat="45.36687" lon="4.64766">
        <ele>622</ele>
        <time>2018-07-21T18:58:32+02:00</time>
      </trkpt>
      <trkpt lat="45.36687" lon="4.64769">
        <ele>621</ele>
        <time>2018-07-21T18:58:37+02:00</time>
      </trkpt>
      <trkpt lat="45.36685" lon="4.64776">
        <ele>621</ele>
        <time>2018-07-21T18:58:42+02:00</time>
      </trkpt>
      <trkpt lat="45.36684" lon="4.64788">
        <ele>619</ele>
        <time>2018-07-21T18:58:47+02:00</time>
      </trkpt>
      <trkpt lat="45.36683" lon="4.64799">
        <ele>618</ele>
        <time>2018-07-21T18:58:52+02:00</time>
      </trkpt>
      <trkpt lat="45.3668" lon="4.64809">
        <ele>617</ele>
        <time>2018-07-21T18:58:57+02:00</time>
      </trkpt>
      <trkpt lat="45.36679" lon="4.64813">
        <ele>617</ele>
        <time>2018-07-21T18:59:02+02:00</time>
      </trkpt>
      <trkpt lat="45.36679" lon="4.64821">
        <ele>616</ele>
        <time>2018-07-21T18:59:07+02:00</time>
      </trkpt>
      <trkpt lat="45.36678" lon="4.64832">
        <ele>615</ele>
        <time>2018-07-21T18:59:12+02:00</time>
      </trkpt>
      <trkpt lat="45.36677" lon="4.64839">
        <ele>614</ele>
        <time>2018-07-21T18:59:17+02:00</time>
      </trkpt>
      <trkpt lat="45.36676" lon="4.64849">
        <ele>613</ele>
        <time>2018-07-21T18:59:22+02:00</time>
      </trkpt>
      <trkpt lat="45.36675" lon="4.64853">
        <ele>613</ele>
        <time>2018-07-21T18:59:27+02:00</time>
      </trkpt>
      <trkpt lat="45.36674" lon="4.6486">
        <ele>612</ele>
        <time>2018-07-21T18:59:32+02:00</time>
      </trkpt>
      <trkpt lat="45.36672" lon="4.64873">
        <ele>611</ele>
        <time>2018-07-21T18:59:37+02:00</time>
      </trkpt>
      <trkpt lat="45.36671" lon="4.64886">
        <ele>610</ele>
        <time>2018-07-21T18:59:42+02:00</time>
      </trkpt>
      <trkpt lat="45.36667" lon="4.64904">
        <ele>608</ele>
        <time>2018-07-21T18:59:47+02:00</time>
      </trkpt>
      <trkpt lat="45.36664" lon="4.64915">
        <ele>607</ele>
        <time>2018-07-21T18:59:52+02:00</time>
      </trkpt>
      <trkpt lat="45.36666" lon="4.64929">
        <ele>606</ele>
        <time>2018-07-21T18:59:57+02:00</time>
      </trkpt>
      <trkpt lat="45.36667" lon="4.64931">
        <ele>606</ele>
        <time>2018-07-21T19:00:02+02:00</time>
      </trkpt>
      <trkpt lat="45.36671" lon="4.64944">
        <ele>606</ele>
        <time>2018-07-21T19:00:07+02:00</time>
      </trkpt>
      <trkpt lat="45.36675" lon="4.6496">
        <ele>605</ele>
        <time>2018-07-21T19:00:12+02:00</time>
      </trkpt>
      <trkpt lat="45.36676" lon="4.64967">
        <ele>605</ele>
        <time>2018-07-21T19:00:17+02:00</time>
      </trkpt>
      <trkpt lat="45.36678" lon="4.64981">
        <ele>605</ele>
        <time>2018-07-21T19:00:22+02:00</time>
      </trkpt>
      <trkpt lat="45.3668" lon="4.6499">
        <ele>604</ele>
        <time>2018-07-21T19:00:27+02:00</time>
      </trkpt>
      <trkpt lat="45.36681" lon="4.64994">
        <ele>604</ele>
        <time>2018-07-21T19:00:32+02:00</time>
      </trkpt>
      <trkpt lat="45.36682" lon="4.65003">
        <ele>604</ele>
        <time>2018-07-21T19:00:37+02:00</time>
      </trkpt>
      <trkpt lat="45.36683" lon="4.65015">
        <ele>603</ele>
        <time>2018-07-21T19:00:42+02:00</time>
      </trkpt>
      <trkpt lat="45.36684" lon="4.65026">
        <ele>602</ele>
        <time>2018-07-21T19:00:47+02:00</time>
      </trkpt>
      <trkpt lat="45.36684" lon="4.65033">
        <ele>602</ele>
        <time>2018-07-21T19:00:52+02:00</time>
      </trkpt>
      <trkpt lat="45.36689" lon="4.65041">
        <ele>601</ele>
        <time>2018-07-21T19:00:57+02:00</time>
      </trkpt>
      <trkpt lat="45.36691" lon="4.65049">
        <ele>601</ele>
        <time>2018-07-21T19:01:02+02:00</time>
      </trkpt>
      <trkpt lat="45.36694" lon="4.65058">
        <ele>600</ele>
        <time>2018-07-21T19:01:07+02:00</time>
      </trkpt>
      <trkpt lat="45.36698" lon="4.65068">
        <ele>600</ele>
        <time>2018-07-21T19:01:12+02:00</time>
      </trkpt>
      <trkpt lat="45.36699" lon="4.65083">
        <ele>599</ele>
        <time>2018-07-21T19:01:17+02:00</time>
      </trkpt>
      <trkpt lat="45.36703" lon="4.65095">
        <ele>598</ele>
        <time>2018-07-21T19:01:22+02:00</time>
      </trkpt>
      <trkpt lat="45.36704" lon="4.65099">
        <ele>598</ele>
        <time>2018-07-21T19:01:27+02:00</time>
      </trkpt>
      <trkpt lat="45.36705" lon="4.65105">
        <ele>598</ele>
        <time>2018-07-21T19:01:32+02:00</time>
      </trkpt>
      <trkpt lat="45.36706" lon="4.65117">
        <ele>597</ele>
        <time>2018-07-21T19:01:37+02:00</time>
      </trkpt>
      <trkpt lat="45.36705" lon="4.65125">
        <ele>596</ele>
        <time>2018-07-21T19:01:42+02:00</time>
      </trkpt>
      <trkpt lat="45.36705" lon="4.65129">
        <ele>596</ele>
        <time>2018-07-21T19:01:47+02:00</time>
      </trkpt>
      <trkpt lat="45.36705" lon="4.6514">
        <ele>596</ele>
        <time>2018-07-21T19:01:52+02:00</time>
      </trkpt>
      <trkpt lat="45.36707" lon="4.6515">
        <ele>595</ele>
        <time>2018-07-21T19:01:57+02:00</time>
      </trkpt>
      <trkpt lat="45.36709" lon="4.65156">
        <ele>595</ele>
        <time>2018-07-21T19:02:02+02:00</time>
      </trkpt>
      <trkpt lat="45.36707" lon="4.65167">
        <ele>594</ele>
        <time>2018-07-21T19:02:07+02:00</time>
      </trkpt>
      <trkpt lat="45.36705" lon="4.65178">
        <ele>593</ele>
        <time>2018-07-21T19:02:12+02:00</time>
      </trkpt>
      <trkpt lat="45.36704" lon="4.6519">
        <ele>592</ele>
        <time>2018-07-21T19:02:17+02:00</time>
      </trkpt>
      <trkpt lat="45.36704" lon="4.65201">
        <ele>591</ele>
        <time>2018-07-21T19:02:22+02:00</time>
      </trkpt>
      <trkpt lat="45.36704" lon="4.65214">
        <ele>590</ele>
        <time>2018-07-21T19:02:27+02:00</time>
      </trkpt>
      <trkpt lat="45.36705" lon="4.65229">
        <ele>589</ele>
        <time>2018-07-21T19:02:32+02:00</time>
      </trkpt>
      <trkpt lat="45.36703" lon="4.6524">
        <ele>588</ele>
        <time>2018-07-21T19:02:37+02:00</time>
      </trkpt>
      <trkpt lat="45.36702" lon="4.65252">
        <ele>587</ele>
        <time>2018-07-21T19:02:42+02:00</time>
      </trkpt>
      <trkpt lat="45.36709" lon="4.6527">
        <ele>586</ele>
        <time>2018-07-21T19:02:47+02:00</time>
      </trkpt>
      <trkpt lat="45.36713" lon="4.65282">
        <ele>586</ele>
        <time>2018-07-21T19:02:52+02:00</time>
      </trkpt>
      <trkpt lat="45.36715" lon="4.65297">
        <ele>585</ele>
        <time>2018-07-21T19:02:57+02:00</time>
      </trkpt>
      <trkpt lat="45.36714" lon="4.65314">
        <ele>584</ele>
        <time>2018-07-21T19:03:02+02:00</time>
      </trkpt>
      <trkpt lat="45.36713" lon="4.65316">
        <ele>584</ele>
        <time>2018-07-21T19:03:07+02:00</time>
      </trkpt>
      <trkpt lat="45.36713" lon="4.65329">
        <ele>583</ele>
        <time>2018-07-21T19:03:12+02:00</time>
      </trkpt>
      <trkpt lat="45.36714" lon="4.65347">
        <ele>582</ele>
        <time>2018-07-21T19:03:17+02:00</time>
      </trkpt>
      <trkpt lat="45.36715" lon="4.65361">
        <ele>581</ele>
        <time>2018-07-21T19:03:22+02:00</time>
      </trkpt>
      <trkpt lat="45.36715" lon="4.65374">
        <ele>580</ele>
        <time>2018-07-21T19:03:27+02:00</time>
      </trkpt>
      <trkpt lat="45.36716" lon="4.65389">
        <ele>579</ele>
        <time>2018-07-21T19:03:32+02:00</time>
      </trkpt>
      <trkpt lat="45.36716" lon="4.65406">
        <ele>578</ele>
        <time>2018-07-21T19:03:37+02:00</time>
      </trkpt>
      <trkpt lat="45.36716" lon="4.65423">
        <ele>577</ele>
        <time>2018-07-21T19:03:42+02:00</time>
      </trkpt>
      <trkpt lat="45.36719" lon="4.65436">
        <ele>576</ele>
        <time>2018-07-21T19:03:47+02:00</time>
      </trkpt>
      <trkpt lat="45.36725" lon="4.65451">
        <ele>576</ele>
        <time>2018-07-21T19:03:52+02:00</time>
      </trkpt>
      <trkpt lat="45.36734" lon="4.65465">
        <ele>576</ele>
        <time>2018-07-21T19:03:57+02:00</time>
      </trkpt>
      <trkpt lat="45.36744" lon="4.65482">
        <ele>576</ele>
        <time>2018-07-21T19:04:02+02:00</time>
      </trkpt>
      <trkpt lat="45.3675" lon="4.65503">
        <ele>576</ele>
        <time>2018-07-21T19:04:07+02:00</time>
      </trkpt>
      <trkpt lat="45.36752" lon="4.6552">
        <ele>575</ele>
        <time>2018-07-21T19:04:12+02:00</time>
      </trkpt>
      <trkpt lat="45.36752" lon="4.65532">
        <ele>574</ele>
        <time>2018-07-21T19:04:17+02:00</time>
      </trkpt>
      <trkpt lat="45.36753" lon="4.65548">
        <ele>573</ele>
        <time>2018-07-21T19:04:22+02:00</time>
      </trkpt>
      <trkpt lat="45.36753" lon="4.65568">
        <ele>571</ele>
        <time>2018-07-21T19:04:27+02:00</time>
      </trkpt>
      <trkpt lat="45.36755" lon="4.65588">
        <ele>570</ele>
        <time>2018-07-21T19:04:32+02:00</time>
      </trkpt>
      <trkpt lat="45.36759" lon="4.65613">
        <ele>569</ele>
        <time>2018-07-21T19:04:37+02:00</time>
      </trkpt>
      <trkpt lat="45.36765" lon="4.65631">
        <ele>569</ele>
        <time>2018-07-21T19:04:42+02:00</time>
      </trkpt>
      <trkpt lat="45.36764" lon="4.65631">
        <ele>569</ele>
        <time>2018-07-21T19:04:47+02:00</time>
      </trkpt>
      <trkpt lat="45.36767" lon="4.65637">
        <ele>569</ele>
        <time>2018-07-21T19:04:52+02:00</time>
      </trkpt>
      <trkpt lat="45.36773" lon="4.65653">
        <ele>569</ele>
        <time>2018-07-21T19:04:57+02:00</time>
      </trkpt>
      <trkpt lat="45.3678" lon="4.65667">
        <ele>568</ele>
        <time>2018-07-21T19:05:02+02:00</time>
      </trkpt>
      <trkpt lat="45.36787" lon="4.65685">
        <ele>568</ele>
        <time>2018-07-21T19:05:07+02:00</time>
      </trkpt>
      <trkpt lat="45.36793" lon="4.65698">
        <ele>568</ele>
        <time>2018-07-21T19:05:12+02:00</time>
      </trkpt>
      <trkpt lat="45.36799" lon="4.65713">
        <ele>568</ele>
        <time>2018-07-21T19:05:17+02:00</time>
      </trkpt>
      <trkpt lat="45.36808" lon="4.65731">
        <ele>568</ele>
        <time>2018-07-21T19:05:22+02:00</time>
      </trkpt>
      <trkpt lat="45.36814" lon="4.65749">
        <ele>567</ele>
        <time>2018-07-21T19:05:27+02:00</time>
      </trkpt>
      <trkpt lat="45.36818" lon="4.65765">
        <ele>567</ele>
        <time>2018-07-21T19:05:32+02:00</time>
      </trkpt>
      <trkpt lat="45.36821" lon="4.65782">
        <ele>568</ele>
        <time>2018-07-21T19:05:37+02:00</time>
      </trkpt>
      <trkpt lat="45.36823" lon="4.65792">
        <ele>568</ele>
        <time>2018-07-21T19:05:42+02:00</time>
      </trkpt>
      <trkpt lat="45.36824" lon="4.65798">
        <ele>568</ele>
        <time>2018-07-21T19:05:47+02:00</time>
      </trkpt>
      <trkpt lat="45.36825" lon="4.65805">
        <ele>568</ele>
        <time>2018-07-21T19:05:52+02:00</time>
      </trkpt>
      <trkpt lat="45.36826" lon="4.65818">
        <ele>568</ele>
        <time>2018-07-21T19:05:57+02:00</time>
      </trkpt>
      <trkpt lat="45.36826" lon="4.65833">
        <ele>569</ele>
        <time>2018-07-21T19:06:02+02:00</time>
      </trkpt>
      <trkpt lat="45.36827" lon="4.65847">
        <ele>568</ele>
        <time>2018-07-21T19:06:07+02:00</time>
      </trkpt>
      <trkpt lat="45.36828" lon="4.65852">
        <ele>568</ele>
        <time>2018-07-21T19:06:12+02:00</time>
      </trkpt>
      <trkpt lat="45.36828" lon="4.65869">
        <ele>568</ele>
        <time>2018-07-21T19:06:17+02:00</time>
      </trkpt>
      <trkpt lat="45.3683" lon="4.65888">
        <ele>568</ele>
        <time>2018-07-21T19:06:22+02:00</time>
      </trkpt>
      <trkpt lat="45.36831" lon="4.65902">
        <ele>568</ele>
        <time>2018-07-21T19:06:27+02:00</time>
      </trkpt>
      <trkpt lat="45.36831" lon="4.65915">
        <ele>568</ele>
        <time>2018-07-21T19:06:32+02:00</time>
      </trkpt>
      <trkpt lat="45.36832" lon="4.65929">
        <ele>568</ele>
        <time>2018-07-21T19:06:37+02:00</time>
      </trkpt>
      <trkpt lat="45.36829" lon="4.65935">
        <ele>567</ele>
        <time>2018-07-21T19:06:42+02:00</time>
      </trkpt>
      <trkpt lat="45.36826" lon="4.65937">
        <ele>567</ele>
        <time>2018-07-21T19:06:47+02:00</time>
      </trkpt>
      <trkpt lat="45.36828" lon="4.65946">
        <ele>567</ele>
        <time>2018-07-21T19:06:52+02:00</time>
      </trkpt>
      <trkpt lat="45.36825" lon="4.65954">
        <ele>567</ele>
        <time>2018-07-21T19:06:57+02:00</time>
      </trkpt>
      <trkpt lat="45.36824" lon="4.6597">
        <ele>566</ele>
        <time>2018-07-21T19:07:02+02:00</time>
      </trkpt>
      <trkpt lat="45.36824" lon="4.65986">
        <ele>566</ele>
        <time>2018-07-21T19:07:07+02:00</time>
      </trkpt>
      <trkpt lat="45.36824" lon="4.65991">
        <ele>566</ele>
        <time>2018-07-21T19:07:12+02:00</time>
      </trkpt>
      <trkpt lat="45.36823" lon="4.66008">
        <ele>566</ele>
        <time>2018-07-21T19:07:17+02:00</time>
      </trkpt>
      <trkpt lat="45.36823" lon="4.66026">
        <ele>565</ele>
        <time>2018-07-21T19:07:22+02:00</time>
      </trkpt>
      <trkpt lat="45.36824" lon="4.66038">
        <ele>565</ele>
        <time>2018-07-21T19:07:27+02:00</time>
      </trkpt>
      <trkpt lat="45.36825" lon="4.66045">
        <ele>565</ele>
        <time>2018-07-21T19:07:32+02:00</time>
      </trkpt>
      <trkpt lat="45.36824" lon="4.6606">
        <ele>565</ele>
        <time>2018-07-21T19:07:37+02:00</time>
      </trkpt>
      <trkpt lat="45.36823" lon="4.66072">
        <ele>564</ele>
        <time>2018-07-21T19:07:42+02:00</time>
      </trkpt>
      <trkpt lat="45.36822" lon="4.66084">
        <ele>564</ele>
        <time>2018-07-21T19:07:47+02:00</time>
      </trkpt>
      <trkpt lat="45.36822" lon="4.66101">
        <ele>565</ele>
        <time>2018-07-21T19:07:52+02:00</time>
      </trkpt>
      <trkpt lat="45.36823" lon="4.66113">
        <ele>565</ele>
        <time>2018-07-21T19:07:57+02:00</time>
      </trkpt>
      <trkpt lat="45.36825" lon="4.66126">
        <ele>565</ele>
        <time>2018-07-21T19:08:02+02:00</time>
      </trkpt>
      <trkpt lat="45.36826" lon="4.66138">
        <ele>566</ele>
        <time>2018-07-21T19:08:07+02:00</time>
      </trkpt>
      <trkpt lat="45.36825" lon="4.66149">
        <ele>566</ele>
        <time>2018-07-21T19:08:12+02:00</time>
      </trkpt>
      <trkpt lat="45.36825" lon="4.66164">
        <ele>566</ele>
        <time>2018-07-21T19:08:17+02:00</time>
      </trkpt>
      <trkpt lat="45.36825" lon="4.66174">
        <ele>567</ele>
        <time>2018-07-21T19:08:22+02:00</time>
      </trkpt>
      <trkpt lat="45.36824" lon="4.66192">
        <ele>567</ele>
        <time>2018-07-21T19:08:27+02:00</time>
      </trkpt>
      <trkpt lat="45.36823" lon="4.66209">
        <ele>567</ele>
        <time>2018-07-21T19:08:32+02:00</time>
      </trkpt>
      <trkpt lat="45.36822" lon="4.66223">
        <ele>567</ele>
        <time>2018-07-21T19:08:37+02:00</time>
      </trkpt>
      <trkpt lat="45.36823" lon="4.66233">
        <ele>568</ele>
        <time>2018-07-21T19:08:42+02:00</time>
      </trkpt>
      <trkpt lat="45.36823" lon="4.66244">
        <ele>568</ele>
        <time>2018-07-21T19:08:47+02:00</time>
      </trkpt>
      <trkpt lat="45.36826" lon="4.66258">
        <ele>568</ele>
        <time>2018-07-21T19:08:52+02:00</time>
      </trkpt>
      <trkpt lat="45.36823" lon="4.66269">
        <ele>568</ele>
        <time>2018-07-21T19:08:57+02:00</time>
      </trkpt>
      <trkpt lat="45.36827" lon="4.66282">
        <ele>568</ele>
        <time>2018-07-21T19:09:02+02:00</time>
      </trkpt>
      <trkpt lat="45.36831" lon="4.66291">
        <ele>568</ele>
        <time>2018-07-21T19:09:07+02:00</time>
      </trkpt>
      <trkpt lat="45.36833" lon="4.66292">
        <ele>568</ele>
        <time>2018-07-21T19:09:12+02:00</time>
      </trkpt>
    </trkseg>
  </trk>
</gpx>